<?xml version="1.0" encoding="UTF-8" standalone="no" ?>
<gpx xmlns="http://www.topografix.com/GPX/1/1" xmlns:xsi="http://www.w3.org/2001/XMLSchema-instance" xsi:schemaLocation="http://www.topografix.com/GPX/1/1 http://www.topografix.com/GPX/1/1/gpx.xsd" version="1.1" creator="VisuGPX - https://www.visugpx.com">
  <metadata>
    <name>Les Gorges de Vaumales et les grottes de Bérigoule</name>
    <desc><![CDATA[Les copains randonneurs du 04
départ parking juste en face du sentier qui descend dans les gorges. Les gorges sont assez technique : câbles, mains courantes, cordes et marches pieds.Au premier carrefour apres avoir traverser les gorges, prendre la direction La Debroussède puis continuer par un sentier juste en face jusqu'à la combe de la Roquette, suivre un peu de route et virer à droite sur un sentier qui grimpe (balisé PR) au premier carre four, continuer tout droit direction Berigoule, le sentier descend vers les champs de lavande. Au premier cairn rencontré, virer à gauche et grimper par un petit chemin qui grimpe raide vers les grottes de Bérigoule. redescendre par le même itinéraire puis suivre le PR jusqu'à Les Sautarels, puis Les Calamels puis virer à droite pour descendre par un chemin caillouteux. Traverser la route départementale D4 et en face un petit sentier descend et rejoint le parking du départ]]></desc>
  </metadata>
  <trk>
    <name><![CDATA[Les Gorges de Vaumales et les grottes de Bérigoule_1]]></name>
    <trkseg>
      <trkpt lat="43.94189" lon="5.27014">
        <ele>309</ele>
        <time>2019-05-13T08:24:56+02:00</time>
      </trkpt>
      <trkpt lat="43.94189" lon="5.27014">
        <ele>308</ele>
        <time>2019-05-13T08:24:58+02:00</time>
      </trkpt>
      <trkpt lat="43.94189" lon="5.27013">
        <ele>309</ele>
        <time>2019-05-13T08:25:03+02:00</time>
      </trkpt>
      <trkpt lat="43.94189" lon="5.27013">
        <ele>309</ele>
        <time>2019-05-13T08:25:04+02:00</time>
      </trkpt>
      <trkpt lat="43.94189" lon="5.27012">
        <ele>308</ele>
        <time>2019-05-13T08:25:19+02:00</time>
      </trkpt>
      <trkpt lat="43.94187" lon="5.27012">
        <ele>308</ele>
        <time>2019-05-13T08:25:47+02:00</time>
      </trkpt>
      <trkpt lat="43.94191" lon="5.27018">
        <ele>309</ele>
        <time>2019-05-13T08:26:03+02:00</time>
      </trkpt>
      <trkpt lat="43.94194" lon="5.27019">
        <ele>310</ele>
        <time>2019-05-13T08:26:16+02:00</time>
      </trkpt>
      <trkpt lat="43.94193" lon="5.27017">
        <ele>309</ele>
        <time>2019-05-13T08:26:30+02:00</time>
      </trkpt>
      <trkpt lat="43.94192" lon="5.27017">
        <ele>309</ele>
        <time>2019-05-13T08:27:20+02:00</time>
      </trkpt>
      <trkpt lat="43.94194" lon="5.27017">
        <ele>310</ele>
        <time>2019-05-13T08:27:35+02:00</time>
      </trkpt>
      <trkpt lat="43.94193" lon="5.27017">
        <ele>310</ele>
        <time>2019-05-13T08:27:50+02:00</time>
      </trkpt>
      <trkpt lat="43.94193" lon="5.27018">
        <ele>310</ele>
        <time>2019-05-13T08:28:18+02:00</time>
      </trkpt>
      <trkpt lat="43.94192" lon="5.27017">
        <ele>309</ele>
        <time>2019-05-13T08:28:43+02:00</time>
      </trkpt>
      <trkpt lat="43.94193" lon="5.27015">
        <ele>309</ele>
        <time>2019-05-13T08:28:56+02:00</time>
      </trkpt>
      <trkpt lat="43.94192" lon="5.27015">
        <ele>309</ele>
        <time>2019-05-13T08:29:11+02:00</time>
      </trkpt>
      <trkpt lat="43.94188" lon="5.27018">
        <ele>308</ele>
        <time>2019-05-13T08:29:17+02:00</time>
      </trkpt>
      <trkpt lat="43.94186" lon="5.27023">
        <ele>308</ele>
        <time>2019-05-13T08:29:20+02:00</time>
      </trkpt>
      <trkpt lat="43.94184" lon="5.27042">
        <ele>307</ele>
        <time>2019-05-13T08:29:32+02:00</time>
      </trkpt>
      <trkpt lat="43.94183" lon="5.27044">
        <ele>306</ele>
        <time>2019-05-13T08:29:34+02:00</time>
      </trkpt>
      <trkpt lat="43.94181" lon="5.27049">
        <ele>306</ele>
        <time>2019-05-13T08:29:45+02:00</time>
      </trkpt>
      <trkpt lat="43.94185" lon="5.27041">
        <ele>307</ele>
        <time>2019-05-13T08:29:52+02:00</time>
      </trkpt>
      <trkpt lat="43.94186" lon="5.2703">
        <ele>307</ele>
        <time>2019-05-13T08:29:59+02:00</time>
      </trkpt>
      <trkpt lat="43.9419" lon="5.2702">
        <ele>309</ele>
        <time>2019-05-13T08:30:15+02:00</time>
      </trkpt>
      <trkpt lat="43.94191" lon="5.27018">
        <ele>309</ele>
        <time>2019-05-13T08:30:44+02:00</time>
      </trkpt>
      <trkpt lat="43.94191" lon="5.27018">
        <ele>309</ele>
        <time>2019-05-13T08:31:11+02:00</time>
      </trkpt>
      <trkpt lat="43.94191" lon="5.27017">
        <ele>309</ele>
        <time>2019-05-13T08:31:28+02:00</time>
      </trkpt>
      <trkpt lat="43.94192" lon="5.27018">
        <ele>309</ele>
        <time>2019-05-13T08:31:55+02:00</time>
      </trkpt>
      <trkpt lat="43.94192" lon="5.27016">
        <ele>309</ele>
        <time>2019-05-13T08:32:28+02:00</time>
      </trkpt>
      <trkpt lat="43.94193" lon="5.27019">
        <ele>310</ele>
        <time>2019-05-13T08:32:44+02:00</time>
      </trkpt>
      <trkpt lat="43.94188" lon="5.2702">
        <ele>308</ele>
        <time>2019-05-13T08:33:02+02:00</time>
      </trkpt>
      <trkpt lat="43.94188" lon="5.2702">
        <ele>308</ele>
        <time>2019-05-13T08:33:03+02:00</time>
      </trkpt>
      <trkpt lat="43.94187" lon="5.27019">
        <ele>308</ele>
        <time>2019-05-13T08:33:04+02:00</time>
      </trkpt>
      <trkpt lat="43.94185" lon="5.27022">
        <ele>307</ele>
        <time>2019-05-13T08:33:17+02:00</time>
      </trkpt>
      <trkpt lat="43.94184" lon="5.27022">
        <ele>307</ele>
        <time>2019-05-13T08:33:19+02:00</time>
      </trkpt>
      <trkpt lat="43.94182" lon="5.27022">
        <ele>307</ele>
        <time>2019-05-13T08:33:20+02:00</time>
      </trkpt>
      <trkpt lat="43.94175" lon="5.27027">
        <ele>305</ele>
        <time>2019-05-13T08:33:31+02:00</time>
      </trkpt>
      <trkpt lat="43.94171" lon="5.27041">
        <ele>303</ele>
        <time>2019-05-13T08:33:43+02:00</time>
      </trkpt>
      <trkpt lat="43.94168" lon="5.27055">
        <ele>302</ele>
        <time>2019-05-13T08:33:55+02:00</time>
      </trkpt>
      <trkpt lat="43.94166" lon="5.27067">
        <ele>302</ele>
        <time>2019-05-13T08:34:09+02:00</time>
      </trkpt>
      <trkpt lat="43.9416" lon="5.27082">
        <ele>303</ele>
        <time>2019-05-13T08:34:23+02:00</time>
      </trkpt>
      <trkpt lat="43.9416" lon="5.27083">
        <ele>303</ele>
        <time>2019-05-13T08:34:24+02:00</time>
      </trkpt>
      <trkpt lat="43.94151" lon="5.27097">
        <ele>303</ele>
        <time>2019-05-13T08:34:39+02:00</time>
      </trkpt>
      <trkpt lat="43.9414" lon="5.27108">
        <ele>303</ele>
        <time>2019-05-13T08:34:55+02:00</time>
      </trkpt>
      <trkpt lat="43.94139" lon="5.27109">
        <ele>303</ele>
        <time>2019-05-13T08:34:58+02:00</time>
      </trkpt>
      <trkpt lat="43.94134" lon="5.27112">
        <ele>303</ele>
        <time>2019-05-13T08:35:08+02:00</time>
      </trkpt>
      <trkpt lat="43.94134" lon="5.27111">
        <ele>303</ele>
        <time>2019-05-13T08:35:15+02:00</time>
      </trkpt>
      <trkpt lat="43.94124" lon="5.27119">
        <ele>301</ele>
        <time>2019-05-13T08:35:21+02:00</time>
      </trkpt>
      <trkpt lat="43.94122" lon="5.27121">
        <ele>300</ele>
        <time>2019-05-13T08:35:22+02:00</time>
      </trkpt>
      <trkpt lat="43.94118" lon="5.27123">
        <ele>300</ele>
        <time>2019-05-13T08:35:24+02:00</time>
      </trkpt>
      <trkpt lat="43.94117" lon="5.27125">
        <ele>299</ele>
        <time>2019-05-13T08:35:25+02:00</time>
      </trkpt>
      <trkpt lat="43.94116" lon="5.27126">
        <ele>299</ele>
        <time>2019-05-13T08:35:26+02:00</time>
      </trkpt>
      <trkpt lat="43.94112" lon="5.27132">
        <ele>298</ele>
        <time>2019-05-13T08:35:31+02:00</time>
      </trkpt>
      <trkpt lat="43.94111" lon="5.27132">
        <ele>297</ele>
        <time>2019-05-13T08:35:32+02:00</time>
      </trkpt>
      <trkpt lat="43.94109" lon="5.27134">
        <ele>297</ele>
        <time>2019-05-13T08:35:34+02:00</time>
      </trkpt>
      <trkpt lat="43.94109" lon="5.27135">
        <ele>297</ele>
        <time>2019-05-13T08:35:35+02:00</time>
      </trkpt>
      <trkpt lat="43.94107" lon="5.27135">
        <ele>297</ele>
        <time>2019-05-13T08:35:36+02:00</time>
      </trkpt>
      <trkpt lat="43.94106" lon="5.27135">
        <ele>297</ele>
        <time>2019-05-13T08:35:43+02:00</time>
      </trkpt>
      <trkpt lat="43.94104" lon="5.27136">
        <ele>296</ele>
        <time>2019-05-13T08:35:44+02:00</time>
      </trkpt>
      <trkpt lat="43.94103" lon="5.27137">
        <ele>296</ele>
        <time>2019-05-13T08:35:45+02:00</time>
      </trkpt>
      <trkpt lat="43.94097" lon="5.2714">
        <ele>295</ele>
        <time>2019-05-13T08:35:53+02:00</time>
      </trkpt>
      <trkpt lat="43.94084" lon="5.27146">
        <ele>293</ele>
        <time>2019-05-13T08:36:02+02:00</time>
      </trkpt>
      <trkpt lat="43.9408" lon="5.27149">
        <ele>292</ele>
        <time>2019-05-13T08:36:07+02:00</time>
      </trkpt>
      <trkpt lat="43.94079" lon="5.27151">
        <ele>292</ele>
        <time>2019-05-13T08:36:08+02:00</time>
      </trkpt>
      <trkpt lat="43.94078" lon="5.27152">
        <ele>292</ele>
        <time>2019-05-13T08:36:09+02:00</time>
      </trkpt>
      <trkpt lat="43.94077" lon="5.27153">
        <ele>291</ele>
        <time>2019-05-13T08:36:10+02:00</time>
      </trkpt>
      <trkpt lat="43.94076" lon="5.27153">
        <ele>291</ele>
        <time>2019-05-13T08:36:11+02:00</time>
      </trkpt>
      <trkpt lat="43.94073" lon="5.27155">
        <ele>291</ele>
        <time>2019-05-13T08:36:16+02:00</time>
      </trkpt>
      <trkpt lat="43.94071" lon="5.27156">
        <ele>291</ele>
        <time>2019-05-13T08:36:17+02:00</time>
      </trkpt>
      <trkpt lat="43.9407" lon="5.27155">
        <ele>290</ele>
        <time>2019-05-13T08:36:20+02:00</time>
      </trkpt>
      <trkpt lat="43.94067" lon="5.27154">
        <ele>291</ele>
        <time>2019-05-13T08:36:22+02:00</time>
      </trkpt>
      <trkpt lat="43.94064" lon="5.27155">
        <ele>290</ele>
        <time>2019-05-13T08:36:27+02:00</time>
      </trkpt>
      <trkpt lat="43.94062" lon="5.27156">
        <ele>290</ele>
        <time>2019-05-13T08:36:28+02:00</time>
      </trkpt>
      <trkpt lat="43.94061" lon="5.27157">
        <ele>289</ele>
        <time>2019-05-13T08:36:29+02:00</time>
      </trkpt>
      <trkpt lat="43.9406" lon="5.27159">
        <ele>289</ele>
        <time>2019-05-13T08:36:30+02:00</time>
      </trkpt>
      <trkpt lat="43.94059" lon="5.27161">
        <ele>289</ele>
        <time>2019-05-13T08:36:31+02:00</time>
      </trkpt>
      <trkpt lat="43.94058" lon="5.27162">
        <ele>288</ele>
        <time>2019-05-13T08:36:32+02:00</time>
      </trkpt>
      <trkpt lat="43.94056" lon="5.27163">
        <ele>288</ele>
        <time>2019-05-13T08:36:33+02:00</time>
      </trkpt>
      <trkpt lat="43.94055" lon="5.27164">
        <ele>288</ele>
        <time>2019-05-13T08:36:34+02:00</time>
      </trkpt>
      <trkpt lat="43.94053" lon="5.27165">
        <ele>287</ele>
        <time>2019-05-13T08:36:35+02:00</time>
      </trkpt>
      <trkpt lat="43.94051" lon="5.27165">
        <ele>287</ele>
        <time>2019-05-13T08:36:36+02:00</time>
      </trkpt>
      <trkpt lat="43.9405" lon="5.27166">
        <ele>287</ele>
        <time>2019-05-13T08:36:37+02:00</time>
      </trkpt>
      <trkpt lat="43.94049" lon="5.27166">
        <ele>287</ele>
        <time>2019-05-13T08:36:47+02:00</time>
      </trkpt>
      <trkpt lat="43.94039" lon="5.27171">
        <ele>286</ele>
        <time>2019-05-13T08:36:57+02:00</time>
      </trkpt>
      <trkpt lat="43.94039" lon="5.27177">
        <ele>285</ele>
        <time>2019-05-13T08:37:06+02:00</time>
      </trkpt>
      <trkpt lat="43.94041" lon="5.27182">
        <ele>284</ele>
        <time>2019-05-13T08:37:14+02:00</time>
      </trkpt>
      <trkpt lat="43.94045" lon="5.27186">
        <ele>284</ele>
        <time>2019-05-13T08:37:18+02:00</time>
      </trkpt>
      <trkpt lat="43.94047" lon="5.27189">
        <ele>283</ele>
        <time>2019-05-13T08:37:29+02:00</time>
      </trkpt>
      <trkpt lat="43.94048" lon="5.27191">
        <ele>283</ele>
        <time>2019-05-13T08:37:31+02:00</time>
      </trkpt>
      <trkpt lat="43.94058" lon="5.27206">
        <ele>282</ele>
        <time>2019-05-13T08:37:41+02:00</time>
      </trkpt>
      <trkpt lat="43.94058" lon="5.27204">
        <ele>282</ele>
        <time>2019-05-13T08:37:49+02:00</time>
      </trkpt>
      <trkpt lat="43.94057" lon="5.27201">
        <ele>283</ele>
        <time>2019-05-13T08:37:50+02:00</time>
      </trkpt>
      <trkpt lat="43.94056" lon="5.27199">
        <ele>283</ele>
        <time>2019-05-13T08:37:51+02:00</time>
      </trkpt>
      <trkpt lat="43.94056" lon="5.27198">
        <ele>283</ele>
        <time>2019-05-13T08:37:52+02:00</time>
      </trkpt>
      <trkpt lat="43.94059" lon="5.272">
        <ele>283</ele>
        <time>2019-05-13T08:38:06+02:00</time>
      </trkpt>
      <trkpt lat="43.94068" lon="5.27198">
        <ele>284</ele>
        <time>2019-05-13T08:38:21+02:00</time>
      </trkpt>
      <trkpt lat="43.94079" lon="5.27198">
        <ele>286</ele>
        <time>2019-05-13T08:38:37+02:00</time>
      </trkpt>
      <trkpt lat="43.94095" lon="5.27196">
        <ele>287</ele>
        <time>2019-05-13T08:38:56+02:00</time>
      </trkpt>
      <trkpt lat="43.94108" lon="5.27191">
        <ele>288</ele>
        <time>2019-05-13T08:39:13+02:00</time>
      </trkpt>
      <trkpt lat="43.94124" lon="5.27183">
        <ele>290</ele>
        <time>2019-05-13T08:39:32+02:00</time>
      </trkpt>
      <trkpt lat="43.94145" lon="5.27179">
        <ele>292</ele>
        <time>2019-05-13T08:39:54+02:00</time>
      </trkpt>
      <trkpt lat="43.94154" lon="5.27181">
        <ele>292</ele>
        <time>2019-05-13T08:40:12+02:00</time>
      </trkpt>
      <trkpt lat="43.9416" lon="5.27182">
        <ele>292</ele>
        <time>2019-05-13T08:40:29+02:00</time>
      </trkpt>
      <trkpt lat="43.94179" lon="5.27183">
        <ele>292</ele>
        <time>2019-05-13T08:40:47+02:00</time>
      </trkpt>
      <trkpt lat="43.9419" lon="5.27184">
        <ele>292</ele>
        <time>2019-05-13T08:41:08+02:00</time>
      </trkpt>
      <trkpt lat="43.94201" lon="5.27183">
        <ele>292</ele>
        <time>2019-05-13T08:41:26+02:00</time>
      </trkpt>
      <trkpt lat="43.94216" lon="5.27166">
        <ele>296</ele>
        <time>2019-05-13T08:41:44+02:00</time>
      </trkpt>
      <trkpt lat="43.94216" lon="5.27154">
        <ele>298</ele>
        <time>2019-05-13T08:42:00+02:00</time>
      </trkpt>
      <trkpt lat="43.94216" lon="5.27141">
        <ele>300</ele>
        <time>2019-05-13T08:42:21+02:00</time>
      </trkpt>
      <trkpt lat="43.94221" lon="5.27132">
        <ele>301</ele>
        <time>2019-05-13T08:42:44+02:00</time>
      </trkpt>
      <trkpt lat="43.94232" lon="5.27134">
        <ele>300</ele>
        <time>2019-05-13T08:43:04+02:00</time>
      </trkpt>
      <trkpt lat="43.94247" lon="5.27138">
        <ele>300</ele>
        <time>2019-05-13T08:43:29+02:00</time>
      </trkpt>
      <trkpt lat="43.94239" lon="5.27133">
        <ele>300</ele>
        <time>2019-05-13T08:43:45+02:00</time>
      </trkpt>
      <trkpt lat="43.94238" lon="5.27132">
        <ele>300</ele>
        <time>2019-05-13T08:43:46+02:00</time>
      </trkpt>
      <trkpt lat="43.9423" lon="5.2712">
        <ele>302</ele>
        <time>2019-05-13T08:44:23+02:00</time>
      </trkpt>
      <trkpt lat="43.94236" lon="5.27124">
        <ele>301</ele>
        <time>2019-05-13T08:44:46+02:00</time>
      </trkpt>
      <trkpt lat="43.94234" lon="5.27125">
        <ele>301</ele>
        <time>2019-05-13T08:45:08+02:00</time>
      </trkpt>
      <trkpt lat="43.94236" lon="5.2713">
        <ele>301</ele>
        <time>2019-05-13T08:45:27+02:00</time>
      </trkpt>
      <trkpt lat="43.94237" lon="5.27126">
        <ele>301</ele>
        <time>2019-05-13T08:45:53+02:00</time>
      </trkpt>
      <trkpt lat="43.94235" lon="5.27126">
        <ele>301</ele>
        <time>2019-05-13T08:46:20+02:00</time>
      </trkpt>
      <trkpt lat="43.94235" lon="5.27127">
        <ele>301</ele>
        <time>2019-05-13T08:46:43+02:00</time>
      </trkpt>
      <trkpt lat="43.94237" lon="5.2712">
        <ele>301</ele>
        <time>2019-05-13T08:47:05+02:00</time>
      </trkpt>
      <trkpt lat="43.94251" lon="5.27111">
        <ele>301</ele>
        <time>2019-05-13T08:47:26+02:00</time>
      </trkpt>
      <trkpt lat="43.9426" lon="5.27094">
        <ele>302</ele>
        <time>2019-05-13T08:47:46+02:00</time>
      </trkpt>
      <trkpt lat="43.94276" lon="5.27092">
        <ele>301</ele>
        <time>2019-05-13T08:48:14+02:00</time>
      </trkpt>
      <trkpt lat="43.94283" lon="5.27083">
        <ele>301</ele>
        <time>2019-05-13T08:48:33+02:00</time>
      </trkpt>
      <trkpt lat="43.94295" lon="5.2706">
        <ele>304</ele>
        <time>2019-05-13T08:48:52+02:00</time>
      </trkpt>
      <trkpt lat="43.94297" lon="5.2705">
        <ele>305</ele>
        <time>2019-05-13T08:49:13+02:00</time>
      </trkpt>
      <trkpt lat="43.94298" lon="5.27034">
        <ele>307</ele>
        <time>2019-05-13T08:49:30+02:00</time>
      </trkpt>
      <trkpt lat="43.94298" lon="5.27021">
        <ele>310</ele>
        <time>2019-05-13T08:49:48+02:00</time>
      </trkpt>
      <trkpt lat="43.94299" lon="5.27019">
        <ele>310</ele>
        <time>2019-05-13T08:49:59+02:00</time>
      </trkpt>
      <trkpt lat="43.94314" lon="5.2702">
        <ele>308</ele>
        <time>2019-05-13T08:50:10+02:00</time>
      </trkpt>
      <trkpt lat="43.9436" lon="5.27042">
        <ele>310</ele>
        <time>2019-05-13T08:50:30+02:00</time>
      </trkpt>
      <trkpt lat="43.94353" lon="5.27022">
        <ele>307</ele>
        <time>2019-05-13T08:50:51+02:00</time>
      </trkpt>
      <trkpt lat="43.94359" lon="5.27032">
        <ele>308</ele>
        <time>2019-05-13T08:51:12+02:00</time>
      </trkpt>
      <trkpt lat="43.94331" lon="5.27015">
        <ele>307</ele>
        <time>2019-05-13T08:51:33+02:00</time>
      </trkpt>
      <trkpt lat="43.94332" lon="5.27011">
        <ele>308</ele>
        <time>2019-05-13T08:51:56+02:00</time>
      </trkpt>
      <trkpt lat="43.9435" lon="5.27006">
        <ele>308</ele>
        <time>2019-05-13T08:52:16+02:00</time>
      </trkpt>
      <trkpt lat="43.94361" lon="5.27009">
        <ele>307</ele>
        <time>2019-05-13T08:52:38+02:00</time>
      </trkpt>
      <trkpt lat="43.94373" lon="5.27">
        <ele>307</ele>
        <time>2019-05-13T08:52:56+02:00</time>
      </trkpt>
      <trkpt lat="43.94379" lon="5.26997">
        <ele>308</ele>
        <time>2019-05-13T08:53:02+02:00</time>
      </trkpt>
      <trkpt lat="43.9438" lon="5.26997">
        <ele>308</ele>
        <time>2019-05-13T08:53:03+02:00</time>
      </trkpt>
      <trkpt lat="43.94381" lon="5.26997">
        <ele>308</ele>
        <time>2019-05-13T08:53:04+02:00</time>
      </trkpt>
      <trkpt lat="43.94406" lon="5.26992">
        <ele>310</ele>
        <time>2019-05-13T08:53:25+02:00</time>
      </trkpt>
      <trkpt lat="43.94412" lon="5.26978">
        <ele>309</ele>
        <time>2019-05-13T08:53:43+02:00</time>
      </trkpt>
      <trkpt lat="43.94403" lon="5.26967">
        <ele>312</ele>
        <time>2019-05-13T08:54:03+02:00</time>
      </trkpt>
      <trkpt lat="43.94411" lon="5.26965">
        <ele>312</ele>
        <time>2019-05-13T08:54:24+02:00</time>
      </trkpt>
      <trkpt lat="43.94413" lon="5.26966">
        <ele>311</ele>
        <time>2019-05-13T08:54:45+02:00</time>
      </trkpt>
      <trkpt lat="43.94409" lon="5.26967">
        <ele>312</ele>
        <time>2019-05-13T08:55:05+02:00</time>
      </trkpt>
      <trkpt lat="43.94406" lon="5.26963">
        <ele>314</ele>
        <time>2019-05-13T08:55:26+02:00</time>
      </trkpt>
      <trkpt lat="43.94417" lon="5.26971">
        <ele>309</ele>
        <time>2019-05-13T08:55:50+02:00</time>
      </trkpt>
      <trkpt lat="43.94422" lon="5.26969">
        <ele>309</ele>
        <time>2019-05-13T08:56:14+02:00</time>
      </trkpt>
      <trkpt lat="43.94421" lon="5.26967">
        <ele>310</ele>
        <time>2019-05-13T08:56:32+02:00</time>
      </trkpt>
      <trkpt lat="43.94425" lon="5.26971">
        <ele>309</ele>
        <time>2019-05-13T08:56:36+02:00</time>
      </trkpt>
      <trkpt lat="43.94426" lon="5.26972">
        <ele>308</ele>
        <time>2019-05-13T08:56:37+02:00</time>
      </trkpt>
      <trkpt lat="43.94466" lon="5.26997">
        <ele>318</ele>
        <time>2019-05-13T08:57:00+02:00</time>
      </trkpt>
      <trkpt lat="43.94496" lon="5.2701">
        <ele>323</ele>
        <time>2019-05-13T08:57:23+02:00</time>
      </trkpt>
      <trkpt lat="43.94489" lon="5.27006">
        <ele>322</ele>
        <time>2019-05-13T08:57:44+02:00</time>
      </trkpt>
      <trkpt lat="43.94494" lon="5.2701">
        <ele>323</ele>
        <time>2019-05-13T08:58:02+02:00</time>
      </trkpt>
      <trkpt lat="43.94446" lon="5.26973">
        <ele>308</ele>
        <time>2019-05-13T08:58:22+02:00</time>
      </trkpt>
      <trkpt lat="43.9444" lon="5.26963">
        <ele>311</ele>
        <time>2019-05-13T08:58:41+02:00</time>
      </trkpt>
      <trkpt lat="43.94456" lon="5.26963">
        <ele>312</ele>
        <time>2019-05-13T08:59:01+02:00</time>
      </trkpt>
      <trkpt lat="43.94474" lon="5.26966">
        <ele>311</ele>
        <time>2019-05-13T08:59:19+02:00</time>
      </trkpt>
      <trkpt lat="43.94487" lon="5.26963">
        <ele>313</ele>
        <time>2019-05-13T08:59:37+02:00</time>
      </trkpt>
      <trkpt lat="43.94497" lon="5.2696">
        <ele>315</ele>
        <time>2019-05-13T08:59:48+02:00</time>
      </trkpt>
      <trkpt lat="43.94503" lon="5.26957">
        <ele>316</ele>
        <time>2019-05-13T08:59:59+02:00</time>
      </trkpt>
      <trkpt lat="43.94511" lon="5.26959">
        <ele>317</ele>
        <time>2019-05-13T09:00:09+02:00</time>
      </trkpt>
      <trkpt lat="43.94516" lon="5.26955">
        <ele>319</ele>
        <time>2019-05-13T09:00:27+02:00</time>
      </trkpt>
      <trkpt lat="43.94521" lon="5.26944">
        <ele>324</ele>
        <time>2019-05-13T09:00:44+02:00</time>
      </trkpt>
      <trkpt lat="43.9454" lon="5.26945">
        <ele>325</ele>
        <time>2019-05-13T09:00:58+02:00</time>
      </trkpt>
      <trkpt lat="43.94561" lon="5.26949">
        <ele>323</ele>
        <time>2019-05-13T09:01:16+02:00</time>
      </trkpt>
      <trkpt lat="43.94572" lon="5.26961">
        <ele>321</ele>
        <time>2019-05-13T09:01:33+02:00</time>
      </trkpt>
      <trkpt lat="43.9458" lon="5.26974">
        <ele>318</ele>
        <time>2019-05-13T09:01:50+02:00</time>
      </trkpt>
      <trkpt lat="43.94589" lon="5.26983">
        <ele>320</ele>
        <time>2019-05-13T09:02:04+02:00</time>
      </trkpt>
      <trkpt lat="43.94597" lon="5.26995">
        <ele>321</ele>
        <time>2019-05-13T09:02:21+02:00</time>
      </trkpt>
      <trkpt lat="43.94606" lon="5.27013">
        <ele>321</ele>
        <time>2019-05-13T09:02:42+02:00</time>
      </trkpt>
      <trkpt lat="43.94618" lon="5.27012">
        <ele>320</ele>
        <time>2019-05-13T09:03:04+02:00</time>
      </trkpt>
      <trkpt lat="43.9463" lon="5.27011">
        <ele>321</ele>
        <time>2019-05-13T09:03:24+02:00</time>
      </trkpt>
      <trkpt lat="43.94631" lon="5.27008">
        <ele>320</ele>
        <time>2019-05-13T09:03:44+02:00</time>
      </trkpt>
      <trkpt lat="43.94639" lon="5.26995">
        <ele>320</ele>
        <time>2019-05-13T09:04:01+02:00</time>
      </trkpt>
      <trkpt lat="43.94644" lon="5.26979">
        <ele>322</ele>
        <time>2019-05-13T09:04:16+02:00</time>
      </trkpt>
      <trkpt lat="43.94648" lon="5.26964">
        <ele>325</ele>
        <time>2019-05-13T09:04:30+02:00</time>
      </trkpt>
      <trkpt lat="43.94656" lon="5.26946">
        <ele>325</ele>
        <time>2019-05-13T09:04:45+02:00</time>
      </trkpt>
      <trkpt lat="43.94665" lon="5.26938">
        <ele>324</ele>
        <time>2019-05-13T09:05:00+02:00</time>
      </trkpt>
      <trkpt lat="43.94665" lon="5.2692">
        <ele>329</ele>
        <time>2019-05-13T09:05:17+02:00</time>
      </trkpt>
      <trkpt lat="43.94681" lon="5.26914">
        <ele>326</ele>
        <time>2019-05-13T09:05:38+02:00</time>
      </trkpt>
      <trkpt lat="43.94693" lon="5.26913">
        <ele>324</ele>
        <time>2019-05-13T09:05:55+02:00</time>
      </trkpt>
      <trkpt lat="43.94696" lon="5.26911">
        <ele>325</ele>
        <time>2019-05-13T09:05:59+02:00</time>
      </trkpt>
      <trkpt lat="43.94708" lon="5.26902">
        <ele>329</ele>
        <time>2019-05-13T09:06:17+02:00</time>
      </trkpt>
      <trkpt lat="43.94712" lon="5.26897">
        <ele>329</ele>
        <time>2019-05-13T09:06:31+02:00</time>
      </trkpt>
      <trkpt lat="43.94717" lon="5.26878">
        <ele>329</ele>
        <time>2019-05-13T09:06:47+02:00</time>
      </trkpt>
      <trkpt lat="43.94726" lon="5.26866">
        <ele>329</ele>
        <time>2019-05-13T09:07:04+02:00</time>
      </trkpt>
      <trkpt lat="43.94733" lon="5.26856">
        <ele>333</ele>
        <time>2019-05-13T09:07:21+02:00</time>
      </trkpt>
      <trkpt lat="43.94734" lon="5.26848">
        <ele>334</ele>
        <time>2019-05-13T09:07:38+02:00</time>
      </trkpt>
      <trkpt lat="43.94741" lon="5.26837">
        <ele>335</ele>
        <time>2019-05-13T09:07:53+02:00</time>
      </trkpt>
      <trkpt lat="43.94745" lon="5.26826">
        <ele>334</ele>
        <time>2019-05-13T09:08:07+02:00</time>
      </trkpt>
      <trkpt lat="43.94736" lon="5.2681">
        <ele>339</ele>
        <time>2019-05-13T09:08:20+02:00</time>
      </trkpt>
      <trkpt lat="43.94741" lon="5.26806">
        <ele>336</ele>
        <time>2019-05-13T09:08:34+02:00</time>
      </trkpt>
      <trkpt lat="43.94738" lon="5.26806">
        <ele>338</ele>
        <time>2019-05-13T09:09:02+02:00</time>
      </trkpt>
      <trkpt lat="43.94739" lon="5.26807">
        <ele>338</ele>
        <time>2019-05-13T09:09:23+02:00</time>
      </trkpt>
      <trkpt lat="43.94739" lon="5.26807">
        <ele>338</ele>
        <time>2019-05-13T09:09:24+02:00</time>
      </trkpt>
      <trkpt lat="43.94736" lon="5.26801">
        <ele>341</ele>
        <time>2019-05-13T09:09:47+02:00</time>
      </trkpt>
      <trkpt lat="43.9474" lon="5.26805">
        <ele>337</ele>
        <time>2019-05-13T09:10:09+02:00</time>
      </trkpt>
      <trkpt lat="43.94743" lon="5.26807">
        <ele>335</ele>
        <time>2019-05-13T09:10:33+02:00</time>
      </trkpt>
      <trkpt lat="43.94744" lon="5.26805">
        <ele>335</ele>
        <time>2019-05-13T09:11:03+02:00</time>
      </trkpt>
      <trkpt lat="43.94748" lon="5.26802">
        <ele>333</ele>
        <time>2019-05-13T09:11:23+02:00</time>
      </trkpt>
      <trkpt lat="43.94755" lon="5.26798">
        <ele>334</ele>
        <time>2019-05-13T09:11:40+02:00</time>
      </trkpt>
      <trkpt lat="43.94756" lon="5.26788">
        <ele>335</ele>
        <time>2019-05-13T09:12:01+02:00</time>
      </trkpt>
      <trkpt lat="43.94759" lon="5.26775">
        <ele>337</ele>
        <time>2019-05-13T09:12:16+02:00</time>
      </trkpt>
      <trkpt lat="43.94754" lon="5.26766">
        <ele>339</ele>
        <time>2019-05-13T09:12:38+02:00</time>
      </trkpt>
      <trkpt lat="43.94753" lon="5.26764">
        <ele>340</ele>
        <time>2019-05-13T09:12:56+02:00</time>
      </trkpt>
      <trkpt lat="43.94758" lon="5.2676">
        <ele>340</ele>
        <time>2019-05-13T09:13:17+02:00</time>
      </trkpt>
      <trkpt lat="43.94767" lon="5.26743">
        <ele>338</ele>
        <time>2019-05-13T09:13:33+02:00</time>
      </trkpt>
      <trkpt lat="43.94771" lon="5.26739">
        <ele>336</ele>
        <time>2019-05-13T09:13:39+02:00</time>
      </trkpt>
      <trkpt lat="43.9478" lon="5.26722">
        <ele>333</ele>
        <time>2019-05-13T09:13:55+02:00</time>
      </trkpt>
      <trkpt lat="43.94789" lon="5.2671">
        <ele>338</ele>
        <time>2019-05-13T09:14:10+02:00</time>
      </trkpt>
      <trkpt lat="43.94791" lon="5.267">
        <ele>338</ele>
        <time>2019-05-13T09:14:25+02:00</time>
      </trkpt>
      <trkpt lat="43.94792" lon="5.26689">
        <ele>339</ele>
        <time>2019-05-13T09:14:42+02:00</time>
      </trkpt>
      <trkpt lat="43.94799" lon="5.26673">
        <ele>337</ele>
        <time>2019-05-13T09:14:58+02:00</time>
      </trkpt>
      <trkpt lat="43.94804" lon="5.26653">
        <ele>335</ele>
        <time>2019-05-13T09:15:17+02:00</time>
      </trkpt>
      <trkpt lat="43.9481" lon="5.26634">
        <ele>338</ele>
        <time>2019-05-13T09:15:35+02:00</time>
      </trkpt>
      <trkpt lat="43.94813" lon="5.26622">
        <ele>341</ele>
        <time>2019-05-13T09:15:47+02:00</time>
      </trkpt>
      <trkpt lat="43.94814" lon="5.26619">
        <ele>341</ele>
        <time>2019-05-13T09:15:51+02:00</time>
      </trkpt>
      <trkpt lat="43.94815" lon="5.26614">
        <ele>341</ele>
        <time>2019-05-13T09:15:58+02:00</time>
      </trkpt>
      <trkpt lat="43.94824" lon="5.26605">
        <ele>341</ele>
        <time>2019-05-13T09:16:10+02:00</time>
      </trkpt>
      <trkpt lat="43.94826" lon="5.26601">
        <ele>341</ele>
        <time>2019-05-13T09:16:14+02:00</time>
      </trkpt>
      <trkpt lat="43.94831" lon="5.26595">
        <ele>342</ele>
        <time>2019-05-13T09:16:24+02:00</time>
      </trkpt>
      <trkpt lat="43.94836" lon="5.2659">
        <ele>343</ele>
        <time>2019-05-13T09:16:38+02:00</time>
      </trkpt>
      <trkpt lat="43.94844" lon="5.26579">
        <ele>346</ele>
        <time>2019-05-13T09:16:57+02:00</time>
      </trkpt>
      <trkpt lat="43.94862" lon="5.26572">
        <ele>346</ele>
        <time>2019-05-13T09:17:14+02:00</time>
      </trkpt>
      <trkpt lat="43.94881" lon="5.26574">
        <ele>344</ele>
        <time>2019-05-13T09:17:32+02:00</time>
      </trkpt>
      <trkpt lat="43.94897" lon="5.26571">
        <ele>345</ele>
        <time>2019-05-13T09:17:52+02:00</time>
      </trkpt>
      <trkpt lat="43.94901" lon="5.26566">
        <ele>348</ele>
        <time>2019-05-13T09:18:11+02:00</time>
      </trkpt>
      <trkpt lat="43.94899" lon="5.26556">
        <ele>353</ele>
        <time>2019-05-13T09:18:28+02:00</time>
      </trkpt>
      <trkpt lat="43.94903" lon="5.26551">
        <ele>357</ele>
        <time>2019-05-13T09:18:48+02:00</time>
      </trkpt>
      <trkpt lat="43.94908" lon="5.26552">
        <ele>355</ele>
        <time>2019-05-13T09:19:08+02:00</time>
      </trkpt>
      <trkpt lat="43.94913" lon="5.26545">
        <ele>360</ele>
        <time>2019-05-13T09:19:27+02:00</time>
      </trkpt>
      <trkpt lat="43.94923" lon="5.26543">
        <ele>361</ele>
        <time>2019-05-13T09:19:45+02:00</time>
      </trkpt>
      <trkpt lat="43.94939" lon="5.26553">
        <ele>351</ele>
        <time>2019-05-13T09:20:03+02:00</time>
      </trkpt>
      <trkpt lat="43.94949" lon="5.26549">
        <ele>353</ele>
        <time>2019-05-13T09:20:25+02:00</time>
      </trkpt>
      <trkpt lat="43.9497" lon="5.26554">
        <ele>346</ele>
        <time>2019-05-13T09:20:46+02:00</time>
      </trkpt>
      <trkpt lat="43.94982" lon="5.26559">
        <ele>345</ele>
        <time>2019-05-13T09:21:03+02:00</time>
      </trkpt>
      <trkpt lat="43.94983" lon="5.26559">
        <ele>345</ele>
        <time>2019-05-13T09:21:04+02:00</time>
      </trkpt>
      <trkpt lat="43.94985" lon="5.2656">
        <ele>345</ele>
        <time>2019-05-13T09:21:05+02:00</time>
      </trkpt>
      <trkpt lat="43.95005" lon="5.26563">
        <ele>346</ele>
        <time>2019-05-13T09:21:21+02:00</time>
      </trkpt>
      <trkpt lat="43.95013" lon="5.26559">
        <ele>344</ele>
        <time>2019-05-13T09:21:38+02:00</time>
      </trkpt>
      <trkpt lat="43.95021" lon="5.26568">
        <ele>347</ele>
        <time>2019-05-13T09:21:57+02:00</time>
      </trkpt>
      <trkpt lat="43.95023" lon="5.26578">
        <ele>352</ele>
        <time>2019-05-13T09:22:12+02:00</time>
      </trkpt>
      <trkpt lat="43.95024" lon="5.2658">
        <ele>353</ele>
        <time>2019-05-13T09:22:30+02:00</time>
      </trkpt>
      <trkpt lat="43.95026" lon="5.26571">
        <ele>348</ele>
        <time>2019-05-13T09:22:46+02:00</time>
      </trkpt>
      <trkpt lat="43.95055" lon="5.26578">
        <ele>345</ele>
        <time>2019-05-13T09:23:05+02:00</time>
      </trkpt>
      <trkpt lat="43.95074" lon="5.26581">
        <ele>347</ele>
        <time>2019-05-13T09:23:21+02:00</time>
      </trkpt>
      <trkpt lat="43.95084" lon="5.26578">
        <ele>348</ele>
        <time>2019-05-13T09:23:38+02:00</time>
      </trkpt>
      <trkpt lat="43.95094" lon="5.26573">
        <ele>347</ele>
        <time>2019-05-13T09:23:56+02:00</time>
      </trkpt>
      <trkpt lat="43.95106" lon="5.26573">
        <ele>347</ele>
        <time>2019-05-13T09:24:12+02:00</time>
      </trkpt>
      <trkpt lat="43.95129" lon="5.26577">
        <ele>354</ele>
        <time>2019-05-13T09:24:30+02:00</time>
      </trkpt>
      <trkpt lat="43.95144" lon="5.26569">
        <ele>356</ele>
        <time>2019-05-13T09:24:45+02:00</time>
      </trkpt>
      <trkpt lat="43.95153" lon="5.26561">
        <ele>357</ele>
        <time>2019-05-13T09:24:57+02:00</time>
      </trkpt>
      <trkpt lat="43.95163" lon="5.26561">
        <ele>361</ele>
        <time>2019-05-13T09:25:08+02:00</time>
      </trkpt>
      <trkpt lat="43.95175" lon="5.26562">
        <ele>365</ele>
        <time>2019-05-13T09:25:21+02:00</time>
      </trkpt>
      <trkpt lat="43.95182" lon="5.26559">
        <ele>364</ele>
        <time>2019-05-13T09:25:37+02:00</time>
      </trkpt>
      <trkpt lat="43.95178" lon="5.26546">
        <ele>363</ele>
        <time>2019-05-13T09:25:59+02:00</time>
      </trkpt>
      <trkpt lat="43.95174" lon="5.26541">
        <ele>364</ele>
        <time>2019-05-13T09:26:22+02:00</time>
      </trkpt>
      <trkpt lat="43.95168" lon="5.26528">
        <ele>368</ele>
        <time>2019-05-13T09:26:48+02:00</time>
      </trkpt>
      <trkpt lat="43.9517" lon="5.26523">
        <ele>371</ele>
        <time>2019-05-13T09:27:05+02:00</time>
      </trkpt>
      <trkpt lat="43.9517" lon="5.26522">
        <ele>373</ele>
        <time>2019-05-13T09:27:25+02:00</time>
      </trkpt>
      <trkpt lat="43.95188" lon="5.26526">
        <ele>366</ele>
        <time>2019-05-13T09:27:43+02:00</time>
      </trkpt>
      <trkpt lat="43.95207" lon="5.26537">
        <ele>364</ele>
        <time>2019-05-13T09:28:02+02:00</time>
      </trkpt>
      <trkpt lat="43.95222" lon="5.26546">
        <ele>365</ele>
        <time>2019-05-13T09:28:19+02:00</time>
      </trkpt>
      <trkpt lat="43.95238" lon="5.26549">
        <ele>365</ele>
        <time>2019-05-13T09:28:37+02:00</time>
      </trkpt>
      <trkpt lat="43.95251" lon="5.26558">
        <ele>365</ele>
        <time>2019-05-13T09:28:57+02:00</time>
      </trkpt>
      <trkpt lat="43.95263" lon="5.26556">
        <ele>364</ele>
        <time>2019-05-13T09:29:20+02:00</time>
      </trkpt>
      <trkpt lat="43.95266" lon="5.26558">
        <ele>365</ele>
        <time>2019-05-13T09:29:40+02:00</time>
      </trkpt>
      <trkpt lat="43.9527" lon="5.26561">
        <ele>367</ele>
        <time>2019-05-13T09:29:47+02:00</time>
      </trkpt>
      <trkpt lat="43.95283" lon="5.26563">
        <ele>368</ele>
        <time>2019-05-13T09:30:04+02:00</time>
      </trkpt>
      <trkpt lat="43.95294" lon="5.26563">
        <ele>368</ele>
        <time>2019-05-13T09:30:23+02:00</time>
      </trkpt>
      <trkpt lat="43.95311" lon="5.26562">
        <ele>368</ele>
        <time>2019-05-13T09:30:41+02:00</time>
      </trkpt>
      <trkpt lat="43.95321" lon="5.26562">
        <ele>368</ele>
        <time>2019-05-13T09:30:58+02:00</time>
      </trkpt>
      <trkpt lat="43.95334" lon="5.26561">
        <ele>368</ele>
        <time>2019-05-13T09:31:19+02:00</time>
      </trkpt>
      <trkpt lat="43.95347" lon="5.26569">
        <ele>376</ele>
        <time>2019-05-13T09:31:39+02:00</time>
      </trkpt>
      <trkpt lat="43.95364" lon="5.26594">
        <ele>396</ele>
        <time>2019-05-13T09:31:55+02:00</time>
      </trkpt>
      <trkpt lat="43.95373" lon="5.26577">
        <ele>386</ele>
        <time>2019-05-13T09:32:11+02:00</time>
      </trkpt>
      <trkpt lat="43.95377" lon="5.2655">
        <ele>374</ele>
        <time>2019-05-13T09:32:27+02:00</time>
      </trkpt>
      <trkpt lat="43.9538" lon="5.26544">
        <ele>377</ele>
        <time>2019-05-13T09:32:41+02:00</time>
      </trkpt>
      <trkpt lat="43.95379" lon="5.26535">
        <ele>380</ele>
        <time>2019-05-13T09:32:59+02:00</time>
      </trkpt>
      <trkpt lat="43.95379" lon="5.26534">
        <ele>381</ele>
        <time>2019-05-13T09:33:17+02:00</time>
      </trkpt>
      <trkpt lat="43.95395" lon="5.26547">
        <ele>378</ele>
        <time>2019-05-13T09:33:34+02:00</time>
      </trkpt>
      <trkpt lat="43.95416" lon="5.26579">
        <ele>382</ele>
        <time>2019-05-13T09:33:50+02:00</time>
      </trkpt>
      <trkpt lat="43.95425" lon="5.26585">
        <ele>381</ele>
        <time>2019-05-13T09:34:01+02:00</time>
      </trkpt>
      <trkpt lat="43.95436" lon="5.26601">
        <ele>383</ele>
        <time>2019-05-13T09:34:18+02:00</time>
      </trkpt>
      <trkpt lat="43.95442" lon="5.26612">
        <ele>383</ele>
        <time>2019-05-13T09:34:32+02:00</time>
      </trkpt>
      <trkpt lat="43.95451" lon="5.2661">
        <ele>378</ele>
        <time>2019-05-13T09:34:48+02:00</time>
      </trkpt>
      <trkpt lat="43.95465" lon="5.26613">
        <ele>375</ele>
        <time>2019-05-13T09:35:06+02:00</time>
      </trkpt>
      <trkpt lat="43.95481" lon="5.26625">
        <ele>375</ele>
        <time>2019-05-13T09:35:24+02:00</time>
      </trkpt>
      <trkpt lat="43.95492" lon="5.2664">
        <ele>376</ele>
        <time>2019-05-13T09:35:39+02:00</time>
      </trkpt>
      <trkpt lat="43.95504" lon="5.26648">
        <ele>377</ele>
        <time>2019-05-13T09:35:55+02:00</time>
      </trkpt>
      <trkpt lat="43.95513" lon="5.26657">
        <ele>378</ele>
        <time>2019-05-13T09:36:16+02:00</time>
      </trkpt>
      <trkpt lat="43.95524" lon="5.26662">
        <ele>377</ele>
        <time>2019-05-13T09:36:36+02:00</time>
      </trkpt>
      <trkpt lat="43.95533" lon="5.26667">
        <ele>376</ele>
        <time>2019-05-13T09:36:52+02:00</time>
      </trkpt>
      <trkpt lat="43.95543" lon="5.26664">
        <ele>375</ele>
        <time>2019-05-13T09:37:10+02:00</time>
      </trkpt>
      <trkpt lat="43.95552" lon="5.26673">
        <ele>376</ele>
        <time>2019-05-13T09:37:26+02:00</time>
      </trkpt>
      <trkpt lat="43.95562" lon="5.26667">
        <ele>373</ele>
        <time>2019-05-13T09:37:41+02:00</time>
      </trkpt>
      <trkpt lat="43.95567" lon="5.26671">
        <ele>375</ele>
        <time>2019-05-13T09:37:46+02:00</time>
      </trkpt>
      <trkpt lat="43.95576" lon="5.26685">
        <ele>378</ele>
        <time>2019-05-13T09:38:01+02:00</time>
      </trkpt>
      <trkpt lat="43.95573" lon="5.26695">
        <ele>381</ele>
        <time>2019-05-13T09:38:18+02:00</time>
      </trkpt>
      <trkpt lat="43.95578" lon="5.26694">
        <ele>380</ele>
        <time>2019-05-13T09:38:39+02:00</time>
      </trkpt>
      <trkpt lat="43.95581" lon="5.26691">
        <ele>379</ele>
        <time>2019-05-13T09:39:05+02:00</time>
      </trkpt>
      <trkpt lat="43.95583" lon="5.2669">
        <ele>378</ele>
        <time>2019-05-13T09:39:09+02:00</time>
      </trkpt>
      <trkpt lat="43.95595" lon="5.26688">
        <ele>379</ele>
        <time>2019-05-13T09:39:25+02:00</time>
      </trkpt>
      <trkpt lat="43.95603" lon="5.26695">
        <ele>381</ele>
        <time>2019-05-13T09:39:45+02:00</time>
      </trkpt>
      <trkpt lat="43.95611" lon="5.26682">
        <ele>381</ele>
        <time>2019-05-13T09:40:02+02:00</time>
      </trkpt>
      <trkpt lat="43.95621" lon="5.26673">
        <ele>381</ele>
        <time>2019-05-13T09:40:19+02:00</time>
      </trkpt>
      <trkpt lat="43.95631" lon="5.26672">
        <ele>382</ele>
        <time>2019-05-13T09:40:34+02:00</time>
      </trkpt>
      <trkpt lat="43.95646" lon="5.26684">
        <ele>391</ele>
        <time>2019-05-13T09:40:52+02:00</time>
      </trkpt>
      <trkpt lat="43.95661" lon="5.26694">
        <ele>404</ele>
        <time>2019-05-13T09:41:11+02:00</time>
      </trkpt>
      <trkpt lat="43.95669" lon="5.26662">
        <ele>388</ele>
        <time>2019-05-13T09:41:30+02:00</time>
      </trkpt>
      <trkpt lat="43.95675" lon="5.26644">
        <ele>392</ele>
        <time>2019-05-13T09:41:47+02:00</time>
      </trkpt>
      <trkpt lat="43.95688" lon="5.26651">
        <ele>394</ele>
        <time>2019-05-13T09:42:04+02:00</time>
      </trkpt>
      <trkpt lat="43.95698" lon="5.26657">
        <ele>396</ele>
        <time>2019-05-13T09:42:19+02:00</time>
      </trkpt>
      <trkpt lat="43.95706" lon="5.26655">
        <ele>395</ele>
        <time>2019-05-13T09:42:36+02:00</time>
      </trkpt>
      <trkpt lat="43.95708" lon="5.26654">
        <ele>395</ele>
        <time>2019-05-13T09:42:50+02:00</time>
      </trkpt>
      <trkpt lat="43.95708" lon="5.2665">
        <ele>395</ele>
        <time>2019-05-13T09:43:01+02:00</time>
      </trkpt>
      <trkpt lat="43.95709" lon="5.26652">
        <ele>395</ele>
        <time>2019-05-13T09:43:13+02:00</time>
      </trkpt>
      <trkpt lat="43.95706" lon="5.26649">
        <ele>395</ele>
        <time>2019-05-13T09:43:36+02:00</time>
      </trkpt>
      <trkpt lat="43.95709" lon="5.26654">
        <ele>395</ele>
        <time>2019-05-13T09:43:55+02:00</time>
      </trkpt>
      <trkpt lat="43.95712" lon="5.26651">
        <ele>395</ele>
        <time>2019-05-13T09:44:11+02:00</time>
      </trkpt>
      <trkpt lat="43.95711" lon="5.26647">
        <ele>395</ele>
        <time>2019-05-13T09:44:36+02:00</time>
      </trkpt>
      <trkpt lat="43.95713" lon="5.26648">
        <ele>395</ele>
        <time>2019-05-13T09:44:55+02:00</time>
      </trkpt>
      <trkpt lat="43.95713" lon="5.26646">
        <ele>395</ele>
        <time>2019-05-13T09:45:16+02:00</time>
      </trkpt>
      <trkpt lat="43.95713" lon="5.26648">
        <ele>395</ele>
        <time>2019-05-13T09:45:39+02:00</time>
      </trkpt>
      <trkpt lat="43.9571" lon="5.26638">
        <ele>395</ele>
        <time>2019-05-13T09:46:03+02:00</time>
      </trkpt>
      <trkpt lat="43.95713" lon="5.26645">
        <ele>395</ele>
        <time>2019-05-13T09:46:26+02:00</time>
      </trkpt>
      <trkpt lat="43.95715" lon="5.26649">
        <ele>395</ele>
        <time>2019-05-13T09:46:50+02:00</time>
      </trkpt>
      <trkpt lat="43.95713" lon="5.26652">
        <ele>395</ele>
        <time>2019-05-13T09:47:13+02:00</time>
      </trkpt>
      <trkpt lat="43.95716" lon="5.26655">
        <ele>395</ele>
        <time>2019-05-13T09:47:27+02:00</time>
      </trkpt>
      <trkpt lat="43.95717" lon="5.26653">
        <ele>395</ele>
        <time>2019-05-13T09:47:50+02:00</time>
      </trkpt>
      <trkpt lat="43.95714" lon="5.2665">
        <ele>395</ele>
        <time>2019-05-13T09:48:09+02:00</time>
      </trkpt>
      <trkpt lat="43.95716" lon="5.26662">
        <ele>395</ele>
        <time>2019-05-13T09:48:34+02:00</time>
      </trkpt>
      <trkpt lat="43.95717" lon="5.26659">
        <ele>395</ele>
        <time>2019-05-13T09:48:56+02:00</time>
      </trkpt>
      <trkpt lat="43.95721" lon="5.26676">
        <ele>401</ele>
        <time>2019-05-13T09:49:21+02:00</time>
      </trkpt>
      <trkpt lat="43.95721" lon="5.26674">
        <ele>399</ele>
        <time>2019-05-13T09:49:46+02:00</time>
      </trkpt>
      <trkpt lat="43.95722" lon="5.26664">
        <ele>395</ele>
        <time>2019-05-13T09:50:10+02:00</time>
      </trkpt>
      <trkpt lat="43.95724" lon="5.26668">
        <ele>396</ele>
        <time>2019-05-13T09:50:32+02:00</time>
      </trkpt>
      <trkpt lat="43.95724" lon="5.26665">
        <ele>395</ele>
        <time>2019-05-13T09:50:51+02:00</time>
      </trkpt>
      <trkpt lat="43.95723" lon="5.26653">
        <ele>396</ele>
        <time>2019-05-13T09:51:18+02:00</time>
      </trkpt>
      <trkpt lat="43.95725" lon="5.26648">
        <ele>397</ele>
        <time>2019-05-13T09:51:34+02:00</time>
      </trkpt>
      <trkpt lat="43.95723" lon="5.26656">
        <ele>396</ele>
        <time>2019-05-13T09:51:53+02:00</time>
      </trkpt>
      <trkpt lat="43.95729" lon="5.26672">
        <ele>398</ele>
        <time>2019-05-13T09:52:17+02:00</time>
      </trkpt>
      <trkpt lat="43.9573" lon="5.26674">
        <ele>399</ele>
        <time>2019-05-13T09:52:19+02:00</time>
      </trkpt>
      <trkpt lat="43.95734" lon="5.26698">
        <ele>408</ele>
        <time>2019-05-13T09:52:43+02:00</time>
      </trkpt>
      <trkpt lat="43.95722" lon="5.26649">
        <ele>396</ele>
        <time>2019-05-13T09:53:05+02:00</time>
      </trkpt>
      <trkpt lat="43.95712" lon="5.26645">
        <ele>395</ele>
        <time>2019-05-13T09:53:29+02:00</time>
      </trkpt>
      <trkpt lat="43.95722" lon="5.26647">
        <ele>396</ele>
        <time>2019-05-13T09:53:55+02:00</time>
      </trkpt>
      <trkpt lat="43.95719" lon="5.26648">
        <ele>396</ele>
        <time>2019-05-13T09:54:14+02:00</time>
      </trkpt>
      <trkpt lat="43.95718" lon="5.26644">
        <ele>396</ele>
        <time>2019-05-13T09:54:31+02:00</time>
      </trkpt>
      <trkpt lat="43.95717" lon="5.26633">
        <ele>400</ele>
        <time>2019-05-13T09:54:56+02:00</time>
      </trkpt>
      <trkpt lat="43.95721" lon="5.26629">
        <ele>405</ele>
        <time>2019-05-13T09:55:18+02:00</time>
      </trkpt>
      <trkpt lat="43.95719" lon="5.26628">
        <ele>405</ele>
        <time>2019-05-13T09:55:38+02:00</time>
      </trkpt>
      <trkpt lat="43.95718" lon="5.26627">
        <ele>407</ele>
        <time>2019-05-13T09:56:01+02:00</time>
      </trkpt>
      <trkpt lat="43.95712" lon="5.26636">
        <ele>397</ele>
        <time>2019-05-13T09:56:20+02:00</time>
      </trkpt>
      <trkpt lat="43.95711" lon="5.26638">
        <ele>396</ele>
        <time>2019-05-13T09:56:41+02:00</time>
      </trkpt>
      <trkpt lat="43.95711" lon="5.26638">
        <ele>395</ele>
        <time>2019-05-13T09:56:42+02:00</time>
      </trkpt>
      <trkpt lat="43.9571" lon="5.26644">
        <ele>395</ele>
        <time>2019-05-13T09:57:07+02:00</time>
      </trkpt>
      <trkpt lat="43.95718" lon="5.26641">
        <ele>396</ele>
        <time>2019-05-13T09:57:23+02:00</time>
      </trkpt>
      <trkpt lat="43.95725" lon="5.2664">
        <ele>398</ele>
        <time>2019-05-13T09:57:40+02:00</time>
      </trkpt>
      <trkpt lat="43.95737" lon="5.26644">
        <ele>403</ele>
        <time>2019-05-13T09:57:56+02:00</time>
      </trkpt>
      <trkpt lat="43.95748" lon="5.26661">
        <ele>399</ele>
        <time>2019-05-13T09:58:13+02:00</time>
      </trkpt>
      <trkpt lat="43.95752" lon="5.26657">
        <ele>402</ele>
        <time>2019-05-13T09:58:29+02:00</time>
      </trkpt>
      <trkpt lat="43.95756" lon="5.26658">
        <ele>404</ele>
        <time>2019-05-13T09:58:48+02:00</time>
      </trkpt>
      <trkpt lat="43.95763" lon="5.26657">
        <ele>406</ele>
        <time>2019-05-13T09:59:11+02:00</time>
      </trkpt>
      <trkpt lat="43.95769" lon="5.26665">
        <ele>402</ele>
        <time>2019-05-13T09:59:31+02:00</time>
      </trkpt>
      <trkpt lat="43.95772" lon="5.26667">
        <ele>402</ele>
        <time>2019-05-13T09:59:49+02:00</time>
      </trkpt>
      <trkpt lat="43.95781" lon="5.2669">
        <ele>403</ele>
        <time>2019-05-13T10:00:13+02:00</time>
      </trkpt>
      <trkpt lat="43.95784" lon="5.26686">
        <ele>404</ele>
        <time>2019-05-13T10:00:30+02:00</time>
      </trkpt>
      <trkpt lat="43.95784" lon="5.26664">
        <ele>407</ele>
        <time>2019-05-13T10:00:46+02:00</time>
      </trkpt>
      <trkpt lat="43.95786" lon="5.2666">
        <ele>411</ele>
        <time>2019-05-13T10:01:03+02:00</time>
      </trkpt>
      <trkpt lat="43.95789" lon="5.26662">
        <ele>409</ele>
        <time>2019-05-13T10:01:20+02:00</time>
      </trkpt>
      <trkpt lat="43.95795" lon="5.26662">
        <ele>410</ele>
        <time>2019-05-13T10:01:45+02:00</time>
      </trkpt>
      <trkpt lat="43.95796" lon="5.26666">
        <ele>407</ele>
        <time>2019-05-13T10:02:03+02:00</time>
      </trkpt>
      <trkpt lat="43.9581" lon="5.26681">
        <ele>410</ele>
        <time>2019-05-13T10:02:18+02:00</time>
      </trkpt>
      <trkpt lat="43.95816" lon="5.26684">
        <ele>412</ele>
        <time>2019-05-13T10:02:27+02:00</time>
      </trkpt>
      <trkpt lat="43.95826" lon="5.26685">
        <ele>414</ele>
        <time>2019-05-13T10:02:40+02:00</time>
      </trkpt>
      <trkpt lat="43.95835" lon="5.26684">
        <ele>415</ele>
        <time>2019-05-13T10:02:54+02:00</time>
      </trkpt>
      <trkpt lat="43.95846" lon="5.26684">
        <ele>416</ele>
        <time>2019-05-13T10:03:07+02:00</time>
      </trkpt>
      <trkpt lat="43.95858" lon="5.26674">
        <ele>414</ele>
        <time>2019-05-13T10:03:23+02:00</time>
      </trkpt>
      <trkpt lat="43.95868" lon="5.26674">
        <ele>414</ele>
        <time>2019-05-13T10:03:39+02:00</time>
      </trkpt>
      <trkpt lat="43.95875" lon="5.26672">
        <ele>414</ele>
        <time>2019-05-13T10:03:54+02:00</time>
      </trkpt>
      <trkpt lat="43.95884" lon="5.26671">
        <ele>414</ele>
        <time>2019-05-13T10:04:09+02:00</time>
      </trkpt>
      <trkpt lat="43.95894" lon="5.26666">
        <ele>415</ele>
        <time>2019-05-13T10:04:24+02:00</time>
      </trkpt>
      <trkpt lat="43.95899" lon="5.26667">
        <ele>416</ele>
        <time>2019-05-13T10:04:42+02:00</time>
      </trkpt>
      <trkpt lat="43.95898" lon="5.26661">
        <ele>417</ele>
        <time>2019-05-13T10:05:01+02:00</time>
      </trkpt>
      <trkpt lat="43.95901" lon="5.26666">
        <ele>417</ele>
        <time>2019-05-13T10:05:25+02:00</time>
      </trkpt>
      <trkpt lat="43.95904" lon="5.26663">
        <ele>418</ele>
        <time>2019-05-13T10:05:52+02:00</time>
      </trkpt>
      <trkpt lat="43.95912" lon="5.26657">
        <ele>421</ele>
        <time>2019-05-13T10:06:06+02:00</time>
      </trkpt>
      <trkpt lat="43.95924" lon="5.2665">
        <ele>423</ele>
        <time>2019-05-13T10:06:24+02:00</time>
      </trkpt>
      <trkpt lat="43.95933" lon="5.26649">
        <ele>424</ele>
        <time>2019-05-13T10:06:39+02:00</time>
      </trkpt>
      <trkpt lat="43.95943" lon="5.26636">
        <ele>423</ele>
        <time>2019-05-13T10:06:59+02:00</time>
      </trkpt>
      <trkpt lat="43.95953" lon="5.26638">
        <ele>423</ele>
        <time>2019-05-13T10:07:15+02:00</time>
      </trkpt>
      <trkpt lat="43.95963" lon="5.26644">
        <ele>424</ele>
        <time>2019-05-13T10:07:30+02:00</time>
      </trkpt>
      <trkpt lat="43.95977" lon="5.26648">
        <ele>425</ele>
        <time>2019-05-13T10:07:46+02:00</time>
      </trkpt>
      <trkpt lat="43.95983" lon="5.2665">
        <ele>425</ele>
        <time>2019-05-13T10:08:00+02:00</time>
      </trkpt>
      <trkpt lat="43.95991" lon="5.26647">
        <ele>425</ele>
        <time>2019-05-13T10:08:16+02:00</time>
      </trkpt>
      <trkpt lat="43.95994" lon="5.26636">
        <ele>424</ele>
        <time>2019-05-13T10:08:41+02:00</time>
      </trkpt>
      <trkpt lat="43.95993" lon="5.26636">
        <ele>424</ele>
        <time>2019-05-13T10:09:07+02:00</time>
      </trkpt>
      <trkpt lat="43.96006" lon="5.26635">
        <ele>423</ele>
        <time>2019-05-13T10:09:19+02:00</time>
      </trkpt>
      <trkpt lat="43.96016" lon="5.26628">
        <ele>424</ele>
        <time>2019-05-13T10:09:33+02:00</time>
      </trkpt>
      <trkpt lat="43.96026" lon="5.2662">
        <ele>422</ele>
        <time>2019-05-13T10:09:49+02:00</time>
      </trkpt>
      <trkpt lat="43.96041" lon="5.26613">
        <ele>422</ele>
        <time>2019-05-13T10:10:04+02:00</time>
      </trkpt>
      <trkpt lat="43.96053" lon="5.26604">
        <ele>425</ele>
        <time>2019-05-13T10:10:21+02:00</time>
      </trkpt>
      <trkpt lat="43.96065" lon="5.26602">
        <ele>427</ele>
        <time>2019-05-13T10:10:39+02:00</time>
      </trkpt>
      <trkpt lat="43.96079" lon="5.26604">
        <ele>430</ele>
        <time>2019-05-13T10:10:57+02:00</time>
      </trkpt>
      <trkpt lat="43.96082" lon="5.26586">
        <ele>428</ele>
        <time>2019-05-13T10:11:17+02:00</time>
      </trkpt>
      <trkpt lat="43.96082" lon="5.26594">
        <ele>429</ele>
        <time>2019-05-13T10:11:34+02:00</time>
      </trkpt>
      <trkpt lat="43.96083" lon="5.26593">
        <ele>429</ele>
        <time>2019-05-13T10:11:57+02:00</time>
      </trkpt>
      <trkpt lat="43.96084" lon="5.26586">
        <ele>428</ele>
        <time>2019-05-13T10:12:22+02:00</time>
      </trkpt>
      <trkpt lat="43.96091" lon="5.26578">
        <ele>433</ele>
        <time>2019-05-13T10:12:39+02:00</time>
      </trkpt>
      <trkpt lat="43.96092" lon="5.26562">
        <ele>437</ele>
        <time>2019-05-13T10:12:57+02:00</time>
      </trkpt>
      <trkpt lat="43.96095" lon="5.26541">
        <ele>440</ele>
        <time>2019-05-13T10:13:12+02:00</time>
      </trkpt>
      <trkpt lat="43.96108" lon="5.26534">
        <ele>433</ele>
        <time>2019-05-13T10:13:35+02:00</time>
      </trkpt>
      <trkpt lat="43.96113" lon="5.26525">
        <ele>433</ele>
        <time>2019-05-13T10:14:00+02:00</time>
      </trkpt>
      <trkpt lat="43.96112" lon="5.26528">
        <ele>431</ele>
        <time>2019-05-13T10:14:29+02:00</time>
      </trkpt>
      <trkpt lat="43.96119" lon="5.26523">
        <ele>435</ele>
        <time>2019-05-13T10:14:56+02:00</time>
      </trkpt>
      <trkpt lat="43.9613" lon="5.26523">
        <ele>437</ele>
        <time>2019-05-13T10:15:19+02:00</time>
      </trkpt>
      <trkpt lat="43.9613" lon="5.2652">
        <ele>437</ele>
        <time>2019-05-13T10:15:47+02:00</time>
      </trkpt>
      <trkpt lat="43.96129" lon="5.26521">
        <ele>437</ele>
        <time>2019-05-13T10:16:20+02:00</time>
      </trkpt>
      <trkpt lat="43.96123" lon="5.26519">
        <ele>437</ele>
        <time>2019-05-13T10:16:53+02:00</time>
      </trkpt>
      <trkpt lat="43.9612" lon="5.26518">
        <ele>437</ele>
        <time>2019-05-13T10:17:16+02:00</time>
      </trkpt>
      <trkpt lat="43.96116" lon="5.2653">
        <ele>433</ele>
        <time>2019-05-13T10:17:46+02:00</time>
      </trkpt>
      <trkpt lat="43.96114" lon="5.26527">
        <ele>432</ele>
        <time>2019-05-13T10:18:12+02:00</time>
      </trkpt>
      <trkpt lat="43.96116" lon="5.2653">
        <ele>433</ele>
        <time>2019-05-13T10:18:36+02:00</time>
      </trkpt>
      <trkpt lat="43.96117" lon="5.26526">
        <ele>433</ele>
        <time>2019-05-13T10:18:41+02:00</time>
      </trkpt>
      <trkpt lat="43.96116" lon="5.26522">
        <ele>435</ele>
        <time>2019-05-13T10:19:01+02:00</time>
      </trkpt>
      <trkpt lat="43.96113" lon="5.26525">
        <ele>433</ele>
        <time>2019-05-13T10:19:25+02:00</time>
      </trkpt>
      <trkpt lat="43.96111" lon="5.26522">
        <ele>434</ele>
        <time>2019-05-13T10:19:51+02:00</time>
      </trkpt>
      <trkpt lat="43.96119" lon="5.26512">
        <ele>440</ele>
        <time>2019-05-13T10:20:14+02:00</time>
      </trkpt>
      <trkpt lat="43.96115" lon="5.26513">
        <ele>439</ele>
        <time>2019-05-13T10:20:28+02:00</time>
      </trkpt>
      <trkpt lat="43.96085" lon="5.26513">
        <ele>454</ele>
        <time>2019-05-13T10:20:55+02:00</time>
      </trkpt>
      <trkpt lat="43.96103" lon="5.26516">
        <ele>443</ele>
        <time>2019-05-13T10:21:26+02:00</time>
      </trkpt>
      <trkpt lat="43.96116" lon="5.26515">
        <ele>438</ele>
        <time>2019-05-13T10:22:02+02:00</time>
      </trkpt>
      <trkpt lat="43.96121" lon="5.26509">
        <ele>440</ele>
        <time>2019-05-13T10:22:27+02:00</time>
      </trkpt>
      <trkpt lat="43.96121" lon="5.26509">
        <ele>440</ele>
        <time>2019-05-13T10:22:29+02:00</time>
      </trkpt>
      <trkpt lat="43.96118" lon="5.26517">
        <ele>438</ele>
        <time>2019-05-13T10:22:52+02:00</time>
      </trkpt>
      <trkpt lat="43.96118" lon="5.26519">
        <ele>436</ele>
        <time>2019-05-13T10:23:19+02:00</time>
      </trkpt>
      <trkpt lat="43.96115" lon="5.2652">
        <ele>436</ele>
        <time>2019-05-13T10:23:32+02:00</time>
      </trkpt>
      <trkpt lat="43.96115" lon="5.26525">
        <ele>434</ele>
        <time>2019-05-13T10:23:53+02:00</time>
      </trkpt>
      <trkpt lat="43.96114" lon="5.26528">
        <ele>432</ele>
        <time>2019-05-13T10:23:57+02:00</time>
      </trkpt>
      <trkpt lat="43.9612" lon="5.26521">
        <ele>436</ele>
        <time>2019-05-13T10:24:16+02:00</time>
      </trkpt>
      <trkpt lat="43.96129" lon="5.26515">
        <ele>438</ele>
        <time>2019-05-13T10:24:32+02:00</time>
      </trkpt>
      <trkpt lat="43.96133" lon="5.26513">
        <ele>438</ele>
        <time>2019-05-13T10:24:52+02:00</time>
      </trkpt>
      <trkpt lat="43.96137" lon="5.2652">
        <ele>438</ele>
        <time>2019-05-13T10:25:09+02:00</time>
      </trkpt>
      <trkpt lat="43.96139" lon="5.26522">
        <ele>439</ele>
        <time>2019-05-13T10:25:30+02:00</time>
      </trkpt>
      <trkpt lat="43.9615" lon="5.26522">
        <ele>439</ele>
        <time>2019-05-13T10:26:11+02:00</time>
      </trkpt>
      <trkpt lat="43.96146" lon="5.26511">
        <ele>437</ele>
        <time>2019-05-13T10:26:29+02:00</time>
      </trkpt>
      <trkpt lat="43.96141" lon="5.26517">
        <ele>438</ele>
        <time>2019-05-13T10:26:55+02:00</time>
      </trkpt>
      <trkpt lat="43.96145" lon="5.26515">
        <ele>438</ele>
        <time>2019-05-13T10:27:21+02:00</time>
      </trkpt>
      <trkpt lat="43.9615" lon="5.26509">
        <ele>436</ele>
        <time>2019-05-13T10:27:46+02:00</time>
      </trkpt>
      <trkpt lat="43.9615" lon="5.26501">
        <ele>434</ele>
        <time>2019-05-13T10:28:01+02:00</time>
      </trkpt>
      <trkpt lat="43.96154" lon="5.26499">
        <ele>434</ele>
        <time>2019-05-13T10:28:16+02:00</time>
      </trkpt>
      <trkpt lat="43.96164" lon="5.26493">
        <ele>433</ele>
        <time>2019-05-13T10:28:30+02:00</time>
      </trkpt>
      <trkpt lat="43.96169" lon="5.26491">
        <ele>433</ele>
        <time>2019-05-13T10:28:44+02:00</time>
      </trkpt>
      <trkpt lat="43.96169" lon="5.26492">
        <ele>433</ele>
        <time>2019-05-13T10:28:47+02:00</time>
      </trkpt>
      <trkpt lat="43.96172" lon="5.26489">
        <ele>433</ele>
        <time>2019-05-13T10:28:58+02:00</time>
      </trkpt>
      <trkpt lat="43.96171" lon="5.2649">
        <ele>433</ele>
        <time>2019-05-13T10:29:11+02:00</time>
      </trkpt>
      <trkpt lat="43.96168" lon="5.26488">
        <ele>434</ele>
        <time>2019-05-13T10:29:26+02:00</time>
      </trkpt>
      <trkpt lat="43.96166" lon="5.26489">
        <ele>433</ele>
        <time>2019-05-13T10:29:41+02:00</time>
      </trkpt>
      <trkpt lat="43.96169" lon="5.26492">
        <ele>433</ele>
        <time>2019-05-13T10:29:54+02:00</time>
      </trkpt>
      <trkpt lat="43.96171" lon="5.26492">
        <ele>433</ele>
        <time>2019-05-13T10:29:59+02:00</time>
      </trkpt>
      <trkpt lat="43.96172" lon="5.26491">
        <ele>433</ele>
        <time>2019-05-13T10:30:15+02:00</time>
      </trkpt>
      <trkpt lat="43.9617" lon="5.26491">
        <ele>433</ele>
        <time>2019-05-13T10:30:32+02:00</time>
      </trkpt>
      <trkpt lat="43.96169" lon="5.26491">
        <ele>433</ele>
        <time>2019-05-13T10:30:59+02:00</time>
      </trkpt>
      <trkpt lat="43.96169" lon="5.26493">
        <ele>432</ele>
        <time>2019-05-13T10:31:19+02:00</time>
      </trkpt>
      <trkpt lat="43.96172" lon="5.26491">
        <ele>433</ele>
        <time>2019-05-13T10:31:38+02:00</time>
      </trkpt>
      <trkpt lat="43.96173" lon="5.26498">
        <ele>431</ele>
        <time>2019-05-13T10:32:02+02:00</time>
      </trkpt>
      <trkpt lat="43.96175" lon="5.26494">
        <ele>432</ele>
        <time>2019-05-13T10:32:23+02:00</time>
      </trkpt>
      <trkpt lat="43.96173" lon="5.26491">
        <ele>433</ele>
        <time>2019-05-13T10:32:36+02:00</time>
      </trkpt>
      <trkpt lat="43.9617" lon="5.26489">
        <ele>433</ele>
        <time>2019-05-13T10:32:58+02:00</time>
      </trkpt>
      <trkpt lat="43.96168" lon="5.26492">
        <ele>432</ele>
        <time>2019-05-13T10:33:22+02:00</time>
      </trkpt>
      <trkpt lat="43.96172" lon="5.26494">
        <ele>432</ele>
        <time>2019-05-13T10:33:52+02:00</time>
      </trkpt>
      <trkpt lat="43.96173" lon="5.2649">
        <ele>433</ele>
        <time>2019-05-13T10:34:17+02:00</time>
      </trkpt>
      <trkpt lat="43.96183" lon="5.2649">
        <ele>434</ele>
        <time>2019-05-13T10:34:31+02:00</time>
      </trkpt>
      <trkpt lat="43.96192" lon="5.2649">
        <ele>435</ele>
        <time>2019-05-13T10:34:46+02:00</time>
      </trkpt>
      <trkpt lat="43.96198" lon="5.26494">
        <ele>436</ele>
        <time>2019-05-13T10:34:58+02:00</time>
      </trkpt>
      <trkpt lat="43.96202" lon="5.2649">
        <ele>438</ele>
        <time>2019-05-13T10:35:13+02:00</time>
      </trkpt>
      <trkpt lat="43.96211" lon="5.26491">
        <ele>442</ele>
        <time>2019-05-13T10:35:27+02:00</time>
      </trkpt>
      <trkpt lat="43.96218" lon="5.26487">
        <ele>444</ele>
        <time>2019-05-13T10:35:41+02:00</time>
      </trkpt>
      <trkpt lat="43.96218" lon="5.26488">
        <ele>445</ele>
        <time>2019-05-13T10:35:58+02:00</time>
      </trkpt>
      <trkpt lat="43.9622" lon="5.2649">
        <ele>445</ele>
        <time>2019-05-13T10:36:15+02:00</time>
      </trkpt>
      <trkpt lat="43.96222" lon="5.26488">
        <ele>446</ele>
        <time>2019-05-13T10:36:30+02:00</time>
      </trkpt>
      <trkpt lat="43.96224" lon="5.26479">
        <ele>446</ele>
        <time>2019-05-13T10:36:46+02:00</time>
      </trkpt>
      <trkpt lat="43.96228" lon="5.26467">
        <ele>446</ele>
        <time>2019-05-13T10:37:02+02:00</time>
      </trkpt>
      <trkpt lat="43.96229" lon="5.26453">
        <ele>444</ele>
        <time>2019-05-13T10:37:19+02:00</time>
      </trkpt>
      <trkpt lat="43.96232" lon="5.26452">
        <ele>445</ele>
        <time>2019-05-13T10:37:46+02:00</time>
      </trkpt>
      <trkpt lat="43.96239" lon="5.26441">
        <ele>445</ele>
        <time>2019-05-13T10:38:02+02:00</time>
      </trkpt>
      <trkpt lat="43.96253" lon="5.26429">
        <ele>445</ele>
        <time>2019-05-13T10:38:18+02:00</time>
      </trkpt>
      <trkpt lat="43.96264" lon="5.26416">
        <ele>445</ele>
        <time>2019-05-13T10:38:29+02:00</time>
      </trkpt>
      <trkpt lat="43.96271" lon="5.26401">
        <ele>446</ele>
        <time>2019-05-13T10:38:44+02:00</time>
      </trkpt>
      <trkpt lat="43.96275" lon="5.26396">
        <ele>446</ele>
        <time>2019-05-13T10:38:50+02:00</time>
      </trkpt>
      <trkpt lat="43.9628" lon="5.26395">
        <ele>447</ele>
        <time>2019-05-13T10:39:00+02:00</time>
      </trkpt>
      <trkpt lat="43.96282" lon="5.26393">
        <ele>447</ele>
        <time>2019-05-13T10:39:01+02:00</time>
      </trkpt>
      <trkpt lat="43.96284" lon="5.2639">
        <ele>447</ele>
        <time>2019-05-13T10:39:02+02:00</time>
      </trkpt>
      <trkpt lat="43.96292" lon="5.26385">
        <ele>448</ele>
        <time>2019-05-13T10:39:11+02:00</time>
      </trkpt>
      <trkpt lat="43.96306" lon="5.26373">
        <ele>450</ele>
        <time>2019-05-13T10:39:23+02:00</time>
      </trkpt>
      <trkpt lat="43.96323" lon="5.2637">
        <ele>451</ele>
        <time>2019-05-13T10:39:40+02:00</time>
      </trkpt>
      <trkpt lat="43.96334" lon="5.26357">
        <ele>453</ele>
        <time>2019-05-13T10:39:57+02:00</time>
      </trkpt>
      <trkpt lat="43.96339" lon="5.26354">
        <ele>453</ele>
        <time>2019-05-13T10:40:00+02:00</time>
      </trkpt>
      <trkpt lat="43.96352" lon="5.26342">
        <ele>455</ele>
        <time>2019-05-13T10:40:16+02:00</time>
      </trkpt>
      <trkpt lat="43.96363" lon="5.26338">
        <ele>454</ele>
        <time>2019-05-13T10:40:28+02:00</time>
      </trkpt>
      <trkpt lat="43.96369" lon="5.26338">
        <ele>454</ele>
        <time>2019-05-13T10:40:41+02:00</time>
      </trkpt>
      <trkpt lat="43.96378" lon="5.26335">
        <ele>453</ele>
        <time>2019-05-13T10:40:54+02:00</time>
      </trkpt>
      <trkpt lat="43.96384" lon="5.26328">
        <ele>453</ele>
        <time>2019-05-13T10:41:16+02:00</time>
      </trkpt>
      <trkpt lat="43.96387" lon="5.26328">
        <ele>453</ele>
        <time>2019-05-13T10:41:34+02:00</time>
      </trkpt>
      <trkpt lat="43.96387" lon="5.26333">
        <ele>451</ele>
        <time>2019-05-13T10:41:56+02:00</time>
      </trkpt>
      <trkpt lat="43.96387" lon="5.26335">
        <ele>452</ele>
        <time>2019-05-13T10:42:13+02:00</time>
      </trkpt>
      <trkpt lat="43.96401" lon="5.26319">
        <ele>455</ele>
        <time>2019-05-13T10:42:28+02:00</time>
      </trkpt>
      <trkpt lat="43.96408" lon="5.26312">
        <ele>455</ele>
        <time>2019-05-13T10:42:46+02:00</time>
      </trkpt>
      <trkpt lat="43.96423" lon="5.26307">
        <ele>454</ele>
        <time>2019-05-13T10:43:01+02:00</time>
      </trkpt>
      <trkpt lat="43.96433" lon="5.263">
        <ele>455</ele>
        <time>2019-05-13T10:43:15+02:00</time>
      </trkpt>
      <trkpt lat="43.9645" lon="5.26291">
        <ele>458</ele>
        <time>2019-05-13T10:43:31+02:00</time>
      </trkpt>
      <trkpt lat="43.96476" lon="5.26291">
        <ele>460</ele>
        <time>2019-05-13T10:43:47+02:00</time>
      </trkpt>
      <trkpt lat="43.96496" lon="5.2629">
        <ele>460</ele>
        <time>2019-05-13T10:44:05+02:00</time>
      </trkpt>
      <trkpt lat="43.96509" lon="5.26281">
        <ele>460</ele>
        <time>2019-05-13T10:44:14+02:00</time>
      </trkpt>
      <trkpt lat="43.96511" lon="5.26281">
        <ele>460</ele>
        <time>2019-05-13T10:44:15+02:00</time>
      </trkpt>
      <trkpt lat="43.96512" lon="5.2628">
        <ele>460</ele>
        <time>2019-05-13T10:44:16+02:00</time>
      </trkpt>
      <trkpt lat="43.96529" lon="5.26281">
        <ele>460</ele>
        <time>2019-05-13T10:44:28+02:00</time>
      </trkpt>
      <trkpt lat="43.96539" lon="5.26283">
        <ele>460</ele>
        <time>2019-05-13T10:44:38+02:00</time>
      </trkpt>
      <trkpt lat="43.96541" lon="5.26281">
        <ele>460</ele>
        <time>2019-05-13T10:44:39+02:00</time>
      </trkpt>
      <trkpt lat="43.96542" lon="5.2628">
        <ele>460</ele>
        <time>2019-05-13T10:44:40+02:00</time>
      </trkpt>
      <trkpt lat="43.96544" lon="5.26279">
        <ele>460</ele>
        <time>2019-05-13T10:44:41+02:00</time>
      </trkpt>
      <trkpt lat="43.96552" lon="5.26276">
        <ele>461</ele>
        <time>2019-05-13T10:44:48+02:00</time>
      </trkpt>
      <trkpt lat="43.96553" lon="5.26275">
        <ele>461</ele>
        <time>2019-05-13T10:44:49+02:00</time>
      </trkpt>
      <trkpt lat="43.96571" lon="5.26271">
        <ele>463</ele>
        <time>2019-05-13T10:45:05+02:00</time>
      </trkpt>
      <trkpt lat="43.96573" lon="5.26271">
        <ele>463</ele>
        <time>2019-05-13T10:45:06+02:00</time>
      </trkpt>
      <trkpt lat="43.96574" lon="5.26271">
        <ele>463</ele>
        <time>2019-05-13T10:45:07+02:00</time>
      </trkpt>
      <trkpt lat="43.96576" lon="5.2627">
        <ele>463</ele>
        <time>2019-05-13T10:45:08+02:00</time>
      </trkpt>
      <trkpt lat="43.96578" lon="5.26271">
        <ele>464</ele>
        <time>2019-05-13T10:45:10+02:00</time>
      </trkpt>
      <trkpt lat="43.9658" lon="5.26271">
        <ele>463</ele>
        <time>2019-05-13T10:45:11+02:00</time>
      </trkpt>
      <trkpt lat="43.96581" lon="5.26271">
        <ele>464</ele>
        <time>2019-05-13T10:45:12+02:00</time>
      </trkpt>
      <trkpt lat="43.96587" lon="5.26272">
        <ele>464</ele>
        <time>2019-05-13T10:45:17+02:00</time>
      </trkpt>
      <trkpt lat="43.96594" lon="5.26279">
        <ele>462</ele>
        <time>2019-05-13T10:45:25+02:00</time>
      </trkpt>
      <trkpt lat="43.96607" lon="5.26282">
        <ele>463</ele>
        <time>2019-05-13T10:45:37+02:00</time>
      </trkpt>
      <trkpt lat="43.96609" lon="5.26281">
        <ele>463</ele>
        <time>2019-05-13T10:45:38+02:00</time>
      </trkpt>
      <trkpt lat="43.96623" lon="5.26286">
        <ele>464</ele>
        <time>2019-05-13T10:45:51+02:00</time>
      </trkpt>
      <trkpt lat="43.96632" lon="5.26292">
        <ele>465</ele>
        <time>2019-05-13T10:46:01+02:00</time>
      </trkpt>
      <trkpt lat="43.96634" lon="5.26292">
        <ele>465</ele>
        <time>2019-05-13T10:46:02+02:00</time>
      </trkpt>
      <trkpt lat="43.96635" lon="5.26293">
        <ele>465</ele>
        <time>2019-05-13T10:46:03+02:00</time>
      </trkpt>
      <trkpt lat="43.96637" lon="5.26293">
        <ele>465</ele>
        <time>2019-05-13T10:46:04+02:00</time>
      </trkpt>
      <trkpt lat="43.96638" lon="5.26293">
        <ele>465</ele>
        <time>2019-05-13T10:46:05+02:00</time>
      </trkpt>
      <trkpt lat="43.96651" lon="5.26298">
        <ele>466</ele>
        <time>2019-05-13T10:46:19+02:00</time>
      </trkpt>
      <trkpt lat="43.96659" lon="5.26302">
        <ele>468</ele>
        <time>2019-05-13T10:46:38+02:00</time>
      </trkpt>
      <trkpt lat="43.96671" lon="5.263">
        <ele>469</ele>
        <time>2019-05-13T10:46:52+02:00</time>
      </trkpt>
      <trkpt lat="43.96697" lon="5.263">
        <ele>470</ele>
        <time>2019-05-13T10:47:10+02:00</time>
      </trkpt>
      <trkpt lat="43.96717" lon="5.26308">
        <ele>470</ele>
        <time>2019-05-13T10:47:27+02:00</time>
      </trkpt>
      <trkpt lat="43.96719" lon="5.26308">
        <ele>470</ele>
        <time>2019-05-13T10:47:28+02:00</time>
      </trkpt>
      <trkpt lat="43.96721" lon="5.26307">
        <ele>470</ele>
        <time>2019-05-13T10:47:29+02:00</time>
      </trkpt>
      <trkpt lat="43.96736" lon="5.26307">
        <ele>470</ele>
        <time>2019-05-13T10:47:42+02:00</time>
      </trkpt>
      <trkpt lat="43.96749" lon="5.2631">
        <ele>470</ele>
        <time>2019-05-13T10:47:53+02:00</time>
      </trkpt>
      <trkpt lat="43.96763" lon="5.2632">
        <ele>471</ele>
        <time>2019-05-13T10:48:07+02:00</time>
      </trkpt>
      <trkpt lat="43.96766" lon="5.26323">
        <ele>471</ele>
        <time>2019-05-13T10:48:10+02:00</time>
      </trkpt>
      <trkpt lat="43.96767" lon="5.26324">
        <ele>470</ele>
        <time>2019-05-13T10:48:11+02:00</time>
      </trkpt>
      <trkpt lat="43.96772" lon="5.26326">
        <ele>470</ele>
        <time>2019-05-13T10:48:15+02:00</time>
      </trkpt>
      <trkpt lat="43.96773" lon="5.26326">
        <ele>470</ele>
        <time>2019-05-13T10:48:16+02:00</time>
      </trkpt>
      <trkpt lat="43.96778" lon="5.26331">
        <ele>470</ele>
        <time>2019-05-13T10:48:22+02:00</time>
      </trkpt>
      <trkpt lat="43.96779" lon="5.26332">
        <ele>470</ele>
        <time>2019-05-13T10:48:23+02:00</time>
      </trkpt>
      <trkpt lat="43.96781" lon="5.26342">
        <ele>471</ele>
        <time>2019-05-13T10:48:36+02:00</time>
      </trkpt>
      <trkpt lat="43.96782" lon="5.26346">
        <ele>471</ele>
        <time>2019-05-13T10:48:47+02:00</time>
      </trkpt>
      <trkpt lat="43.96785" lon="5.26353">
        <ele>472</ele>
        <time>2019-05-13T10:49:00+02:00</time>
      </trkpt>
      <trkpt lat="43.9679" lon="5.26357">
        <ele>472</ele>
        <time>2019-05-13T10:49:08+02:00</time>
      </trkpt>
      <trkpt lat="43.96793" lon="5.26361">
        <ele>471</ele>
        <time>2019-05-13T10:49:28+02:00</time>
      </trkpt>
      <trkpt lat="43.96805" lon="5.26367">
        <ele>472</ele>
        <time>2019-05-13T10:49:38+02:00</time>
      </trkpt>
      <trkpt lat="43.96809" lon="5.26366">
        <ele>473</ele>
        <time>2019-05-13T10:49:53+02:00</time>
      </trkpt>
      <trkpt lat="43.96815" lon="5.26374">
        <ele>475</ele>
        <time>2019-05-13T10:50:08+02:00</time>
      </trkpt>
      <trkpt lat="43.96816" lon="5.26371">
        <ele>475</ele>
        <time>2019-05-13T10:50:13+02:00</time>
      </trkpt>
      <trkpt lat="43.96823" lon="5.26367">
        <ele>476</ele>
        <time>2019-05-13T10:50:26+02:00</time>
      </trkpt>
      <trkpt lat="43.96836" lon="5.26369">
        <ele>479</ele>
        <time>2019-05-13T10:50:40+02:00</time>
      </trkpt>
      <trkpt lat="43.96838" lon="5.2637">
        <ele>479</ele>
        <time>2019-05-13T10:50:42+02:00</time>
      </trkpt>
      <trkpt lat="43.96841" lon="5.26371">
        <ele>479</ele>
        <time>2019-05-13T10:50:45+02:00</time>
      </trkpt>
      <trkpt lat="43.96845" lon="5.26372">
        <ele>479</ele>
        <time>2019-05-13T10:50:48+02:00</time>
      </trkpt>
      <trkpt lat="43.96846" lon="5.26372">
        <ele>479</ele>
        <time>2019-05-13T10:50:49+02:00</time>
      </trkpt>
      <trkpt lat="43.96861" lon="5.26384">
        <ele>480</ele>
        <time>2019-05-13T10:51:05+02:00</time>
      </trkpt>
      <trkpt lat="43.96877" lon="5.26395">
        <ele>480</ele>
        <time>2019-05-13T10:51:20+02:00</time>
      </trkpt>
      <trkpt lat="43.96888" lon="5.26415">
        <ele>480</ele>
        <time>2019-05-13T10:51:36+02:00</time>
      </trkpt>
      <trkpt lat="43.96901" lon="5.2643">
        <ele>482</ele>
        <time>2019-05-13T10:51:50+02:00</time>
      </trkpt>
      <trkpt lat="43.9691" lon="5.26438">
        <ele>481</ele>
        <time>2019-05-13T10:52:03+02:00</time>
      </trkpt>
      <trkpt lat="43.9692" lon="5.26448">
        <ele>481</ele>
        <time>2019-05-13T10:52:17+02:00</time>
      </trkpt>
      <trkpt lat="43.96937" lon="5.26454">
        <ele>484</ele>
        <time>2019-05-13T10:52:33+02:00</time>
      </trkpt>
      <trkpt lat="43.96955" lon="5.26452">
        <ele>486</ele>
        <time>2019-05-13T10:52:51+02:00</time>
      </trkpt>
      <trkpt lat="43.96979" lon="5.26449">
        <ele>490</ele>
        <time>2019-05-13T10:53:10+02:00</time>
      </trkpt>
      <trkpt lat="43.96996" lon="5.26444">
        <ele>490</ele>
        <time>2019-05-13T10:53:26+02:00</time>
      </trkpt>
      <trkpt lat="43.97011" lon="5.26437">
        <ele>491</ele>
        <time>2019-05-13T10:53:44+02:00</time>
      </trkpt>
      <trkpt lat="43.97031" lon="5.26425">
        <ele>491</ele>
        <time>2019-05-13T10:54:03+02:00</time>
      </trkpt>
      <trkpt lat="43.9705" lon="5.26403">
        <ele>493</ele>
        <time>2019-05-13T10:54:25+02:00</time>
      </trkpt>
      <trkpt lat="43.97064" lon="5.26387">
        <ele>495</ele>
        <time>2019-05-13T10:54:46+02:00</time>
      </trkpt>
      <trkpt lat="43.97062" lon="5.26387">
        <ele>495</ele>
        <time>2019-05-13T10:55:10+02:00</time>
      </trkpt>
      <trkpt lat="43.97061" lon="5.26388">
        <ele>494</ele>
        <time>2019-05-13T10:55:40+02:00</time>
      </trkpt>
      <trkpt lat="43.97063" lon="5.26387">
        <ele>495</ele>
        <time>2019-05-13T10:56:02+02:00</time>
      </trkpt>
      <trkpt lat="43.97062" lon="5.26388">
        <ele>494</ele>
        <time>2019-05-13T10:56:31+02:00</time>
      </trkpt>
      <trkpt lat="43.97065" lon="5.26385">
        <ele>496</ele>
        <time>2019-05-13T10:56:55+02:00</time>
      </trkpt>
      <trkpt lat="43.97082" lon="5.26374">
        <ele>499</ele>
        <time>2019-05-13T10:57:12+02:00</time>
      </trkpt>
      <trkpt lat="43.97103" lon="5.26374">
        <ele>500</ele>
        <time>2019-05-13T10:57:32+02:00</time>
      </trkpt>
      <trkpt lat="43.97121" lon="5.2639">
        <ele>501</ele>
        <time>2019-05-13T10:57:51+02:00</time>
      </trkpt>
      <trkpt lat="43.97138" lon="5.26401">
        <ele>502</ele>
        <time>2019-05-13T10:58:07+02:00</time>
      </trkpt>
      <trkpt lat="43.97152" lon="5.26408">
        <ele>502</ele>
        <time>2019-05-13T10:58:23+02:00</time>
      </trkpt>
      <trkpt lat="43.97171" lon="5.26417">
        <ele>502</ele>
        <time>2019-05-13T10:58:41+02:00</time>
      </trkpt>
      <trkpt lat="43.97189" lon="5.26419">
        <ele>506</ele>
        <time>2019-05-13T10:58:59+02:00</time>
      </trkpt>
      <trkpt lat="43.97205" lon="5.26429">
        <ele>509</ele>
        <time>2019-05-13T10:59:17+02:00</time>
      </trkpt>
      <trkpt lat="43.97222" lon="5.26441">
        <ele>510</ele>
        <time>2019-05-13T10:59:35+02:00</time>
      </trkpt>
      <trkpt lat="43.97231" lon="5.26453">
        <ele>512</ele>
        <time>2019-05-13T10:59:46+02:00</time>
      </trkpt>
      <trkpt lat="43.97231" lon="5.26454">
        <ele>512</ele>
        <time>2019-05-13T10:59:47+02:00</time>
      </trkpt>
      <trkpt lat="43.97239" lon="5.26476">
        <ele>512</ele>
        <time>2019-05-13T11:00:03+02:00</time>
      </trkpt>
      <trkpt lat="43.97251" lon="5.26498">
        <ele>512</ele>
        <time>2019-05-13T11:00:22+02:00</time>
      </trkpt>
      <trkpt lat="43.97265" lon="5.2651">
        <ele>514</ele>
        <time>2019-05-13T11:00:38+02:00</time>
      </trkpt>
      <trkpt lat="43.9728" lon="5.26521">
        <ele>514</ele>
        <time>2019-05-13T11:00:56+02:00</time>
      </trkpt>
      <trkpt lat="43.97297" lon="5.26519">
        <ele>516</ele>
        <time>2019-05-13T11:01:13+02:00</time>
      </trkpt>
      <trkpt lat="43.97317" lon="5.26516">
        <ele>518</ele>
        <time>2019-05-13T11:01:32+02:00</time>
      </trkpt>
      <trkpt lat="43.97334" lon="5.26513">
        <ele>520</ele>
        <time>2019-05-13T11:01:49+02:00</time>
      </trkpt>
      <trkpt lat="43.97348" lon="5.2651">
        <ele>521</ele>
        <time>2019-05-13T11:02:04+02:00</time>
      </trkpt>
      <trkpt lat="43.97352" lon="5.2651">
        <ele>521</ele>
        <time>2019-05-13T11:02:07+02:00</time>
      </trkpt>
      <trkpt lat="43.97353" lon="5.26511">
        <ele>521</ele>
        <time>2019-05-13T11:02:08+02:00</time>
      </trkpt>
      <trkpt lat="43.97364" lon="5.26524">
        <ele>522</ele>
        <time>2019-05-13T11:02:24+02:00</time>
      </trkpt>
      <trkpt lat="43.97384" lon="5.2654">
        <ele>524</ele>
        <time>2019-05-13T11:02:44+02:00</time>
      </trkpt>
      <trkpt lat="43.97391" lon="5.26566">
        <ele>528</ele>
        <time>2019-05-13T11:03:03+02:00</time>
      </trkpt>
      <trkpt lat="43.97407" lon="5.26582">
        <ele>530</ele>
        <time>2019-05-13T11:03:20+02:00</time>
      </trkpt>
      <trkpt lat="43.9742" lon="5.26597">
        <ele>530</ele>
        <time>2019-05-13T11:03:35+02:00</time>
      </trkpt>
      <trkpt lat="43.97421" lon="5.26598">
        <ele>530</ele>
        <time>2019-05-13T11:03:36+02:00</time>
      </trkpt>
      <trkpt lat="43.97432" lon="5.26611">
        <ele>530</ele>
        <time>2019-05-13T11:03:50+02:00</time>
      </trkpt>
      <trkpt lat="43.97443" lon="5.26632">
        <ele>531</ele>
        <time>2019-05-13T11:04:09+02:00</time>
      </trkpt>
      <trkpt lat="43.97458" lon="5.26651">
        <ele>534</ele>
        <time>2019-05-13T11:04:27+02:00</time>
      </trkpt>
      <trkpt lat="43.9747" lon="5.26664">
        <ele>533</ele>
        <time>2019-05-13T11:04:44+02:00</time>
      </trkpt>
      <trkpt lat="43.97475" lon="5.26675">
        <ele>535</ele>
        <time>2019-05-13T11:04:59+02:00</time>
      </trkpt>
      <trkpt lat="43.97478" lon="5.26697">
        <ele>539</ele>
        <time>2019-05-13T11:05:16+02:00</time>
      </trkpt>
      <trkpt lat="43.97478" lon="5.26703">
        <ele>540</ele>
        <time>2019-05-13T11:05:35+02:00</time>
      </trkpt>
      <trkpt lat="43.9747" lon="5.26708">
        <ele>542</ele>
        <time>2019-05-13T11:06:03+02:00</time>
      </trkpt>
      <trkpt lat="43.97471" lon="5.26708">
        <ele>541</ele>
        <time>2019-05-13T11:06:31+02:00</time>
      </trkpt>
      <trkpt lat="43.97473" lon="5.26716">
        <ele>543</ele>
        <time>2019-05-13T11:06:49+02:00</time>
      </trkpt>
      <trkpt lat="43.97477" lon="5.26736">
        <ele>546</ele>
        <time>2019-05-13T11:07:07+02:00</time>
      </trkpt>
      <trkpt lat="43.97484" lon="5.26756">
        <ele>548</ele>
        <time>2019-05-13T11:07:25+02:00</time>
      </trkpt>
      <trkpt lat="43.97488" lon="5.26773">
        <ele>550</ele>
        <time>2019-05-13T11:07:39+02:00</time>
      </trkpt>
      <trkpt lat="43.97493" lon="5.26797">
        <ele>551</ele>
        <time>2019-05-13T11:07:56+02:00</time>
      </trkpt>
      <trkpt lat="43.97501" lon="5.26814">
        <ele>551</ele>
        <time>2019-05-13T11:08:13+02:00</time>
      </trkpt>
      <trkpt lat="43.97515" lon="5.26827">
        <ele>552</ele>
        <time>2019-05-13T11:08:31+02:00</time>
      </trkpt>
      <trkpt lat="43.97535" lon="5.26836">
        <ele>551</ele>
        <time>2019-05-13T11:08:48+02:00</time>
      </trkpt>
      <trkpt lat="43.97552" lon="5.26848">
        <ele>553</ele>
        <time>2019-05-13T11:09:05+02:00</time>
      </trkpt>
      <trkpt lat="43.97574" lon="5.26859">
        <ele>554</ele>
        <time>2019-05-13T11:09:23+02:00</time>
      </trkpt>
      <trkpt lat="43.97592" lon="5.26873">
        <ele>558</ele>
        <time>2019-05-13T11:09:42+02:00</time>
      </trkpt>
      <trkpt lat="43.97606" lon="5.26888">
        <ele>559</ele>
        <time>2019-05-13T11:10:00+02:00</time>
      </trkpt>
      <trkpt lat="43.97621" lon="5.26904">
        <ele>561</ele>
        <time>2019-05-13T11:10:17+02:00</time>
      </trkpt>
      <trkpt lat="43.97636" lon="5.26925">
        <ele>561</ele>
        <time>2019-05-13T11:10:35+02:00</time>
      </trkpt>
      <trkpt lat="43.97647" lon="5.26935">
        <ele>561</ele>
        <time>2019-05-13T11:10:52+02:00</time>
      </trkpt>
      <trkpt lat="43.97649" lon="5.26929">
        <ele>562</ele>
        <time>2019-05-13T11:11:21+02:00</time>
      </trkpt>
      <trkpt lat="43.97653" lon="5.26928">
        <ele>562</ele>
        <time>2019-05-13T11:11:42+02:00</time>
      </trkpt>
      <trkpt lat="43.9766" lon="5.26926">
        <ele>563</ele>
        <time>2019-05-13T11:12:11+02:00</time>
      </trkpt>
      <trkpt lat="43.97653" lon="5.26934">
        <ele>562</ele>
        <time>2019-05-13T11:12:37+02:00</time>
      </trkpt>
      <trkpt lat="43.97654" lon="5.26932">
        <ele>562</ele>
        <time>2019-05-13T11:13:09+02:00</time>
      </trkpt>
      <trkpt lat="43.9765" lon="5.26936">
        <ele>561</ele>
        <time>2019-05-13T11:13:41+02:00</time>
      </trkpt>
      <trkpt lat="43.97646" lon="5.26938">
        <ele>561</ele>
        <time>2019-05-13T11:14:14+02:00</time>
      </trkpt>
      <trkpt lat="43.97654" lon="5.2693">
        <ele>562</ele>
        <time>2019-05-13T11:14:40+02:00</time>
      </trkpt>
      <trkpt lat="43.97661" lon="5.26927">
        <ele>563</ele>
        <time>2019-05-13T11:15:09+02:00</time>
      </trkpt>
      <trkpt lat="43.97655" lon="5.2693">
        <ele>562</ele>
        <time>2019-05-13T11:15:39+02:00</time>
      </trkpt>
      <trkpt lat="43.97654" lon="5.26934">
        <ele>562</ele>
        <time>2019-05-13T11:16:10+02:00</time>
      </trkpt>
      <trkpt lat="43.97661" lon="5.2695">
        <ele>562</ele>
        <time>2019-05-13T11:16:27+02:00</time>
      </trkpt>
      <trkpt lat="43.97662" lon="5.26952">
        <ele>562</ele>
        <time>2019-05-13T11:16:28+02:00</time>
      </trkpt>
      <trkpt lat="43.9768" lon="5.26968">
        <ele>563</ele>
        <time>2019-05-13T11:16:48+02:00</time>
      </trkpt>
      <trkpt lat="43.97698" lon="5.26984">
        <ele>565</ele>
        <time>2019-05-13T11:17:07+02:00</time>
      </trkpt>
      <trkpt lat="43.97716" lon="5.27004">
        <ele>568</ele>
        <time>2019-05-13T11:17:28+02:00</time>
      </trkpt>
      <trkpt lat="43.97732" lon="5.27018">
        <ele>570</ele>
        <time>2019-05-13T11:17:46+02:00</time>
      </trkpt>
      <trkpt lat="43.97745" lon="5.2703">
        <ele>570</ele>
        <time>2019-05-13T11:18:03+02:00</time>
      </trkpt>
      <trkpt lat="43.97759" lon="5.27039">
        <ele>571</ele>
        <time>2019-05-13T11:18:20+02:00</time>
      </trkpt>
      <trkpt lat="43.97764" lon="5.2705">
        <ele>571</ele>
        <time>2019-05-13T11:18:29+02:00</time>
      </trkpt>
      <trkpt lat="43.97768" lon="5.27059">
        <ele>571</ele>
        <time>2019-05-13T11:18:35+02:00</time>
      </trkpt>
      <trkpt lat="43.97781" lon="5.27071">
        <ele>572</ele>
        <time>2019-05-13T11:18:53+02:00</time>
      </trkpt>
      <trkpt lat="43.97801" lon="5.27075">
        <ele>573</ele>
        <time>2019-05-13T11:19:09+02:00</time>
      </trkpt>
      <trkpt lat="43.97821" lon="5.2708">
        <ele>575</ele>
        <time>2019-05-13T11:19:24+02:00</time>
      </trkpt>
      <trkpt lat="43.97839" lon="5.27081">
        <ele>578</ele>
        <time>2019-05-13T11:19:39+02:00</time>
      </trkpt>
      <trkpt lat="43.97852" lon="5.27078">
        <ele>580</ele>
        <time>2019-05-13T11:19:54+02:00</time>
      </trkpt>
      <trkpt lat="43.97869" lon="5.27075">
        <ele>581</ele>
        <time>2019-05-13T11:20:13+02:00</time>
      </trkpt>
      <trkpt lat="43.97884" lon="5.27069">
        <ele>581</ele>
        <time>2019-05-13T11:20:27+02:00</time>
      </trkpt>
      <trkpt lat="43.97905" lon="5.27066">
        <ele>581</ele>
        <time>2019-05-13T11:20:43+02:00</time>
      </trkpt>
      <trkpt lat="43.97909" lon="5.27064">
        <ele>581</ele>
        <time>2019-05-13T11:20:47+02:00</time>
      </trkpt>
      <trkpt lat="43.97911" lon="5.27063">
        <ele>581</ele>
        <time>2019-05-13T11:20:48+02:00</time>
      </trkpt>
      <trkpt lat="43.97927" lon="5.27049">
        <ele>584</ele>
        <time>2019-05-13T11:21:06+02:00</time>
      </trkpt>
      <trkpt lat="43.9794" lon="5.27038">
        <ele>587</ele>
        <time>2019-05-13T11:21:23+02:00</time>
      </trkpt>
      <trkpt lat="43.97962" lon="5.27025">
        <ele>590</ele>
        <time>2019-05-13T11:21:42+02:00</time>
      </trkpt>
      <trkpt lat="43.97975" lon="5.27012">
        <ele>591</ele>
        <time>2019-05-13T11:21:57+02:00</time>
      </trkpt>
      <trkpt lat="43.97991" lon="5.27">
        <ele>590</ele>
        <time>2019-05-13T11:22:13+02:00</time>
      </trkpt>
      <trkpt lat="43.98001" lon="5.26994">
        <ele>591</ele>
        <time>2019-05-13T11:22:25+02:00</time>
      </trkpt>
      <trkpt lat="43.98018" lon="5.26988">
        <ele>592</ele>
        <time>2019-05-13T11:22:42+02:00</time>
      </trkpt>
      <trkpt lat="43.98031" lon="5.26981">
        <ele>592</ele>
        <time>2019-05-13T11:22:56+02:00</time>
      </trkpt>
      <trkpt lat="43.98053" lon="5.26978">
        <ele>592</ele>
        <time>2019-05-13T11:23:19+02:00</time>
      </trkpt>
      <trkpt lat="43.98056" lon="5.26971">
        <ele>592</ele>
        <time>2019-05-13T11:23:39+02:00</time>
      </trkpt>
      <trkpt lat="43.98067" lon="5.26977">
        <ele>592</ele>
        <time>2019-05-13T11:23:57+02:00</time>
      </trkpt>
      <trkpt lat="43.98064" lon="5.26971">
        <ele>592</ele>
        <time>2019-05-13T11:24:20+02:00</time>
      </trkpt>
      <trkpt lat="43.98056" lon="5.26969">
        <ele>592</ele>
        <time>2019-05-13T11:24:49+02:00</time>
      </trkpt>
      <trkpt lat="43.98067" lon="5.26971">
        <ele>592</ele>
        <time>2019-05-13T11:25:10+02:00</time>
      </trkpt>
      <trkpt lat="43.98082" lon="5.26971">
        <ele>593</ele>
        <time>2019-05-13T11:25:25+02:00</time>
      </trkpt>
      <trkpt lat="43.98096" lon="5.26969">
        <ele>596</ele>
        <time>2019-05-13T11:25:39+02:00</time>
      </trkpt>
      <trkpt lat="43.98111" lon="5.26969">
        <ele>599</ele>
        <time>2019-05-13T11:25:54+02:00</time>
      </trkpt>
      <trkpt lat="43.98127" lon="5.26968">
        <ele>601</ele>
        <time>2019-05-13T11:26:09+02:00</time>
      </trkpt>
      <trkpt lat="43.98128" lon="5.26968">
        <ele>601</ele>
        <time>2019-05-13T11:26:10+02:00</time>
      </trkpt>
      <trkpt lat="43.98145" lon="5.26968">
        <ele>604</ele>
        <time>2019-05-13T11:26:28+02:00</time>
      </trkpt>
      <trkpt lat="43.98158" lon="5.2697">
        <ele>606</ele>
        <time>2019-05-13T11:26:45+02:00</time>
      </trkpt>
      <trkpt lat="43.98163" lon="5.26972">
        <ele>607</ele>
        <time>2019-05-13T11:27:02+02:00</time>
      </trkpt>
      <trkpt lat="43.98165" lon="5.2697">
        <ele>608</ele>
        <time>2019-05-13T11:27:30+02:00</time>
      </trkpt>
      <trkpt lat="43.98167" lon="5.26971">
        <ele>608</ele>
        <time>2019-05-13T11:27:45+02:00</time>
      </trkpt>
      <trkpt lat="43.98169" lon="5.26971">
        <ele>608</ele>
        <time>2019-05-13T11:28:03+02:00</time>
      </trkpt>
      <trkpt lat="43.98183" lon="5.26973">
        <ele>609</ele>
        <time>2019-05-13T11:28:21+02:00</time>
      </trkpt>
      <trkpt lat="43.98202" lon="5.26968">
        <ele>613</ele>
        <time>2019-05-13T11:28:37+02:00</time>
      </trkpt>
      <trkpt lat="43.98203" lon="5.26968">
        <ele>613</ele>
        <time>2019-05-13T11:28:39+02:00</time>
      </trkpt>
      <trkpt lat="43.9822" lon="5.26962">
        <ele>618</ele>
        <time>2019-05-13T11:28:55+02:00</time>
      </trkpt>
      <trkpt lat="43.98235" lon="5.26953">
        <ele>621</ele>
        <time>2019-05-13T11:29:12+02:00</time>
      </trkpt>
      <trkpt lat="43.98239" lon="5.26951">
        <ele>621</ele>
        <time>2019-05-13T11:29:16+02:00</time>
      </trkpt>
      <trkpt lat="43.98253" lon="5.26941">
        <ele>621</ele>
        <time>2019-05-13T11:29:30+02:00</time>
      </trkpt>
      <trkpt lat="43.9827" lon="5.26926">
        <ele>625</ele>
        <time>2019-05-13T11:29:46+02:00</time>
      </trkpt>
      <trkpt lat="43.98282" lon="5.26912">
        <ele>627</ele>
        <time>2019-05-13T11:30:02+02:00</time>
      </trkpt>
      <trkpt lat="43.98288" lon="5.2691">
        <ele>629</ele>
        <time>2019-05-13T11:30:09+02:00</time>
      </trkpt>
      <trkpt lat="43.98306" lon="5.26912">
        <ele>631</ele>
        <time>2019-05-13T11:30:27+02:00</time>
      </trkpt>
      <trkpt lat="43.98312" lon="5.26916">
        <ele>630</ele>
        <time>2019-05-13T11:30:33+02:00</time>
      </trkpt>
      <trkpt lat="43.98325" lon="5.26921">
        <ele>630</ele>
        <time>2019-05-13T11:30:49+02:00</time>
      </trkpt>
      <trkpt lat="43.98337" lon="5.26923">
        <ele>631</ele>
        <time>2019-05-13T11:31:08+02:00</time>
      </trkpt>
      <trkpt lat="43.98359" lon="5.26916">
        <ele>636</ele>
        <time>2019-05-13T11:31:26+02:00</time>
      </trkpt>
      <trkpt lat="43.98367" lon="5.26911">
        <ele>638</ele>
        <time>2019-05-13T11:31:35+02:00</time>
      </trkpt>
      <trkpt lat="43.9838" lon="5.26905">
        <ele>640</ele>
        <time>2019-05-13T11:31:50+02:00</time>
      </trkpt>
      <trkpt lat="43.98394" lon="5.26894">
        <ele>641</ele>
        <time>2019-05-13T11:32:06+02:00</time>
      </trkpt>
      <trkpt lat="43.98405" lon="5.2688">
        <ele>643</ele>
        <time>2019-05-13T11:32:20+02:00</time>
      </trkpt>
      <trkpt lat="43.98419" lon="5.26856">
        <ele>646</ele>
        <time>2019-05-13T11:32:39+02:00</time>
      </trkpt>
      <trkpt lat="43.98418" lon="5.26854">
        <ele>646</ele>
        <time>2019-05-13T11:32:56+02:00</time>
      </trkpt>
      <trkpt lat="43.98419" lon="5.26851">
        <ele>647</ele>
        <time>2019-05-13T11:33:15+02:00</time>
      </trkpt>
      <trkpt lat="43.98418" lon="5.2685">
        <ele>647</ele>
        <time>2019-05-13T11:33:39+02:00</time>
      </trkpt>
      <trkpt lat="43.9842" lon="5.26852">
        <ele>647</ele>
        <time>2019-05-13T11:33:59+02:00</time>
      </trkpt>
      <trkpt lat="43.98419" lon="5.26852">
        <ele>647</ele>
        <time>2019-05-13T11:34:26+02:00</time>
      </trkpt>
      <trkpt lat="43.98417" lon="5.26851">
        <ele>647</ele>
        <time>2019-05-13T11:34:49+02:00</time>
      </trkpt>
      <trkpt lat="43.98419" lon="5.26851">
        <ele>647</ele>
        <time>2019-05-13T11:35:11+02:00</time>
      </trkpt>
      <trkpt lat="43.98413" lon="5.2685">
        <ele>648</ele>
        <time>2019-05-13T11:35:46+02:00</time>
      </trkpt>
      <trkpt lat="43.98419" lon="5.26847">
        <ele>648</ele>
        <time>2019-05-13T11:36:04+02:00</time>
      </trkpt>
      <trkpt lat="43.98428" lon="5.26838">
        <ele>650</ele>
        <time>2019-05-13T11:36:17+02:00</time>
      </trkpt>
      <trkpt lat="43.98432" lon="5.26834">
        <ele>651</ele>
        <time>2019-05-13T11:36:38+02:00</time>
      </trkpt>
      <trkpt lat="43.98434" lon="5.26831">
        <ele>651</ele>
        <time>2019-05-13T11:37:01+02:00</time>
      </trkpt>
      <trkpt lat="43.98436" lon="5.26831">
        <ele>651</ele>
        <time>2019-05-13T11:37:29+02:00</time>
      </trkpt>
      <trkpt lat="43.98435" lon="5.26831">
        <ele>651</ele>
        <time>2019-05-13T11:37:56+02:00</time>
      </trkpt>
      <trkpt lat="43.98433" lon="5.26828">
        <ele>652</ele>
        <time>2019-05-13T11:38:28+02:00</time>
      </trkpt>
      <trkpt lat="43.98435" lon="5.26829">
        <ele>651</ele>
        <time>2019-05-13T11:39:01+02:00</time>
      </trkpt>
      <trkpt lat="43.98437" lon="5.26831">
        <ele>651</ele>
        <time>2019-05-13T11:39:43+02:00</time>
      </trkpt>
      <trkpt lat="43.98436" lon="5.2683">
        <ele>651</ele>
        <time>2019-05-13T11:40:17+02:00</time>
      </trkpt>
      <trkpt lat="43.98439" lon="5.26827">
        <ele>651</ele>
        <time>2019-05-13T11:40:44+02:00</time>
      </trkpt>
      <trkpt lat="43.9845" lon="5.26817">
        <ele>652</ele>
        <time>2019-05-13T11:41:00+02:00</time>
      </trkpt>
      <trkpt lat="43.98456" lon="5.26799">
        <ele>655</ele>
        <time>2019-05-13T11:41:16+02:00</time>
      </trkpt>
      <trkpt lat="43.98467" lon="5.26784">
        <ele>658</ele>
        <time>2019-05-13T11:41:31+02:00</time>
      </trkpt>
      <trkpt lat="43.9848" lon="5.26773">
        <ele>659</ele>
        <time>2019-05-13T11:41:48+02:00</time>
      </trkpt>
      <trkpt lat="43.98498" lon="5.26768">
        <ele>660</ele>
        <time>2019-05-13T11:42:06+02:00</time>
      </trkpt>
      <trkpt lat="43.98512" lon="5.26763">
        <ele>661</ele>
        <time>2019-05-13T11:42:23+02:00</time>
      </trkpt>
      <trkpt lat="43.98513" lon="5.26762">
        <ele>661</ele>
        <time>2019-05-13T11:42:24+02:00</time>
      </trkpt>
      <trkpt lat="43.9853" lon="5.26754">
        <ele>661</ele>
        <time>2019-05-13T11:42:39+02:00</time>
      </trkpt>
      <trkpt lat="43.98545" lon="5.2674">
        <ele>663</ele>
        <time>2019-05-13T11:42:55+02:00</time>
      </trkpt>
      <trkpt lat="43.9856" lon="5.26731">
        <ele>665</ele>
        <time>2019-05-13T11:43:12+02:00</time>
      </trkpt>
      <trkpt lat="43.98567" lon="5.26733">
        <ele>666</ele>
        <time>2019-05-13T11:43:18+02:00</time>
      </trkpt>
      <trkpt lat="43.98577" lon="5.26734">
        <ele>667</ele>
        <time>2019-05-13T11:43:33+02:00</time>
      </trkpt>
      <trkpt lat="43.98593" lon="5.26737">
        <ele>669</ele>
        <time>2019-05-13T11:43:53+02:00</time>
      </trkpt>
      <trkpt lat="43.98612" lon="5.26742">
        <ele>671</ele>
        <time>2019-05-13T11:44:10+02:00</time>
      </trkpt>
      <trkpt lat="43.9862" lon="5.26736">
        <ele>673</ele>
        <time>2019-05-13T11:44:20+02:00</time>
      </trkpt>
      <trkpt lat="43.98619" lon="5.26724">
        <ele>671</ele>
        <time>2019-05-13T11:44:36+02:00</time>
      </trkpt>
      <trkpt lat="43.98618" lon="5.26724">
        <ele>671</ele>
        <time>2019-05-13T11:45:00+02:00</time>
      </trkpt>
      <trkpt lat="43.98621" lon="5.26724">
        <ele>672</ele>
        <time>2019-05-13T11:45:26+02:00</time>
      </trkpt>
      <trkpt lat="43.98622" lon="5.2672">
        <ele>672</ele>
        <time>2019-05-13T11:45:53+02:00</time>
      </trkpt>
      <trkpt lat="43.98617" lon="5.26718">
        <ele>672</ele>
        <time>2019-05-13T11:46:21+02:00</time>
      </trkpt>
      <trkpt lat="43.98617" lon="5.26716">
        <ele>672</ele>
        <time>2019-05-13T11:46:27+02:00</time>
      </trkpt>
      <trkpt lat="43.98605" lon="5.26706">
        <ele>673</ele>
        <time>2019-05-13T11:46:45+02:00</time>
      </trkpt>
      <trkpt lat="43.98603" lon="5.26707">
        <ele>673</ele>
        <time>2019-05-13T11:47:07+02:00</time>
      </trkpt>
      <trkpt lat="43.986" lon="5.267">
        <ele>674</ele>
        <time>2019-05-13T11:47:21+02:00</time>
      </trkpt>
      <trkpt lat="43.98602" lon="5.26695">
        <ele>675</ele>
        <time>2019-05-13T11:47:35+02:00</time>
      </trkpt>
      <trkpt lat="43.98598" lon="5.26697">
        <ele>674</ele>
        <time>2019-05-13T11:47:56+02:00</time>
      </trkpt>
      <trkpt lat="43.98586" lon="5.26691">
        <ele>674</ele>
        <time>2019-05-13T11:48:13+02:00</time>
      </trkpt>
      <trkpt lat="43.98581" lon="5.26688">
        <ele>675</ele>
        <time>2019-05-13T11:48:18+02:00</time>
      </trkpt>
      <trkpt lat="43.98565" lon="5.26682">
        <ele>676</ele>
        <time>2019-05-13T11:48:33+02:00</time>
      </trkpt>
      <trkpt lat="43.98551" lon="5.26679">
        <ele>677</ele>
        <time>2019-05-13T11:48:46+02:00</time>
      </trkpt>
      <trkpt lat="43.98533" lon="5.2668">
        <ele>677</ele>
        <time>2019-05-13T11:49:03+02:00</time>
      </trkpt>
      <trkpt lat="43.98512" lon="5.26683">
        <ele>677</ele>
        <time>2019-05-13T11:49:21+02:00</time>
      </trkpt>
      <trkpt lat="43.98487" lon="5.26685">
        <ele>678</ele>
        <time>2019-05-13T11:49:42+02:00</time>
      </trkpt>
      <trkpt lat="43.98477" lon="5.26686">
        <ele>678</ele>
        <time>2019-05-13T11:49:58+02:00</time>
      </trkpt>
      <trkpt lat="43.9846" lon="5.26684">
        <ele>680</ele>
        <time>2019-05-13T11:50:13+02:00</time>
      </trkpt>
      <trkpt lat="43.98443" lon="5.26684">
        <ele>681</ele>
        <time>2019-05-13T11:50:26+02:00</time>
      </trkpt>
      <trkpt lat="43.98426" lon="5.2668">
        <ele>682</ele>
        <time>2019-05-13T11:50:38+02:00</time>
      </trkpt>
      <trkpt lat="43.98411" lon="5.26669">
        <ele>683</ele>
        <time>2019-05-13T11:50:55+02:00</time>
      </trkpt>
      <trkpt lat="43.98392" lon="5.26651">
        <ele>685</ele>
        <time>2019-05-13T11:51:13+02:00</time>
      </trkpt>
      <trkpt lat="43.98391" lon="5.2665">
        <ele>685</ele>
        <time>2019-05-13T11:51:14+02:00</time>
      </trkpt>
      <trkpt lat="43.98378" lon="5.26635">
        <ele>685</ele>
        <time>2019-05-13T11:51:30+02:00</time>
      </trkpt>
      <trkpt lat="43.98372" lon="5.2663">
        <ele>685</ele>
        <time>2019-05-13T11:51:41+02:00</time>
      </trkpt>
      <trkpt lat="43.98364" lon="5.26626">
        <ele>685</ele>
        <time>2019-05-13T11:51:53+02:00</time>
      </trkpt>
      <trkpt lat="43.98356" lon="5.26619">
        <ele>684</ele>
        <time>2019-05-13T11:52:03+02:00</time>
      </trkpt>
      <trkpt lat="43.98348" lon="5.26613">
        <ele>683</ele>
        <time>2019-05-13T11:52:11+02:00</time>
      </trkpt>
      <trkpt lat="43.98347" lon="5.26612">
        <ele>683</ele>
        <time>2019-05-13T11:52:12+02:00</time>
      </trkpt>
      <trkpt lat="43.98336" lon="5.26598">
        <ele>682</ele>
        <time>2019-05-13T11:52:26+02:00</time>
      </trkpt>
      <trkpt lat="43.98322" lon="5.26581">
        <ele>681</ele>
        <time>2019-05-13T11:52:40+02:00</time>
      </trkpt>
      <trkpt lat="43.98323" lon="5.2658">
        <ele>682</ele>
        <time>2019-05-13T11:52:41+02:00</time>
      </trkpt>
      <trkpt lat="43.98324" lon="5.26579">
        <ele>682</ele>
        <time>2019-05-13T11:52:42+02:00</time>
      </trkpt>
      <trkpt lat="43.98325" lon="5.26579">
        <ele>682</ele>
        <time>2019-05-13T11:52:43+02:00</time>
      </trkpt>
      <trkpt lat="43.98326" lon="5.2658">
        <ele>682</ele>
        <time>2019-05-13T11:52:44+02:00</time>
      </trkpt>
      <trkpt lat="43.98329" lon="5.26581">
        <ele>682</ele>
        <time>2019-05-13T11:52:50+02:00</time>
      </trkpt>
      <trkpt lat="43.9833" lon="5.26581">
        <ele>683</ele>
        <time>2019-05-13T11:52:51+02:00</time>
      </trkpt>
      <trkpt lat="43.98338" lon="5.26581">
        <ele>684</ele>
        <time>2019-05-13T11:52:55+02:00</time>
      </trkpt>
      <trkpt lat="43.98349" lon="5.26584">
        <ele>685</ele>
        <time>2019-05-13T11:53:06+02:00</time>
      </trkpt>
      <trkpt lat="43.98352" lon="5.26583">
        <ele>685</ele>
        <time>2019-05-13T11:53:10+02:00</time>
      </trkpt>
      <trkpt lat="43.98356" lon="5.26584">
        <ele>685</ele>
        <time>2019-05-13T11:53:13+02:00</time>
      </trkpt>
      <trkpt lat="43.98357" lon="5.26585">
        <ele>685</ele>
        <time>2019-05-13T11:53:14+02:00</time>
      </trkpt>
      <trkpt lat="43.98358" lon="5.26585">
        <ele>686</ele>
        <time>2019-05-13T11:53:15+02:00</time>
      </trkpt>
      <trkpt lat="43.98367" lon="5.26587">
        <ele>686</ele>
        <time>2019-05-13T11:53:25+02:00</time>
      </trkpt>
      <trkpt lat="43.98372" lon="5.26588">
        <ele>687</ele>
        <time>2019-05-13T11:53:31+02:00</time>
      </trkpt>
      <trkpt lat="43.98376" lon="5.26588">
        <ele>687</ele>
        <time>2019-05-13T11:53:33+02:00</time>
      </trkpt>
      <trkpt lat="43.98386" lon="5.2659">
        <ele>688</ele>
        <time>2019-05-13T11:53:43+02:00</time>
      </trkpt>
      <trkpt lat="43.98388" lon="5.2659">
        <ele>688</ele>
        <time>2019-05-13T11:53:47+02:00</time>
      </trkpt>
      <trkpt lat="43.9839" lon="5.2659">
        <ele>689</ele>
        <time>2019-05-13T11:53:48+02:00</time>
      </trkpt>
      <trkpt lat="43.98399" lon="5.26584">
        <ele>689</ele>
        <time>2019-05-13T11:53:56+02:00</time>
      </trkpt>
      <trkpt lat="43.98405" lon="5.26572">
        <ele>690</ele>
        <time>2019-05-13T11:54:05+02:00</time>
      </trkpt>
      <trkpt lat="43.98406" lon="5.26565">
        <ele>690</ele>
        <time>2019-05-13T11:54:11+02:00</time>
      </trkpt>
      <trkpt lat="43.98404" lon="5.26551">
        <ele>691</ele>
        <time>2019-05-13T11:54:22+02:00</time>
      </trkpt>
      <trkpt lat="43.984" lon="5.26532">
        <ele>692</ele>
        <time>2019-05-13T11:54:32+02:00</time>
      </trkpt>
      <trkpt lat="43.98398" lon="5.26519">
        <ele>692</ele>
        <time>2019-05-13T11:54:44+02:00</time>
      </trkpt>
      <trkpt lat="43.98396" lon="5.26505">
        <ele>693</ele>
        <time>2019-05-13T11:54:55+02:00</time>
      </trkpt>
      <trkpt lat="43.98397" lon="5.26496">
        <ele>693</ele>
        <time>2019-05-13T11:55:02+02:00</time>
      </trkpt>
      <trkpt lat="43.98397" lon="5.26492">
        <ele>694</ele>
        <time>2019-05-13T11:55:11+02:00</time>
      </trkpt>
      <trkpt lat="43.98396" lon="5.2649">
        <ele>694</ele>
        <time>2019-05-13T11:55:12+02:00</time>
      </trkpt>
      <trkpt lat="43.98394" lon="5.26471">
        <ele>694</ele>
        <time>2019-05-13T11:55:25+02:00</time>
      </trkpt>
      <trkpt lat="43.98394" lon="5.26458">
        <ele>695</ele>
        <time>2019-05-13T11:55:30+02:00</time>
      </trkpt>
      <trkpt lat="43.98394" lon="5.26456">
        <ele>695</ele>
        <time>2019-05-13T11:55:31+02:00</time>
      </trkpt>
      <trkpt lat="43.98394" lon="5.26455">
        <ele>695</ele>
        <time>2019-05-13T11:55:32+02:00</time>
      </trkpt>
      <trkpt lat="43.98396" lon="5.26445">
        <ele>695</ele>
        <time>2019-05-13T11:55:42+02:00</time>
      </trkpt>
      <trkpt lat="43.98395" lon="5.26443">
        <ele>695</ele>
        <time>2019-05-13T11:55:43+02:00</time>
      </trkpt>
      <trkpt lat="43.98391" lon="5.26427">
        <ele>694</ele>
        <time>2019-05-13T11:55:52+02:00</time>
      </trkpt>
      <trkpt lat="43.98392" lon="5.26414">
        <ele>693</ele>
        <time>2019-05-13T11:56:02+02:00</time>
      </trkpt>
      <trkpt lat="43.98392" lon="5.26412">
        <ele>693</ele>
        <time>2019-05-13T11:56:03+02:00</time>
      </trkpt>
      <trkpt lat="43.98391" lon="5.26411">
        <ele>693</ele>
        <time>2019-05-13T11:56:13+02:00</time>
      </trkpt>
      <trkpt lat="43.98392" lon="5.2641">
        <ele>693</ele>
        <time>2019-05-13T11:56:39+02:00</time>
      </trkpt>
      <trkpt lat="43.98394" lon="5.26412">
        <ele>693</ele>
        <time>2019-05-13T11:56:57+02:00</time>
      </trkpt>
      <trkpt lat="43.98388" lon="5.26394">
        <ele>691</ele>
        <time>2019-05-13T12:04:08+02:00</time>
      </trkpt>
      <trkpt lat="43.98385" lon="5.2638">
        <ele>690</ele>
        <time>2019-05-13T12:04:21+02:00</time>
      </trkpt>
      <trkpt lat="43.98386" lon="5.26368">
        <ele>690</ele>
        <time>2019-05-13T12:04:28+02:00</time>
      </trkpt>
      <trkpt lat="43.98388" lon="5.26343">
        <ele>687</ele>
        <time>2019-05-13T12:04:45+02:00</time>
      </trkpt>
      <trkpt lat="43.98383" lon="5.26329">
        <ele>686</ele>
        <time>2019-05-13T12:04:58+02:00</time>
      </trkpt>
      <trkpt lat="43.98376" lon="5.26312">
        <ele>683</ele>
        <time>2019-05-13T12:05:11+02:00</time>
      </trkpt>
      <trkpt lat="43.98372" lon="5.26304">
        <ele>682</ele>
        <time>2019-05-13T12:05:18+02:00</time>
      </trkpt>
      <trkpt lat="43.98369" lon="5.26298">
        <ele>682</ele>
        <time>2019-05-13T12:05:22+02:00</time>
      </trkpt>
      <trkpt lat="43.98357" lon="5.26279">
        <ele>680</ele>
        <time>2019-05-13T12:05:37+02:00</time>
      </trkpt>
      <trkpt lat="43.98352" lon="5.26252">
        <ele>678</ele>
        <time>2019-05-13T12:05:55+02:00</time>
      </trkpt>
      <trkpt lat="43.98344" lon="5.26227">
        <ele>675</ele>
        <time>2019-05-13T12:06:13+02:00</time>
      </trkpt>
      <trkpt lat="43.98342" lon="5.26222">
        <ele>675</ele>
        <time>2019-05-13T12:06:16+02:00</time>
      </trkpt>
      <trkpt lat="43.98337" lon="5.2621">
        <ele>673</ele>
        <time>2019-05-13T12:06:24+02:00</time>
      </trkpt>
      <trkpt lat="43.98322" lon="5.26186">
        <ele>672</ele>
        <time>2019-05-13T12:06:43+02:00</time>
      </trkpt>
      <trkpt lat="43.98313" lon="5.26167">
        <ele>670</ele>
        <time>2019-05-13T12:06:56+02:00</time>
      </trkpt>
      <trkpt lat="43.98304" lon="5.26144">
        <ele>669</ele>
        <time>2019-05-13T12:07:12+02:00</time>
      </trkpt>
      <trkpt lat="43.98304" lon="5.26131">
        <ele>669</ele>
        <time>2019-05-13T12:07:21+02:00</time>
      </trkpt>
      <trkpt lat="43.98295" lon="5.26113">
        <ele>667</ele>
        <time>2019-05-13T12:07:36+02:00</time>
      </trkpt>
      <trkpt lat="43.98281" lon="5.26091">
        <ele>661</ele>
        <time>2019-05-13T12:07:54+02:00</time>
      </trkpt>
      <trkpt lat="43.9828" lon="5.26078">
        <ele>659</ele>
        <time>2019-05-13T12:08:08+02:00</time>
      </trkpt>
      <trkpt lat="43.98276" lon="5.26064">
        <ele>656</ele>
        <time>2019-05-13T12:08:22+02:00</time>
      </trkpt>
      <trkpt lat="43.98273" lon="5.26057">
        <ele>655</ele>
        <time>2019-05-13T12:08:35+02:00</time>
      </trkpt>
      <trkpt lat="43.98268" lon="5.26043">
        <ele>654</ele>
        <time>2019-05-13T12:08:49+02:00</time>
      </trkpt>
      <trkpt lat="43.98263" lon="5.2603">
        <ele>652</ele>
        <time>2019-05-13T12:09:04+02:00</time>
      </trkpt>
      <trkpt lat="43.98256" lon="5.2601">
        <ele>649</ele>
        <time>2019-05-13T12:09:21+02:00</time>
      </trkpt>
      <trkpt lat="43.98253" lon="5.25993">
        <ele>645</ele>
        <time>2019-05-13T12:09:37+02:00</time>
      </trkpt>
      <trkpt lat="43.98246" lon="5.25963">
        <ele>640</ele>
        <time>2019-05-13T12:09:53+02:00</time>
      </trkpt>
      <trkpt lat="43.98246" lon="5.25961">
        <ele>639</ele>
        <time>2019-05-13T12:09:54+02:00</time>
      </trkpt>
      <trkpt lat="43.98245" lon="5.25955">
        <ele>639</ele>
        <time>2019-05-13T12:09:58+02:00</time>
      </trkpt>
      <trkpt lat="43.98242" lon="5.25933">
        <ele>636</ele>
        <time>2019-05-13T12:10:13+02:00</time>
      </trkpt>
      <trkpt lat="43.98241" lon="5.2591">
        <ele>633</ele>
        <time>2019-05-13T12:10:29+02:00</time>
      </trkpt>
      <trkpt lat="43.98238" lon="5.25892">
        <ele>631</ele>
        <time>2019-05-13T12:10:41+02:00</time>
      </trkpt>
      <trkpt lat="43.98231" lon="5.25872">
        <ele>629</ele>
        <time>2019-05-13T12:10:56+02:00</time>
      </trkpt>
      <trkpt lat="43.98226" lon="5.25866">
        <ele>628</ele>
        <time>2019-05-13T12:11:03+02:00</time>
      </trkpt>
      <trkpt lat="43.98218" lon="5.25852">
        <ele>627</ele>
        <time>2019-05-13T12:11:16+02:00</time>
      </trkpt>
      <trkpt lat="43.98206" lon="5.25821">
        <ele>623</ele>
        <time>2019-05-13T12:11:36+02:00</time>
      </trkpt>
      <trkpt lat="43.98205" lon="5.25813">
        <ele>622</ele>
        <time>2019-05-13T12:11:41+02:00</time>
      </trkpt>
      <trkpt lat="43.98202" lon="5.25805">
        <ele>620</ele>
        <time>2019-05-13T12:11:48+02:00</time>
      </trkpt>
      <trkpt lat="43.982" lon="5.25797">
        <ele>619</ele>
        <time>2019-05-13T12:11:54+02:00</time>
      </trkpt>
      <trkpt lat="43.98195" lon="5.25779">
        <ele>616</ele>
        <time>2019-05-13T12:12:08+02:00</time>
      </trkpt>
      <trkpt lat="43.98185" lon="5.25756">
        <ele>613</ele>
        <time>2019-05-13T12:12:25+02:00</time>
      </trkpt>
      <trkpt lat="43.98176" lon="5.25746">
        <ele>611</ele>
        <time>2019-05-13T12:12:35+02:00</time>
      </trkpt>
      <trkpt lat="43.98162" lon="5.25748">
        <ele>612</ele>
        <time>2019-05-13T12:12:48+02:00</time>
      </trkpt>
      <trkpt lat="43.98146" lon="5.25739">
        <ele>612</ele>
        <time>2019-05-13T12:13:03+02:00</time>
      </trkpt>
      <trkpt lat="43.98132" lon="5.25728">
        <ele>612</ele>
        <time>2019-05-13T12:13:20+02:00</time>
      </trkpt>
      <trkpt lat="43.98121" lon="5.25711">
        <ele>612</ele>
        <time>2019-05-13T12:13:33+02:00</time>
      </trkpt>
      <trkpt lat="43.9811" lon="5.25695">
        <ele>612</ele>
        <time>2019-05-13T12:13:50+02:00</time>
      </trkpt>
      <trkpt lat="43.98108" lon="5.25687">
        <ele>611</ele>
        <time>2019-05-13T12:14:06+02:00</time>
      </trkpt>
      <trkpt lat="43.98107" lon="5.25684">
        <ele>610</ele>
        <time>2019-05-13T12:14:09+02:00</time>
      </trkpt>
      <trkpt lat="43.98102" lon="5.25666">
        <ele>608</ele>
        <time>2019-05-13T12:14:25+02:00</time>
      </trkpt>
      <trkpt lat="43.98096" lon="5.2565">
        <ele>607</ele>
        <time>2019-05-13T12:14:39+02:00</time>
      </trkpt>
      <trkpt lat="43.98082" lon="5.25623">
        <ele>605</ele>
        <time>2019-05-13T12:14:56+02:00</time>
      </trkpt>
      <trkpt lat="43.9807" lon="5.25603">
        <ele>604</ele>
        <time>2019-05-13T12:15:09+02:00</time>
      </trkpt>
      <trkpt lat="43.98054" lon="5.25579">
        <ele>600</ele>
        <time>2019-05-13T12:15:26+02:00</time>
      </trkpt>
      <trkpt lat="43.98036" lon="5.25567">
        <ele>601</ele>
        <time>2019-05-13T12:15:41+02:00</time>
      </trkpt>
      <trkpt lat="43.98017" lon="5.25553">
        <ele>602</ele>
        <time>2019-05-13T12:15:57+02:00</time>
      </trkpt>
      <trkpt lat="43.98011" lon="5.2555">
        <ele>602</ele>
        <time>2019-05-13T12:16:10+02:00</time>
      </trkpt>
      <trkpt lat="43.98008" lon="5.2555">
        <ele>603</ele>
        <time>2019-05-13T12:16:31+02:00</time>
      </trkpt>
      <trkpt lat="43.98009" lon="5.25552">
        <ele>603</ele>
        <time>2019-05-13T12:17:19+02:00</time>
      </trkpt>
      <trkpt lat="43.98009" lon="5.25554">
        <ele>604</ele>
        <time>2019-05-13T12:18:06+02:00</time>
      </trkpt>
      <trkpt lat="43.98011" lon="5.25554">
        <ele>604</ele>
        <time>2019-05-13T12:18:52+02:00</time>
      </trkpt>
      <trkpt lat="43.98011" lon="5.2555">
        <ele>602</ele>
        <time>2019-05-13T12:19:17+02:00</time>
      </trkpt>
      <trkpt lat="43.98012" lon="5.2555">
        <ele>602</ele>
        <time>2019-05-13T12:19:24+02:00</time>
      </trkpt>
      <trkpt lat="43.98011" lon="5.25547">
        <ele>602</ele>
        <time>2019-05-13T12:19:44+02:00</time>
      </trkpt>
      <trkpt lat="43.9801" lon="5.25547">
        <ele>602</ele>
        <time>2019-05-13T12:20:17+02:00</time>
      </trkpt>
      <trkpt lat="43.9801" lon="5.25549">
        <ele>602</ele>
        <time>2019-05-13T12:20:30+02:00</time>
      </trkpt>
      <trkpt lat="43.9801" lon="5.2555">
        <ele>603</ele>
        <time>2019-05-13T12:20:56+02:00</time>
      </trkpt>
      <trkpt lat="43.9801" lon="5.2555">
        <ele>602</ele>
        <time>2019-05-13T12:21:15+02:00</time>
      </trkpt>
      <trkpt lat="43.98012" lon="5.25554">
        <ele>603</ele>
        <time>2019-05-13T12:21:34+02:00</time>
      </trkpt>
      <trkpt lat="43.9801" lon="5.25563">
        <ele>606</ele>
        <time>2019-05-13T12:21:48+02:00</time>
      </trkpt>
      <trkpt lat="43.9801" lon="5.25574">
        <ele>609</ele>
        <time>2019-05-13T12:22:02+02:00</time>
      </trkpt>
      <trkpt lat="43.98009" lon="5.25585">
        <ele>613</ele>
        <time>2019-05-13T12:22:16+02:00</time>
      </trkpt>
      <trkpt lat="43.98009" lon="5.25596">
        <ele>617</ele>
        <time>2019-05-13T12:22:29+02:00</time>
      </trkpt>
      <trkpt lat="43.98009" lon="5.25605">
        <ele>621</ele>
        <time>2019-05-13T12:22:43+02:00</time>
      </trkpt>
      <trkpt lat="43.98005" lon="5.25607">
        <ele>624</ele>
        <time>2019-05-13T12:22:58+02:00</time>
      </trkpt>
      <trkpt lat="43.98002" lon="5.25613">
        <ele>627</ele>
        <time>2019-05-13T12:23:13+02:00</time>
      </trkpt>
      <trkpt lat="43.98001" lon="5.25616">
        <ele>628</ele>
        <time>2019-05-13T12:23:32+02:00</time>
      </trkpt>
      <trkpt lat="43.98005" lon="5.25616">
        <ele>627</ele>
        <time>2019-05-13T12:23:46+02:00</time>
      </trkpt>
      <trkpt lat="43.98014" lon="5.25626">
        <ele>626</ele>
        <time>2019-05-13T12:24:01+02:00</time>
      </trkpt>
      <trkpt lat="43.9802" lon="5.25629">
        <ele>626</ele>
        <time>2019-05-13T12:24:18+02:00</time>
      </trkpt>
      <trkpt lat="43.98021" lon="5.25628">
        <ele>625</ele>
        <time>2019-05-13T12:24:23+02:00</time>
      </trkpt>
      <trkpt lat="43.98024" lon="5.25629">
        <ele>625</ele>
        <time>2019-05-13T12:24:26+02:00</time>
      </trkpt>
      <trkpt lat="43.98026" lon="5.25632">
        <ele>626</ele>
        <time>2019-05-13T12:24:29+02:00</time>
      </trkpt>
      <trkpt lat="43.98015" lon="5.25625">
        <ele>626</ele>
        <time>2019-05-13T12:24:55+02:00</time>
      </trkpt>
      <trkpt lat="43.98019" lon="5.25626">
        <ele>625</ele>
        <time>2019-05-13T12:25:28+02:00</time>
      </trkpt>
      <trkpt lat="43.98015" lon="5.2562">
        <ele>624</ele>
        <time>2019-05-13T12:25:54+02:00</time>
      </trkpt>
      <trkpt lat="43.98014" lon="5.25621">
        <ele>625</ele>
        <time>2019-05-13T12:26:19+02:00</time>
      </trkpt>
      <trkpt lat="43.98018" lon="5.25623">
        <ele>624</ele>
        <time>2019-05-13T12:26:50+02:00</time>
      </trkpt>
      <trkpt lat="43.98016" lon="5.25621">
        <ele>624</ele>
        <time>2019-05-13T12:27:21+02:00</time>
      </trkpt>
      <trkpt lat="43.98017" lon="5.25622">
        <ele>624</ele>
        <time>2019-05-13T12:27:33+02:00</time>
      </trkpt>
      <trkpt lat="43.98021" lon="5.25621">
        <ele>623</ele>
        <time>2019-05-13T12:27:51+02:00</time>
      </trkpt>
      <trkpt lat="43.98019" lon="5.25621">
        <ele>624</ele>
        <time>2019-05-13T12:28:15+02:00</time>
      </trkpt>
      <trkpt lat="43.98022" lon="5.25631">
        <ele>626</ele>
        <time>2019-05-13T12:28:32+02:00</time>
      </trkpt>
      <trkpt lat="43.98029" lon="5.25637">
        <ele>627</ele>
        <time>2019-05-13T12:28:52+02:00</time>
      </trkpt>
      <trkpt lat="43.98024" lon="5.25644">
        <ele>629</ele>
        <time>2019-05-13T12:29:15+02:00</time>
      </trkpt>
      <trkpt lat="43.98022" lon="5.25649">
        <ele>630</ele>
        <time>2019-05-13T12:29:33+02:00</time>
      </trkpt>
      <trkpt lat="43.98027" lon="5.25634">
        <ele>626</ele>
        <time>2019-05-13T12:29:53+02:00</time>
      </trkpt>
      <trkpt lat="43.98028" lon="5.2563">
        <ele>624</ele>
        <time>2019-05-13T12:30:10+02:00</time>
      </trkpt>
      <trkpt lat="43.98033" lon="5.25632">
        <ele>623</ele>
        <time>2019-05-13T12:30:40+02:00</time>
      </trkpt>
      <trkpt lat="43.98032" lon="5.25636">
        <ele>626</ele>
        <time>2019-05-13T12:31:07+02:00</time>
      </trkpt>
      <trkpt lat="43.98028" lon="5.25636">
        <ele>627</ele>
        <time>2019-05-13T12:31:34+02:00</time>
      </trkpt>
      <trkpt lat="43.98032" lon="5.25632">
        <ele>624</ele>
        <time>2019-05-13T12:32:10+02:00</time>
      </trkpt>
      <trkpt lat="43.98033" lon="5.25632">
        <ele>624</ele>
        <time>2019-05-13T12:32:43+02:00</time>
      </trkpt>
      <trkpt lat="43.98035" lon="5.25632">
        <ele>623</ele>
        <time>2019-05-13T12:33:18+02:00</time>
      </trkpt>
      <trkpt lat="43.98036" lon="5.25633">
        <ele>623</ele>
        <time>2019-05-13T12:33:34+02:00</time>
      </trkpt>
      <trkpt lat="43.98034" lon="5.25634">
        <ele>624</ele>
        <time>2019-05-13T12:34:01+02:00</time>
      </trkpt>
      <trkpt lat="43.9803" lon="5.25634">
        <ele>625</ele>
        <time>2019-05-13T12:34:28+02:00</time>
      </trkpt>
      <trkpt lat="43.9803" lon="5.25635">
        <ele>626</ele>
        <time>2019-05-13T12:34:51+02:00</time>
      </trkpt>
      <trkpt lat="43.9803" lon="5.25633">
        <ele>625</ele>
        <time>2019-05-13T12:35:18+02:00</time>
      </trkpt>
      <trkpt lat="43.98029" lon="5.25635">
        <ele>626</ele>
        <time>2019-05-13T12:35:41+02:00</time>
      </trkpt>
      <trkpt lat="43.98031" lon="5.25632">
        <ele>624</ele>
        <time>2019-05-13T12:35:56+02:00</time>
      </trkpt>
      <trkpt lat="43.98038" lon="5.25645">
        <ele>625</ele>
        <time>2019-05-13T12:36:10+02:00</time>
      </trkpt>
      <trkpt lat="43.9804" lon="5.25654">
        <ele>627</ele>
        <time>2019-05-13T12:36:25+02:00</time>
      </trkpt>
      <trkpt lat="43.98042" lon="5.25663">
        <ele>628</ele>
        <time>2019-05-13T12:36:42+02:00</time>
      </trkpt>
      <trkpt lat="43.9804" lon="5.25666">
        <ele>629</ele>
        <time>2019-05-13T12:37:06+02:00</time>
      </trkpt>
      <trkpt lat="43.98044" lon="5.25667">
        <ele>629</ele>
        <time>2019-05-13T12:37:31+02:00</time>
      </trkpt>
      <trkpt lat="43.98045" lon="5.25667">
        <ele>629</ele>
        <time>2019-05-13T12:37:55+02:00</time>
      </trkpt>
      <trkpt lat="43.9805" lon="5.25665">
        <ele>627</ele>
        <time>2019-05-13T12:40:42+02:00</time>
      </trkpt>
      <trkpt lat="43.98043" lon="5.25658">
        <ele>627</ele>
        <time>2019-05-13T12:41:10+02:00</time>
      </trkpt>
      <trkpt lat="43.98046" lon="5.25656">
        <ele>626</ele>
        <time>2019-05-13T12:41:32+02:00</time>
      </trkpt>
      <trkpt lat="43.98047" lon="5.2566">
        <ele>627</ele>
        <time>2019-05-13T12:41:54+02:00</time>
      </trkpt>
      <trkpt lat="43.98045" lon="5.25657">
        <ele>626</ele>
        <time>2019-05-13T12:42:14+02:00</time>
      </trkpt>
      <trkpt lat="43.98036" lon="5.25647">
        <ele>626</ele>
        <time>2019-05-13T12:42:32+02:00</time>
      </trkpt>
      <trkpt lat="43.98035" lon="5.25639">
        <ele>626</ele>
        <time>2019-05-13T12:42:48+02:00</time>
      </trkpt>
      <trkpt lat="43.98034" lon="5.25641">
        <ele>626</ele>
        <time>2019-05-13T12:43:04+02:00</time>
      </trkpt>
      <trkpt lat="43.98028" lon="5.25632">
        <ele>625</ele>
        <time>2019-05-13T12:43:20+02:00</time>
      </trkpt>
      <trkpt lat="43.98026" lon="5.25629">
        <ele>625</ele>
        <time>2019-05-13T12:43:28+02:00</time>
      </trkpt>
      <trkpt lat="43.98024" lon="5.25627">
        <ele>624</ele>
        <time>2019-05-13T12:43:32+02:00</time>
      </trkpt>
      <trkpt lat="43.98017" lon="5.25627">
        <ele>626</ele>
        <time>2019-05-13T12:43:49+02:00</time>
      </trkpt>
      <trkpt lat="43.98012" lon="5.25621">
        <ele>626</ele>
        <time>2019-05-13T12:44:04+02:00</time>
      </trkpt>
      <trkpt lat="43.98007" lon="5.25618">
        <ele>627</ele>
        <time>2019-05-13T12:44:17+02:00</time>
      </trkpt>
      <trkpt lat="43.98002" lon="5.25615">
        <ele>628</ele>
        <time>2019-05-13T12:44:28+02:00</time>
      </trkpt>
      <trkpt lat="43.98002" lon="5.2561">
        <ele>626</ele>
        <time>2019-05-13T12:44:42+02:00</time>
      </trkpt>
      <trkpt lat="43.98001" lon="5.25613">
        <ele>628</ele>
        <time>2019-05-13T12:44:59+02:00</time>
      </trkpt>
      <trkpt lat="43.97999" lon="5.25616">
        <ele>629</ele>
        <time>2019-05-13T12:45:15+02:00</time>
      </trkpt>
      <trkpt lat="43.98" lon="5.25611">
        <ele>628</ele>
        <time>2019-05-13T12:45:23+02:00</time>
      </trkpt>
      <trkpt lat="43.98004" lon="5.25608">
        <ele>625</ele>
        <time>2019-05-13T12:45:37+02:00</time>
      </trkpt>
      <trkpt lat="43.98008" lon="5.256">
        <ele>620</ele>
        <time>2019-05-13T12:45:52+02:00</time>
      </trkpt>
      <trkpt lat="43.98007" lon="5.25594">
        <ele>617</ele>
        <time>2019-05-13T12:45:59+02:00</time>
      </trkpt>
      <trkpt lat="43.98009" lon="5.25586">
        <ele>613</ele>
        <time>2019-05-13T12:46:13+02:00</time>
      </trkpt>
      <trkpt lat="43.98008" lon="5.25576">
        <ele>610</ele>
        <time>2019-05-13T12:46:28+02:00</time>
      </trkpt>
      <trkpt lat="43.98008" lon="5.25565">
        <ele>607</ele>
        <time>2019-05-13T12:46:43+02:00</time>
      </trkpt>
      <trkpt lat="43.98009" lon="5.25559">
        <ele>605</ele>
        <time>2019-05-13T12:46:56+02:00</time>
      </trkpt>
      <trkpt lat="43.98008" lon="5.2555">
        <ele>603</ele>
        <time>2019-05-13T12:47:09+02:00</time>
      </trkpt>
      <trkpt lat="43.98007" lon="5.25548">
        <ele>603</ele>
        <time>2019-05-13T12:47:26+02:00</time>
      </trkpt>
      <trkpt lat="43.98007" lon="5.2554">
        <ele>600</ele>
        <time>2019-05-13T12:47:37+02:00</time>
      </trkpt>
      <trkpt lat="43.97998" lon="5.25535">
        <ele>601</ele>
        <time>2019-05-13T12:47:49+02:00</time>
      </trkpt>
      <trkpt lat="43.97985" lon="5.25517">
        <ele>598</ele>
        <time>2019-05-13T12:48:04+02:00</time>
      </trkpt>
      <trkpt lat="43.97982" lon="5.25512">
        <ele>597</ele>
        <time>2019-05-13T12:48:08+02:00</time>
      </trkpt>
      <trkpt lat="43.97965" lon="5.25496">
        <ele>596</ele>
        <time>2019-05-13T12:48:27+02:00</time>
      </trkpt>
      <trkpt lat="43.97958" lon="5.25488">
        <ele>595</ele>
        <time>2019-05-13T12:48:43+02:00</time>
      </trkpt>
      <trkpt lat="43.97947" lon="5.25478">
        <ele>594</ele>
        <time>2019-05-13T12:48:58+02:00</time>
      </trkpt>
      <trkpt lat="43.97936" lon="5.25465">
        <ele>592</ele>
        <time>2019-05-13T12:49:14+02:00</time>
      </trkpt>
      <trkpt lat="43.97936" lon="5.25463">
        <ele>591</ele>
        <time>2019-05-13T12:49:31+02:00</time>
      </trkpt>
      <trkpt lat="43.97932" lon="5.25454">
        <ele>589</ele>
        <time>2019-05-13T12:49:46+02:00</time>
      </trkpt>
      <trkpt lat="43.97927" lon="5.25445">
        <ele>587</ele>
        <time>2019-05-13T12:50:00+02:00</time>
      </trkpt>
      <trkpt lat="43.97925" lon="5.25438">
        <ele>586</ele>
        <time>2019-05-13T12:50:14+02:00</time>
      </trkpt>
      <trkpt lat="43.97924" lon="5.25434">
        <ele>585</ele>
        <time>2019-05-13T12:50:28+02:00</time>
      </trkpt>
      <trkpt lat="43.97924" lon="5.25434">
        <ele>585</ele>
        <time>2019-05-13T12:50:44+02:00</time>
      </trkpt>
      <trkpt lat="43.97922" lon="5.25432">
        <ele>585</ele>
        <time>2019-05-13T12:50:57+02:00</time>
      </trkpt>
      <trkpt lat="43.97921" lon="5.25431">
        <ele>585</ele>
        <time>2019-05-13T12:51:19+02:00</time>
      </trkpt>
      <trkpt lat="43.97922" lon="5.25432">
        <ele>585</ele>
        <time>2019-05-13T12:51:42+02:00</time>
      </trkpt>
      <trkpt lat="43.97921" lon="5.25433">
        <ele>585</ele>
        <time>2019-05-13T12:52:08+02:00</time>
      </trkpt>
      <trkpt lat="43.97921" lon="5.25432">
        <ele>585</ele>
        <time>2019-05-13T12:52:36+02:00</time>
      </trkpt>
      <trkpt lat="43.97921" lon="5.25431">
        <ele>585</ele>
        <time>2019-05-13T12:52:57+02:00</time>
      </trkpt>
      <trkpt lat="43.9792" lon="5.25432">
        <ele>585</ele>
        <time>2019-05-13T12:53:21+02:00</time>
      </trkpt>
      <trkpt lat="43.97925" lon="5.25432">
        <ele>584</ele>
        <time>2019-05-13T12:53:35+02:00</time>
      </trkpt>
      <trkpt lat="43.97926" lon="5.25428">
        <ele>584</ele>
        <time>2019-05-13T12:53:50+02:00</time>
      </trkpt>
      <trkpt lat="43.97927" lon="5.25428">
        <ele>583</ele>
        <time>2019-05-13T12:53:53+02:00</time>
      </trkpt>
      <trkpt lat="43.97929" lon="5.25425">
        <ele>583</ele>
        <time>2019-05-13T12:54:10+02:00</time>
      </trkpt>
      <trkpt lat="43.97928" lon="5.25423">
        <ele>582</ele>
        <time>2019-05-13T12:54:22+02:00</time>
      </trkpt>
      <trkpt lat="43.97927" lon="5.25425">
        <ele>583</ele>
        <time>2019-05-13T12:54:47+02:00</time>
      </trkpt>
      <trkpt lat="43.97928" lon="5.25425">
        <ele>583</ele>
        <time>2019-05-13T13:58:50+02:00</time>
      </trkpt>
      <trkpt lat="43.97925" lon="5.25425">
        <ele>583</ele>
        <time>2019-05-13T13:58:52+02:00</time>
      </trkpt>
      <trkpt lat="43.97923" lon="5.25425">
        <ele>583</ele>
        <time>2019-05-13T13:59:06+02:00</time>
      </trkpt>
      <trkpt lat="43.97924" lon="5.25424">
        <ele>583</ele>
        <time>2019-05-13T13:59:30+02:00</time>
      </trkpt>
      <trkpt lat="43.97924" lon="5.25425">
        <ele>583</ele>
        <time>2019-05-13T13:59:48+02:00</time>
      </trkpt>
      <trkpt lat="43.97923" lon="5.25427">
        <ele>583</ele>
        <time>2019-05-13T14:00:03+02:00</time>
      </trkpt>
      <trkpt lat="43.97925" lon="5.25436">
        <ele>585</ele>
        <time>2019-05-13T14:00:19+02:00</time>
      </trkpt>
      <trkpt lat="43.97928" lon="5.25446">
        <ele>587</ele>
        <time>2019-05-13T14:00:32+02:00</time>
      </trkpt>
      <trkpt lat="43.97933" lon="5.25458">
        <ele>590</ele>
        <time>2019-05-13T14:00:47+02:00</time>
      </trkpt>
      <trkpt lat="43.97934" lon="5.25465">
        <ele>592</ele>
        <time>2019-05-13T14:00:59+02:00</time>
      </trkpt>
      <trkpt lat="43.97935" lon="5.25467">
        <ele>592</ele>
        <time>2019-05-13T14:01:12+02:00</time>
      </trkpt>
      <trkpt lat="43.97933" lon="5.25468">
        <ele>593</ele>
        <time>2019-05-13T14:01:30+02:00</time>
      </trkpt>
      <trkpt lat="43.97933" lon="5.2547">
        <ele>593</ele>
        <time>2019-05-13T14:01:36+02:00</time>
      </trkpt>
      <trkpt lat="43.97933" lon="5.25468">
        <ele>593</ele>
        <time>2019-05-13T14:01:57+02:00</time>
      </trkpt>
      <trkpt lat="43.97932" lon="5.25468">
        <ele>593</ele>
        <time>2019-05-13T14:02:02+02:00</time>
      </trkpt>
      <trkpt lat="43.97932" lon="5.25467">
        <ele>593</ele>
        <time>2019-05-13T14:02:20+02:00</time>
      </trkpt>
      <trkpt lat="43.97932" lon="5.25466">
        <ele>592</ele>
        <time>2019-05-13T14:02:37+02:00</time>
      </trkpt>
      <trkpt lat="43.97933" lon="5.25466">
        <ele>592</ele>
        <time>2019-05-13T14:02:56+02:00</time>
      </trkpt>
      <trkpt lat="43.97926" lon="5.25461">
        <ele>592</ele>
        <time>2019-05-13T14:03:12+02:00</time>
      </trkpt>
      <trkpt lat="43.97923" lon="5.25459">
        <ele>592</ele>
        <time>2019-05-13T14:03:16+02:00</time>
      </trkpt>
      <trkpt lat="43.97911" lon="5.2545">
        <ele>591</ele>
        <time>2019-05-13T14:03:31+02:00</time>
      </trkpt>
      <trkpt lat="43.97894" lon="5.25434">
        <ele>590</ele>
        <time>2019-05-13T14:03:49+02:00</time>
      </trkpt>
      <trkpt lat="43.97875" lon="5.25423">
        <ele>590</ele>
        <time>2019-05-13T14:04:07+02:00</time>
      </trkpt>
      <trkpt lat="43.9785" lon="5.25414">
        <ele>591</ele>
        <time>2019-05-13T14:04:27+02:00</time>
      </trkpt>
      <trkpt lat="43.97831" lon="5.25399">
        <ele>589</ele>
        <time>2019-05-13T14:04:47+02:00</time>
      </trkpt>
      <trkpt lat="43.9781" lon="5.25379">
        <ele>587</ele>
        <time>2019-05-13T14:05:08+02:00</time>
      </trkpt>
      <trkpt lat="43.97786" lon="5.25367">
        <ele>586</ele>
        <time>2019-05-13T14:05:29+02:00</time>
      </trkpt>
      <trkpt lat="43.97761" lon="5.25363">
        <ele>585</ele>
        <time>2019-05-13T14:05:50+02:00</time>
      </trkpt>
      <trkpt lat="43.9775" lon="5.25366">
        <ele>586</ele>
        <time>2019-05-13T14:06:00+02:00</time>
      </trkpt>
      <trkpt lat="43.97738" lon="5.25368">
        <ele>586</ele>
        <time>2019-05-13T14:06:10+02:00</time>
      </trkpt>
      <trkpt lat="43.97729" lon="5.25368">
        <ele>586</ele>
        <time>2019-05-13T14:06:18+02:00</time>
      </trkpt>
      <trkpt lat="43.97706" lon="5.25365">
        <ele>584</ele>
        <time>2019-05-13T14:06:37+02:00</time>
      </trkpt>
      <trkpt lat="43.97683" lon="5.25354">
        <ele>583</ele>
        <time>2019-05-13T14:06:58+02:00</time>
      </trkpt>
      <trkpt lat="43.9766" lon="5.25346">
        <ele>583</ele>
        <time>2019-05-13T14:07:18+02:00</time>
      </trkpt>
      <trkpt lat="43.97637" lon="5.25335">
        <ele>584</ele>
        <time>2019-05-13T14:07:39+02:00</time>
      </trkpt>
      <trkpt lat="43.97624" lon="5.25331">
        <ele>585</ele>
        <time>2019-05-13T14:07:52+02:00</time>
      </trkpt>
      <trkpt lat="43.97604" lon="5.2533">
        <ele>586</ele>
        <time>2019-05-13T14:08:09+02:00</time>
      </trkpt>
      <trkpt lat="43.97596" lon="5.25329">
        <ele>586</ele>
        <time>2019-05-13T14:08:17+02:00</time>
      </trkpt>
      <trkpt lat="43.97575" lon="5.25321">
        <ele>586</ele>
        <time>2019-05-13T14:08:37+02:00</time>
      </trkpt>
      <trkpt lat="43.97557" lon="5.25316">
        <ele>585</ele>
        <time>2019-05-13T14:08:52+02:00</time>
      </trkpt>
      <trkpt lat="43.97534" lon="5.25316">
        <ele>585</ele>
        <time>2019-05-13T14:09:10+02:00</time>
      </trkpt>
      <trkpt lat="43.97525" lon="5.25325">
        <ele>585</ele>
        <time>2019-05-13T14:09:22+02:00</time>
      </trkpt>
      <trkpt lat="43.97521" lon="5.25316">
        <ele>584</ele>
        <time>2019-05-13T14:09:30+02:00</time>
      </trkpt>
      <trkpt lat="43.97514" lon="5.25314">
        <ele>584</ele>
        <time>2019-05-13T14:09:37+02:00</time>
      </trkpt>
      <trkpt lat="43.97494" lon="5.2531">
        <ele>583</ele>
        <time>2019-05-13T14:09:55+02:00</time>
      </trkpt>
      <trkpt lat="43.97471" lon="5.25306">
        <ele>581</ele>
        <time>2019-05-13T14:10:16+02:00</time>
      </trkpt>
      <trkpt lat="43.97462" lon="5.25297">
        <ele>579</ele>
        <time>2019-05-13T14:10:28+02:00</time>
      </trkpt>
      <trkpt lat="43.97442" lon="5.25283">
        <ele>576</ele>
        <time>2019-05-13T14:10:48+02:00</time>
      </trkpt>
      <trkpt lat="43.97427" lon="5.25275">
        <ele>575</ele>
        <time>2019-05-13T14:11:05+02:00</time>
      </trkpt>
      <trkpt lat="43.97409" lon="5.25266">
        <ele>573</ele>
        <time>2019-05-13T14:11:21+02:00</time>
      </trkpt>
      <trkpt lat="43.97391" lon="5.25258">
        <ele>571</ele>
        <time>2019-05-13T14:11:39+02:00</time>
      </trkpt>
      <trkpt lat="43.97378" lon="5.25247">
        <ele>571</ele>
        <time>2019-05-13T14:11:51+02:00</time>
      </trkpt>
      <trkpt lat="43.97359" lon="5.25232">
        <ele>569</ele>
        <time>2019-05-13T14:12:09+02:00</time>
      </trkpt>
      <trkpt lat="43.97338" lon="5.25221">
        <ele>564</ele>
        <time>2019-05-13T14:12:28+02:00</time>
      </trkpt>
      <trkpt lat="43.97325" lon="5.25213">
        <ele>562</ele>
        <time>2019-05-13T14:12:43+02:00</time>
      </trkpt>
      <trkpt lat="43.97316" lon="5.2521">
        <ele>562</ele>
        <time>2019-05-13T14:13:00+02:00</time>
      </trkpt>
      <trkpt lat="43.97297" lon="5.25215">
        <ele>561</ele>
        <time>2019-05-13T14:13:17+02:00</time>
      </trkpt>
      <trkpt lat="43.9728" lon="5.25219">
        <ele>561</ele>
        <time>2019-05-13T14:13:30+02:00</time>
      </trkpt>
      <trkpt lat="43.97274" lon="5.25216">
        <ele>560</ele>
        <time>2019-05-13T14:13:40+02:00</time>
      </trkpt>
      <trkpt lat="43.97272" lon="5.25209">
        <ele>560</ele>
        <time>2019-05-13T14:13:45+02:00</time>
      </trkpt>
      <trkpt lat="43.97272" lon="5.25207">
        <ele>560</ele>
        <time>2019-05-13T14:13:46+02:00</time>
      </trkpt>
      <trkpt lat="43.97272" lon="5.25205">
        <ele>560</ele>
        <time>2019-05-13T14:13:47+02:00</time>
      </trkpt>
      <trkpt lat="43.97272" lon="5.25199">
        <ele>560</ele>
        <time>2019-05-13T14:13:51+02:00</time>
      </trkpt>
      <trkpt lat="43.97272" lon="5.25197">
        <ele>559</ele>
        <time>2019-05-13T14:13:52+02:00</time>
      </trkpt>
      <trkpt lat="43.97272" lon="5.25195">
        <ele>559</ele>
        <time>2019-05-13T14:13:53+02:00</time>
      </trkpt>
      <trkpt lat="43.97273" lon="5.25193">
        <ele>559</ele>
        <time>2019-05-13T14:13:54+02:00</time>
      </trkpt>
      <trkpt lat="43.97273" lon="5.25192">
        <ele>559</ele>
        <time>2019-05-13T14:13:55+02:00</time>
      </trkpt>
      <trkpt lat="43.97273" lon="5.2519">
        <ele>559</ele>
        <time>2019-05-13T14:13:56+02:00</time>
      </trkpt>
      <trkpt lat="43.97274" lon="5.25189">
        <ele>559</ele>
        <time>2019-05-13T14:13:57+02:00</time>
      </trkpt>
      <trkpt lat="43.97278" lon="5.25164">
        <ele>558</ele>
        <time>2019-05-13T14:14:13+02:00</time>
      </trkpt>
      <trkpt lat="43.97286" lon="5.25129">
        <ele>555</ele>
        <time>2019-05-13T14:14:36+02:00</time>
      </trkpt>
      <trkpt lat="43.97286" lon="5.25127">
        <ele>555</ele>
        <time>2019-05-13T14:14:37+02:00</time>
      </trkpt>
      <trkpt lat="43.97287" lon="5.25126">
        <ele>555</ele>
        <time>2019-05-13T14:14:38+02:00</time>
      </trkpt>
      <trkpt lat="43.97289" lon="5.25117">
        <ele>555</ele>
        <time>2019-05-13T14:14:44+02:00</time>
      </trkpt>
      <trkpt lat="43.97287" lon="5.25089">
        <ele>554</ele>
        <time>2019-05-13T14:15:03+02:00</time>
      </trkpt>
      <trkpt lat="43.97289" lon="5.25078">
        <ele>554</ele>
        <time>2019-05-13T14:15:16+02:00</time>
      </trkpt>
      <trkpt lat="43.97291" lon="5.25076">
        <ele>554</ele>
        <time>2019-05-13T14:15:19+02:00</time>
      </trkpt>
      <trkpt lat="43.97296" lon="5.25075">
        <ele>554</ele>
        <time>2019-05-13T14:15:26+02:00</time>
      </trkpt>
      <trkpt lat="43.97298" lon="5.25075">
        <ele>554</ele>
        <time>2019-05-13T14:15:27+02:00</time>
      </trkpt>
      <trkpt lat="43.97299" lon="5.25074">
        <ele>554</ele>
        <time>2019-05-13T14:15:28+02:00</time>
      </trkpt>
      <trkpt lat="43.97316" lon="5.25073">
        <ele>555</ele>
        <time>2019-05-13T14:15:42+02:00</time>
      </trkpt>
      <trkpt lat="43.97322" lon="5.25065">
        <ele>555</ele>
        <time>2019-05-13T14:15:57+02:00</time>
      </trkpt>
      <trkpt lat="43.97322" lon="5.25055">
        <ele>554</ele>
        <time>2019-05-13T14:16:06+02:00</time>
      </trkpt>
      <trkpt lat="43.9732" lon="5.25052">
        <ele>554</ele>
        <time>2019-05-13T14:16:11+02:00</time>
      </trkpt>
      <trkpt lat="43.97313" lon="5.25044">
        <ele>554</ele>
        <time>2019-05-13T14:16:20+02:00</time>
      </trkpt>
      <trkpt lat="43.97301" lon="5.25037">
        <ele>553</ele>
        <time>2019-05-13T14:16:33+02:00</time>
      </trkpt>
      <trkpt lat="43.97297" lon="5.25032">
        <ele>553</ele>
        <time>2019-05-13T14:16:37+02:00</time>
      </trkpt>
      <trkpt lat="43.97292" lon="5.25024">
        <ele>552</ele>
        <time>2019-05-13T14:16:45+02:00</time>
      </trkpt>
      <trkpt lat="43.97288" lon="5.25019">
        <ele>552</ele>
        <time>2019-05-13T14:16:48+02:00</time>
      </trkpt>
      <trkpt lat="43.97275" lon="5.25009">
        <ele>551</ele>
        <time>2019-05-13T14:17:01+02:00</time>
      </trkpt>
      <trkpt lat="43.97272" lon="5.25008">
        <ele>551</ele>
        <time>2019-05-13T14:17:03+02:00</time>
      </trkpt>
      <trkpt lat="43.97259" lon="5.25003">
        <ele>550</ele>
        <time>2019-05-13T14:17:15+02:00</time>
      </trkpt>
      <trkpt lat="43.97255" lon="5.25001">
        <ele>550</ele>
        <time>2019-05-13T14:17:20+02:00</time>
      </trkpt>
      <trkpt lat="43.97243" lon="5.25002">
        <ele>550</ele>
        <time>2019-05-13T14:17:28+02:00</time>
      </trkpt>
      <trkpt lat="43.97228" lon="5.24996">
        <ele>550</ele>
        <time>2019-05-13T14:17:42+02:00</time>
      </trkpt>
      <trkpt lat="43.97225" lon="5.24995">
        <ele>550</ele>
        <time>2019-05-13T14:17:44+02:00</time>
      </trkpt>
      <trkpt lat="43.97213" lon="5.2499">
        <ele>550</ele>
        <time>2019-05-13T14:17:58+02:00</time>
      </trkpt>
      <trkpt lat="43.97195" lon="5.24988">
        <ele>550</ele>
        <time>2019-05-13T14:18:10+02:00</time>
      </trkpt>
      <trkpt lat="43.97187" lon="5.24986">
        <ele>550</ele>
        <time>2019-05-13T14:18:16+02:00</time>
      </trkpt>
      <trkpt lat="43.97179" lon="5.24983">
        <ele>550</ele>
        <time>2019-05-13T14:18:21+02:00</time>
      </trkpt>
      <trkpt lat="43.97174" lon="5.2498">
        <ele>549</ele>
        <time>2019-05-13T14:18:34+02:00</time>
      </trkpt>
      <trkpt lat="43.9717" lon="5.24979">
        <ele>549</ele>
        <time>2019-05-13T14:18:40+02:00</time>
      </trkpt>
      <trkpt lat="43.97154" lon="5.24977">
        <ele>548</ele>
        <time>2019-05-13T14:18:51+02:00</time>
      </trkpt>
      <trkpt lat="43.97141" lon="5.24967">
        <ele>546</ele>
        <time>2019-05-13T14:19:04+02:00</time>
      </trkpt>
      <trkpt lat="43.97132" lon="5.24962">
        <ele>545</ele>
        <time>2019-05-13T14:19:15+02:00</time>
      </trkpt>
      <trkpt lat="43.97128" lon="5.24961">
        <ele>545</ele>
        <time>2019-05-13T14:19:19+02:00</time>
      </trkpt>
      <trkpt lat="43.97111" lon="5.24962">
        <ele>544</ele>
        <time>2019-05-13T14:19:31+02:00</time>
      </trkpt>
      <trkpt lat="43.97088" lon="5.24954">
        <ele>541</ele>
        <time>2019-05-13T14:19:50+02:00</time>
      </trkpt>
      <trkpt lat="43.97066" lon="5.24959">
        <ele>540</ele>
        <time>2019-05-13T14:20:09+02:00</time>
      </trkpt>
      <trkpt lat="43.97044" lon="5.24956">
        <ele>540</ele>
        <time>2019-05-13T14:20:28+02:00</time>
      </trkpt>
      <trkpt lat="43.97032" lon="5.2496">
        <ele>540</ele>
        <time>2019-05-13T14:20:40+02:00</time>
      </trkpt>
      <trkpt lat="43.9703" lon="5.24959">
        <ele>540</ele>
        <time>2019-05-13T14:20:42+02:00</time>
      </trkpt>
      <trkpt lat="43.97007" lon="5.24954">
        <ele>540</ele>
        <time>2019-05-13T14:21:02+02:00</time>
      </trkpt>
      <trkpt lat="43.96989" lon="5.24945">
        <ele>540</ele>
        <time>2019-05-13T14:21:19+02:00</time>
      </trkpt>
      <trkpt lat="43.96986" lon="5.24938">
        <ele>540</ele>
        <time>2019-05-13T14:21:29+02:00</time>
      </trkpt>
      <trkpt lat="43.96986" lon="5.24935">
        <ele>540</ele>
        <time>2019-05-13T14:21:31+02:00</time>
      </trkpt>
      <trkpt lat="43.96983" lon="5.24929">
        <ele>540</ele>
        <time>2019-05-13T14:21:36+02:00</time>
      </trkpt>
      <trkpt lat="43.96977" lon="5.24917">
        <ele>540</ele>
        <time>2019-05-13T14:21:46+02:00</time>
      </trkpt>
      <trkpt lat="43.96976" lon="5.24912">
        <ele>540</ele>
        <time>2019-05-13T14:21:50+02:00</time>
      </trkpt>
      <trkpt lat="43.96973" lon="5.24906">
        <ele>540</ele>
        <time>2019-05-13T14:21:55+02:00</time>
      </trkpt>
      <trkpt lat="43.9697" lon="5.24902">
        <ele>540</ele>
        <time>2019-05-13T14:21:59+02:00</time>
      </trkpt>
      <trkpt lat="43.96964" lon="5.24889">
        <ele>540</ele>
        <time>2019-05-13T14:22:09+02:00</time>
      </trkpt>
      <trkpt lat="43.96965" lon="5.24881">
        <ele>540</ele>
        <time>2019-05-13T14:22:13+02:00</time>
      </trkpt>
      <trkpt lat="43.9696" lon="5.24861">
        <ele>540</ele>
        <time>2019-05-13T14:22:28+02:00</time>
      </trkpt>
      <trkpt lat="43.96949" lon="5.24841">
        <ele>540</ele>
        <time>2019-05-13T14:22:46+02:00</time>
      </trkpt>
      <trkpt lat="43.96944" lon="5.24824">
        <ele>540</ele>
        <time>2019-05-13T14:23:00+02:00</time>
      </trkpt>
      <trkpt lat="43.96938" lon="5.24806">
        <ele>540</ele>
        <time>2019-05-13T14:23:11+02:00</time>
      </trkpt>
      <trkpt lat="43.96932" lon="5.24801">
        <ele>540</ele>
        <time>2019-05-13T14:23:16+02:00</time>
      </trkpt>
      <trkpt lat="43.96929" lon="5.24786">
        <ele>540</ele>
        <time>2019-05-13T14:23:23+02:00</time>
      </trkpt>
      <trkpt lat="43.9693" lon="5.24783">
        <ele>540</ele>
        <time>2019-05-13T14:23:24+02:00</time>
      </trkpt>
      <trkpt lat="43.9693" lon="5.24782">
        <ele>540</ele>
        <time>2019-05-13T14:23:25+02:00</time>
      </trkpt>
      <trkpt lat="43.96929" lon="5.24775">
        <ele>540</ele>
        <time>2019-05-13T14:23:37+02:00</time>
      </trkpt>
      <trkpt lat="43.96925" lon="5.24771">
        <ele>540</ele>
        <time>2019-05-13T14:23:44+02:00</time>
      </trkpt>
      <trkpt lat="43.96924" lon="5.24772">
        <ele>540</ele>
        <time>2019-05-13T14:23:45+02:00</time>
      </trkpt>
      <trkpt lat="43.96923" lon="5.24774">
        <ele>540</ele>
        <time>2019-05-13T14:23:46+02:00</time>
      </trkpt>
      <trkpt lat="43.9691" lon="5.24791">
        <ele>540</ele>
        <time>2019-05-13T14:23:57+02:00</time>
      </trkpt>
      <trkpt lat="43.96905" lon="5.24796">
        <ele>540</ele>
        <time>2019-05-13T14:24:10+02:00</time>
      </trkpt>
      <trkpt lat="43.969" lon="5.24803">
        <ele>540</ele>
        <time>2019-05-13T14:24:20+02:00</time>
      </trkpt>
      <trkpt lat="43.969" lon="5.248">
        <ele>540</ele>
        <time>2019-05-13T14:24:40+02:00</time>
      </trkpt>
      <trkpt lat="43.969" lon="5.24804">
        <ele>540</ele>
        <time>2019-05-13T14:25:04+02:00</time>
      </trkpt>
      <trkpt lat="43.96898" lon="5.24803">
        <ele>540</ele>
        <time>2019-05-13T14:25:25+02:00</time>
      </trkpt>
      <trkpt lat="43.96899" lon="5.24802">
        <ele>540</ele>
        <time>2019-05-13T14:25:42+02:00</time>
      </trkpt>
      <trkpt lat="43.96898" lon="5.24805">
        <ele>540</ele>
        <time>2019-05-13T14:25:57+02:00</time>
      </trkpt>
      <trkpt lat="43.96898" lon="5.24805">
        <ele>540</ele>
        <time>2019-05-13T14:26:17+02:00</time>
      </trkpt>
      <trkpt lat="43.969" lon="5.24803">
        <ele>540</ele>
        <time>2019-05-13T14:26:37+02:00</time>
      </trkpt>
      <trkpt lat="43.969" lon="5.24804">
        <ele>540</ele>
        <time>2019-05-13T14:27:05+02:00</time>
      </trkpt>
      <trkpt lat="43.96901" lon="5.24803">
        <ele>540</ele>
        <time>2019-05-13T14:27:32+02:00</time>
      </trkpt>
      <trkpt lat="43.96902" lon="5.24801">
        <ele>540</ele>
        <time>2019-05-13T14:27:53+02:00</time>
      </trkpt>
      <trkpt lat="43.969" lon="5.24804">
        <ele>540</ele>
        <time>2019-05-13T14:28:18+02:00</time>
      </trkpt>
      <trkpt lat="43.96898" lon="5.24805">
        <ele>540</ele>
        <time>2019-05-13T14:28:45+02:00</time>
      </trkpt>
      <trkpt lat="43.96899" lon="5.24806">
        <ele>540</ele>
        <time>2019-05-13T14:29:08+02:00</time>
      </trkpt>
      <trkpt lat="43.96896" lon="5.2481">
        <ele>540</ele>
        <time>2019-05-13T14:29:36+02:00</time>
      </trkpt>
      <trkpt lat="43.96887" lon="5.24821">
        <ele>539</ele>
        <time>2019-05-13T14:29:47+02:00</time>
      </trkpt>
      <trkpt lat="43.96886" lon="5.24823">
        <ele>539</ele>
        <time>2019-05-13T14:29:48+02:00</time>
      </trkpt>
      <trkpt lat="43.96873" lon="5.24846">
        <ele>538</ele>
        <time>2019-05-13T14:30:06+02:00</time>
      </trkpt>
      <trkpt lat="43.96861" lon="5.24872">
        <ele>538</ele>
        <time>2019-05-13T14:30:24+02:00</time>
      </trkpt>
      <trkpt lat="43.96849" lon="5.24891">
        <ele>538</ele>
        <time>2019-05-13T14:30:39+02:00</time>
      </trkpt>
      <trkpt lat="43.96842" lon="5.24898">
        <ele>537</ele>
        <time>2019-05-13T14:30:51+02:00</time>
      </trkpt>
      <trkpt lat="43.9684" lon="5.24898">
        <ele>537</ele>
        <time>2019-05-13T14:30:52+02:00</time>
      </trkpt>
      <trkpt lat="43.96839" lon="5.24898">
        <ele>537</ele>
        <time>2019-05-13T14:30:53+02:00</time>
      </trkpt>
      <trkpt lat="43.96837" lon="5.24897">
        <ele>537</ele>
        <time>2019-05-13T14:30:56+02:00</time>
      </trkpt>
      <trkpt lat="43.96835" lon="5.24897">
        <ele>537</ele>
        <time>2019-05-13T14:30:57+02:00</time>
      </trkpt>
      <trkpt lat="43.96831" lon="5.24898">
        <ele>537</ele>
        <time>2019-05-13T14:31:09+02:00</time>
      </trkpt>
      <trkpt lat="43.96829" lon="5.24897">
        <ele>536</ele>
        <time>2019-05-13T14:31:14+02:00</time>
      </trkpt>
      <trkpt lat="43.96827" lon="5.24896">
        <ele>536</ele>
        <time>2019-05-13T14:31:15+02:00</time>
      </trkpt>
      <trkpt lat="43.96824" lon="5.24894">
        <ele>536</ele>
        <time>2019-05-13T14:31:20+02:00</time>
      </trkpt>
      <trkpt lat="43.96822" lon="5.24894">
        <ele>536</ele>
        <time>2019-05-13T14:31:21+02:00</time>
      </trkpt>
      <trkpt lat="43.9682" lon="5.24894">
        <ele>536</ele>
        <time>2019-05-13T14:31:22+02:00</time>
      </trkpt>
      <trkpt lat="43.96809" lon="5.24891">
        <ele>535</ele>
        <time>2019-05-13T14:31:33+02:00</time>
      </trkpt>
      <trkpt lat="43.96796" lon="5.24889">
        <ele>535</ele>
        <time>2019-05-13T14:31:44+02:00</time>
      </trkpt>
      <trkpt lat="43.96781" lon="5.24882">
        <ele>534</ele>
        <time>2019-05-13T14:31:58+02:00</time>
      </trkpt>
      <trkpt lat="43.96772" lon="5.24879">
        <ele>534</ele>
        <time>2019-05-13T14:32:08+02:00</time>
      </trkpt>
      <trkpt lat="43.96756" lon="5.24876">
        <ele>533</ele>
        <time>2019-05-13T14:32:20+02:00</time>
      </trkpt>
      <trkpt lat="43.96741" lon="5.24872">
        <ele>532</ele>
        <time>2019-05-13T14:32:34+02:00</time>
      </trkpt>
      <trkpt lat="43.96738" lon="5.24875">
        <ele>532</ele>
        <time>2019-05-13T14:32:46+02:00</time>
      </trkpt>
      <trkpt lat="43.96727" lon="5.24868">
        <ele>531</ele>
        <time>2019-05-13T14:33:01+02:00</time>
      </trkpt>
      <trkpt lat="43.96705" lon="5.24865">
        <ele>531</ele>
        <time>2019-05-13T14:33:21+02:00</time>
      </trkpt>
      <trkpt lat="43.96683" lon="5.24859">
        <ele>531</ele>
        <time>2019-05-13T14:33:41+02:00</time>
      </trkpt>
      <trkpt lat="43.96668" lon="5.24855">
        <ele>531</ele>
        <time>2019-05-13T14:33:55+02:00</time>
      </trkpt>
      <trkpt lat="43.96662" lon="5.24852">
        <ele>531</ele>
        <time>2019-05-13T14:34:00+02:00</time>
      </trkpt>
      <trkpt lat="43.96648" lon="5.2484">
        <ele>531</ele>
        <time>2019-05-13T14:34:13+02:00</time>
      </trkpt>
      <trkpt lat="43.96643" lon="5.24838">
        <ele>531</ele>
        <time>2019-05-13T14:34:21+02:00</time>
      </trkpt>
      <trkpt lat="43.96641" lon="5.24838">
        <ele>531</ele>
        <time>2019-05-13T14:34:22+02:00</time>
      </trkpt>
      <trkpt lat="43.9664" lon="5.24838">
        <ele>531</ele>
        <time>2019-05-13T14:34:23+02:00</time>
      </trkpt>
      <trkpt lat="43.96638" lon="5.24838">
        <ele>531</ele>
        <time>2019-05-13T14:34:24+02:00</time>
      </trkpt>
      <trkpt lat="43.96636" lon="5.24838">
        <ele>531</ele>
        <time>2019-05-13T14:34:25+02:00</time>
      </trkpt>
      <trkpt lat="43.96634" lon="5.24838">
        <ele>531</ele>
        <time>2019-05-13T14:34:26+02:00</time>
      </trkpt>
      <trkpt lat="43.96633" lon="5.24837">
        <ele>531</ele>
        <time>2019-05-13T14:34:27+02:00</time>
      </trkpt>
      <trkpt lat="43.96631" lon="5.24836">
        <ele>531</ele>
        <time>2019-05-13T14:34:28+02:00</time>
      </trkpt>
      <trkpt lat="43.9663" lon="5.24836">
        <ele>531</ele>
        <time>2019-05-13T14:34:30+02:00</time>
      </trkpt>
      <trkpt lat="43.96628" lon="5.24836">
        <ele>531</ele>
        <time>2019-05-13T14:34:31+02:00</time>
      </trkpt>
      <trkpt lat="43.96627" lon="5.24836">
        <ele>531</ele>
        <time>2019-05-13T14:34:32+02:00</time>
      </trkpt>
      <trkpt lat="43.96619" lon="5.24836">
        <ele>531</ele>
        <time>2019-05-13T14:34:44+02:00</time>
      </trkpt>
      <trkpt lat="43.96609" lon="5.24836">
        <ele>531</ele>
        <time>2019-05-13T14:34:52+02:00</time>
      </trkpt>
      <trkpt lat="43.96607" lon="5.24836">
        <ele>531</ele>
        <time>2019-05-13T14:34:53+02:00</time>
      </trkpt>
      <trkpt lat="43.96606" lon="5.24836">
        <ele>531</ele>
        <time>2019-05-13T14:34:54+02:00</time>
      </trkpt>
      <trkpt lat="43.96604" lon="5.24837">
        <ele>531</ele>
        <time>2019-05-13T14:34:55+02:00</time>
      </trkpt>
      <trkpt lat="43.96602" lon="5.24837">
        <ele>531</ele>
        <time>2019-05-13T14:34:56+02:00</time>
      </trkpt>
      <trkpt lat="43.96601" lon="5.24838">
        <ele>531</ele>
        <time>2019-05-13T14:34:57+02:00</time>
      </trkpt>
      <trkpt lat="43.96599" lon="5.24837">
        <ele>531</ele>
        <time>2019-05-13T14:34:59+02:00</time>
      </trkpt>
      <trkpt lat="43.96595" lon="5.24836">
        <ele>531</ele>
        <time>2019-05-13T14:35:03+02:00</time>
      </trkpt>
      <trkpt lat="43.96593" lon="5.24836">
        <ele>531</ele>
        <time>2019-05-13T14:35:04+02:00</time>
      </trkpt>
      <trkpt lat="43.96577" lon="5.24834">
        <ele>531</ele>
        <time>2019-05-13T14:35:16+02:00</time>
      </trkpt>
      <trkpt lat="43.96571" lon="5.24832">
        <ele>531</ele>
        <time>2019-05-13T14:35:24+02:00</time>
      </trkpt>
      <trkpt lat="43.96569" lon="5.24833">
        <ele>530</ele>
        <time>2019-05-13T14:35:25+02:00</time>
      </trkpt>
      <trkpt lat="43.96568" lon="5.24833">
        <ele>530</ele>
        <time>2019-05-13T14:35:26+02:00</time>
      </trkpt>
      <trkpt lat="43.96566" lon="5.24833">
        <ele>530</ele>
        <time>2019-05-13T14:35:27+02:00</time>
      </trkpt>
      <trkpt lat="43.96565" lon="5.24834">
        <ele>530</ele>
        <time>2019-05-13T14:35:28+02:00</time>
      </trkpt>
      <trkpt lat="43.96563" lon="5.24835">
        <ele>530</ele>
        <time>2019-05-13T14:35:29+02:00</time>
      </trkpt>
      <trkpt lat="43.96562" lon="5.24834">
        <ele>530</ele>
        <time>2019-05-13T14:35:30+02:00</time>
      </trkpt>
      <trkpt lat="43.96553" lon="5.24833">
        <ele>530</ele>
        <time>2019-05-13T14:35:41+02:00</time>
      </trkpt>
      <trkpt lat="43.96551" lon="5.24833">
        <ele>530</ele>
        <time>2019-05-13T14:35:42+02:00</time>
      </trkpt>
      <trkpt lat="43.96549" lon="5.24834">
        <ele>530</ele>
        <time>2019-05-13T14:35:43+02:00</time>
      </trkpt>
      <trkpt lat="43.96538" lon="5.24838">
        <ele>529</ele>
        <time>2019-05-13T14:35:51+02:00</time>
      </trkpt>
      <trkpt lat="43.96527" lon="5.24836">
        <ele>528</ele>
        <time>2019-05-13T14:36:05+02:00</time>
      </trkpt>
      <trkpt lat="43.96507" lon="5.24831">
        <ele>527</ele>
        <time>2019-05-13T14:36:20+02:00</time>
      </trkpt>
      <trkpt lat="43.96501" lon="5.24831">
        <ele>526</ele>
        <time>2019-05-13T14:36:26+02:00</time>
      </trkpt>
      <trkpt lat="43.96486" lon="5.24828">
        <ele>525</ele>
        <time>2019-05-13T14:36:41+02:00</time>
      </trkpt>
      <trkpt lat="43.96471" lon="5.2483">
        <ele>524</ele>
        <time>2019-05-13T14:36:55+02:00</time>
      </trkpt>
      <trkpt lat="43.96459" lon="5.24832">
        <ele>523</ele>
        <time>2019-05-13T14:37:08+02:00</time>
      </trkpt>
      <trkpt lat="43.96457" lon="5.24831">
        <ele>522</ele>
        <time>2019-05-13T14:37:09+02:00</time>
      </trkpt>
      <trkpt lat="43.9644" lon="5.24831">
        <ele>521</ele>
        <time>2019-05-13T14:37:23+02:00</time>
      </trkpt>
      <trkpt lat="43.96427" lon="5.24829">
        <ele>520</ele>
        <time>2019-05-13T14:37:36+02:00</time>
      </trkpt>
      <trkpt lat="43.96413" lon="5.24826">
        <ele>519</ele>
        <time>2019-05-13T14:37:49+02:00</time>
      </trkpt>
      <trkpt lat="43.96408" lon="5.24824">
        <ele>518</ele>
        <time>2019-05-13T14:37:53+02:00</time>
      </trkpt>
      <trkpt lat="43.96406" lon="5.24822">
        <ele>518</ele>
        <time>2019-05-13T14:37:54+02:00</time>
      </trkpt>
      <trkpt lat="43.96405" lon="5.24821">
        <ele>518</ele>
        <time>2019-05-13T14:37:55+02:00</time>
      </trkpt>
      <trkpt lat="43.96403" lon="5.2482">
        <ele>518</ele>
        <time>2019-05-13T14:37:56+02:00</time>
      </trkpt>
      <trkpt lat="43.96402" lon="5.24819">
        <ele>518</ele>
        <time>2019-05-13T14:37:57+02:00</time>
      </trkpt>
      <trkpt lat="43.964" lon="5.24817">
        <ele>518</ele>
        <time>2019-05-13T14:37:58+02:00</time>
      </trkpt>
      <trkpt lat="43.96384" lon="5.24814">
        <ele>517</ele>
        <time>2019-05-13T14:38:10+02:00</time>
      </trkpt>
      <trkpt lat="43.96383" lon="5.24815">
        <ele>517</ele>
        <time>2019-05-13T14:38:14+02:00</time>
      </trkpt>
      <trkpt lat="43.96382" lon="5.24815">
        <ele>516</ele>
        <time>2019-05-13T14:38:15+02:00</time>
      </trkpt>
      <trkpt lat="43.96373" lon="5.24815">
        <ele>516</ele>
        <time>2019-05-13T14:38:25+02:00</time>
      </trkpt>
      <trkpt lat="43.96372" lon="5.24814">
        <ele>516</ele>
        <time>2019-05-13T14:38:26+02:00</time>
      </trkpt>
      <trkpt lat="43.96371" lon="5.24814">
        <ele>516</ele>
        <time>2019-05-13T14:38:27+02:00</time>
      </trkpt>
      <trkpt lat="43.96369" lon="5.24813">
        <ele>516</ele>
        <time>2019-05-13T14:38:28+02:00</time>
      </trkpt>
      <trkpt lat="43.96368" lon="5.24813">
        <ele>515</ele>
        <time>2019-05-13T14:38:29+02:00</time>
      </trkpt>
      <trkpt lat="43.96366" lon="5.24813">
        <ele>515</ele>
        <time>2019-05-13T14:38:30+02:00</time>
      </trkpt>
      <trkpt lat="43.96352" lon="5.24814">
        <ele>514</ele>
        <time>2019-05-13T14:38:43+02:00</time>
      </trkpt>
      <trkpt lat="43.96333" lon="5.24808">
        <ele>513</ele>
        <time>2019-05-13T14:38:57+02:00</time>
      </trkpt>
      <trkpt lat="43.96321" lon="5.2481">
        <ele>512</ele>
        <time>2019-05-13T14:39:10+02:00</time>
      </trkpt>
      <trkpt lat="43.96308" lon="5.24807">
        <ele>510</ele>
        <time>2019-05-13T14:39:20+02:00</time>
      </trkpt>
      <trkpt lat="43.96295" lon="5.24801">
        <ele>509</ele>
        <time>2019-05-13T14:39:33+02:00</time>
      </trkpt>
      <trkpt lat="43.96293" lon="5.24799">
        <ele>509</ele>
        <time>2019-05-13T14:39:35+02:00</time>
      </trkpt>
      <trkpt lat="43.96291" lon="5.24799">
        <ele>509</ele>
        <time>2019-05-13T14:39:36+02:00</time>
      </trkpt>
      <trkpt lat="43.96284" lon="5.24795">
        <ele>508</ele>
        <time>2019-05-13T14:39:40+02:00</time>
      </trkpt>
      <trkpt lat="43.96282" lon="5.24794">
        <ele>508</ele>
        <time>2019-05-13T14:39:41+02:00</time>
      </trkpt>
      <trkpt lat="43.96281" lon="5.24794">
        <ele>508</ele>
        <time>2019-05-13T14:39:42+02:00</time>
      </trkpt>
      <trkpt lat="43.96279" lon="5.24793">
        <ele>508</ele>
        <time>2019-05-13T14:39:43+02:00</time>
      </trkpt>
      <trkpt lat="43.96278" lon="5.24793">
        <ele>508</ele>
        <time>2019-05-13T14:39:44+02:00</time>
      </trkpt>
      <trkpt lat="43.96277" lon="5.24794">
        <ele>508</ele>
        <time>2019-05-13T14:39:45+02:00</time>
      </trkpt>
      <trkpt lat="43.96271" lon="5.24798">
        <ele>508</ele>
        <time>2019-05-13T14:39:54+02:00</time>
      </trkpt>
      <trkpt lat="43.9627" lon="5.24798">
        <ele>508</ele>
        <time>2019-05-13T14:39:55+02:00</time>
      </trkpt>
      <trkpt lat="43.96268" lon="5.24797">
        <ele>508</ele>
        <time>2019-05-13T14:39:56+02:00</time>
      </trkpt>
      <trkpt lat="43.96258" lon="5.24796">
        <ele>507</ele>
        <time>2019-05-13T14:40:04+02:00</time>
      </trkpt>
      <trkpt lat="43.96247" lon="5.24798">
        <ele>507</ele>
        <time>2019-05-13T14:40:16+02:00</time>
      </trkpt>
      <trkpt lat="43.96225" lon="5.24787">
        <ele>506</ele>
        <time>2019-05-13T14:40:29+02:00</time>
      </trkpt>
      <trkpt lat="43.96217" lon="5.24788">
        <ele>506</ele>
        <time>2019-05-13T14:40:40+02:00</time>
      </trkpt>
      <trkpt lat="43.96215" lon="5.24787">
        <ele>506</ele>
        <time>2019-05-13T14:40:41+02:00</time>
      </trkpt>
      <trkpt lat="43.96213" lon="5.24787">
        <ele>505</ele>
        <time>2019-05-13T14:40:42+02:00</time>
      </trkpt>
      <trkpt lat="43.96207" lon="5.24786">
        <ele>505</ele>
        <time>2019-05-13T14:40:48+02:00</time>
      </trkpt>
      <trkpt lat="43.96203" lon="5.24785">
        <ele>505</ele>
        <time>2019-05-13T14:40:55+02:00</time>
      </trkpt>
      <trkpt lat="43.96202" lon="5.24785">
        <ele>505</ele>
        <time>2019-05-13T14:40:56+02:00</time>
      </trkpt>
      <trkpt lat="43.962" lon="5.24784">
        <ele>505</ele>
        <time>2019-05-13T14:40:57+02:00</time>
      </trkpt>
      <trkpt lat="43.96198" lon="5.24783">
        <ele>504</ele>
        <time>2019-05-13T14:40:58+02:00</time>
      </trkpt>
      <trkpt lat="43.96196" lon="5.24783">
        <ele>504</ele>
        <time>2019-05-13T14:40:59+02:00</time>
      </trkpt>
      <trkpt lat="43.96195" lon="5.24782">
        <ele>504</ele>
        <time>2019-05-13T14:41:00+02:00</time>
      </trkpt>
      <trkpt lat="43.96193" lon="5.24782">
        <ele>504</ele>
        <time>2019-05-13T14:41:01+02:00</time>
      </trkpt>
      <trkpt lat="43.96189" lon="5.2478">
        <ele>504</ele>
        <time>2019-05-13T14:41:08+02:00</time>
      </trkpt>
      <trkpt lat="43.96188" lon="5.2478">
        <ele>504</ele>
        <time>2019-05-13T14:41:09+02:00</time>
      </trkpt>
      <trkpt lat="43.96186" lon="5.24779">
        <ele>504</ele>
        <time>2019-05-13T14:41:10+02:00</time>
      </trkpt>
      <trkpt lat="43.96177" lon="5.24778">
        <ele>503</ele>
        <time>2019-05-13T14:41:21+02:00</time>
      </trkpt>
      <trkpt lat="43.96161" lon="5.24773">
        <ele>502</ele>
        <time>2019-05-13T14:41:32+02:00</time>
      </trkpt>
      <trkpt lat="43.96156" lon="5.24773">
        <ele>502</ele>
        <time>2019-05-13T14:41:38+02:00</time>
      </trkpt>
      <trkpt lat="43.96155" lon="5.24773">
        <ele>502</ele>
        <time>2019-05-13T14:41:39+02:00</time>
      </trkpt>
      <trkpt lat="43.96153" lon="5.24773">
        <ele>502</ele>
        <time>2019-05-13T14:41:40+02:00</time>
      </trkpt>
      <trkpt lat="43.96148" lon="5.24776">
        <ele>502</ele>
        <time>2019-05-13T14:41:50+02:00</time>
      </trkpt>
      <trkpt lat="43.96143" lon="5.24776">
        <ele>501</ele>
        <time>2019-05-13T14:42:08+02:00</time>
      </trkpt>
      <trkpt lat="43.96142" lon="5.24774">
        <ele>501</ele>
        <time>2019-05-13T14:42:22+02:00</time>
      </trkpt>
      <trkpt lat="43.96143" lon="5.24772">
        <ele>501</ele>
        <time>2019-05-13T14:42:25+02:00</time>
      </trkpt>
      <trkpt lat="43.9614" lon="5.2477">
        <ele>501</ele>
        <time>2019-05-13T14:42:29+02:00</time>
      </trkpt>
      <trkpt lat="43.96138" lon="5.24768">
        <ele>501</ele>
        <time>2019-05-13T14:42:30+02:00</time>
      </trkpt>
      <trkpt lat="43.96136" lon="5.24767">
        <ele>501</ele>
        <time>2019-05-13T14:42:31+02:00</time>
      </trkpt>
      <trkpt lat="43.96135" lon="5.24766">
        <ele>501</ele>
        <time>2019-05-13T14:42:32+02:00</time>
      </trkpt>
      <trkpt lat="43.96133" lon="5.24764">
        <ele>501</ele>
        <time>2019-05-13T14:42:33+02:00</time>
      </trkpt>
      <trkpt lat="43.96132" lon="5.24762">
        <ele>501</ele>
        <time>2019-05-13T14:42:34+02:00</time>
      </trkpt>
      <trkpt lat="43.96127" lon="5.24758">
        <ele>501</ele>
        <time>2019-05-13T14:42:45+02:00</time>
      </trkpt>
      <trkpt lat="43.9611" lon="5.24751">
        <ele>500</ele>
        <time>2019-05-13T14:42:54+02:00</time>
      </trkpt>
      <trkpt lat="43.96109" lon="5.24749">
        <ele>500</ele>
        <time>2019-05-13T14:43:01+02:00</time>
      </trkpt>
      <trkpt lat="43.96102" lon="5.24744">
        <ele>500</ele>
        <time>2019-05-13T14:43:13+02:00</time>
      </trkpt>
      <trkpt lat="43.96096" lon="5.24744">
        <ele>500</ele>
        <time>2019-05-13T14:43:17+02:00</time>
      </trkpt>
      <trkpt lat="43.96094" lon="5.24744">
        <ele>500</ele>
        <time>2019-05-13T14:43:18+02:00</time>
      </trkpt>
      <trkpt lat="43.96092" lon="5.24744">
        <ele>500</ele>
        <time>2019-05-13T14:43:19+02:00</time>
      </trkpt>
      <trkpt lat="43.96086" lon="5.24742">
        <ele>500</ele>
        <time>2019-05-13T14:43:26+02:00</time>
      </trkpt>
      <trkpt lat="43.96084" lon="5.24743">
        <ele>500</ele>
        <time>2019-05-13T14:43:28+02:00</time>
      </trkpt>
      <trkpt lat="43.96068" lon="5.24742">
        <ele>499</ele>
        <time>2019-05-13T14:43:39+02:00</time>
      </trkpt>
      <trkpt lat="43.96064" lon="5.24741">
        <ele>499</ele>
        <time>2019-05-13T14:43:47+02:00</time>
      </trkpt>
      <trkpt lat="43.96063" lon="5.24742">
        <ele>499</ele>
        <time>2019-05-13T14:43:48+02:00</time>
      </trkpt>
      <trkpt lat="43.96062" lon="5.24744">
        <ele>499</ele>
        <time>2019-05-13T14:43:49+02:00</time>
      </trkpt>
      <trkpt lat="43.96061" lon="5.24745">
        <ele>499</ele>
        <time>2019-05-13T14:43:50+02:00</time>
      </trkpt>
      <trkpt lat="43.9606" lon="5.24745">
        <ele>499</ele>
        <time>2019-05-13T14:43:51+02:00</time>
      </trkpt>
      <trkpt lat="43.96058" lon="5.24746">
        <ele>499</ele>
        <time>2019-05-13T14:43:52+02:00</time>
      </trkpt>
      <trkpt lat="43.9605" lon="5.24751">
        <ele>498</ele>
        <time>2019-05-13T14:43:59+02:00</time>
      </trkpt>
      <trkpt lat="43.96049" lon="5.24754">
        <ele>498</ele>
        <time>2019-05-13T14:44:06+02:00</time>
      </trkpt>
      <trkpt lat="43.96048" lon="5.24755">
        <ele>498</ele>
        <time>2019-05-13T14:44:22+02:00</time>
      </trkpt>
      <trkpt lat="43.96047" lon="5.24755">
        <ele>498</ele>
        <time>2019-05-13T14:44:25+02:00</time>
      </trkpt>
      <trkpt lat="43.9605" lon="5.2475">
        <ele>498</ele>
        <time>2019-05-13T14:44:35+02:00</time>
      </trkpt>
      <trkpt lat="43.96048" lon="5.24753">
        <ele>498</ele>
        <time>2019-05-13T14:44:45+02:00</time>
      </trkpt>
      <trkpt lat="43.96047" lon="5.24755">
        <ele>498</ele>
        <time>2019-05-13T14:44:46+02:00</time>
      </trkpt>
      <trkpt lat="43.96048" lon="5.24757">
        <ele>498</ele>
        <time>2019-05-13T14:44:47+02:00</time>
      </trkpt>
      <trkpt lat="43.96048" lon="5.24758">
        <ele>498</ele>
        <time>2019-05-13T14:44:48+02:00</time>
      </trkpt>
      <trkpt lat="43.96047" lon="5.2476">
        <ele>498</ele>
        <time>2019-05-13T14:44:49+02:00</time>
      </trkpt>
      <trkpt lat="43.96047" lon="5.24761">
        <ele>498</ele>
        <time>2019-05-13T14:44:50+02:00</time>
      </trkpt>
      <trkpt lat="43.96047" lon="5.24763">
        <ele>498</ele>
        <time>2019-05-13T14:44:51+02:00</time>
      </trkpt>
      <trkpt lat="43.96046" lon="5.24768">
        <ele>498</ele>
        <time>2019-05-13T14:44:54+02:00</time>
      </trkpt>
      <trkpt lat="43.96045" lon="5.24773">
        <ele>498</ele>
        <time>2019-05-13T14:44:58+02:00</time>
      </trkpt>
      <trkpt lat="43.96046" lon="5.2478">
        <ele>498</ele>
        <time>2019-05-13T14:45:03+02:00</time>
      </trkpt>
      <trkpt lat="43.96045" lon="5.24782">
        <ele>497</ele>
        <time>2019-05-13T14:45:04+02:00</time>
      </trkpt>
      <trkpt lat="43.96047" lon="5.24806">
        <ele>497</ele>
        <time>2019-05-13T14:45:21+02:00</time>
      </trkpt>
      <trkpt lat="43.9605" lon="5.24826">
        <ele>498</ele>
        <time>2019-05-13T14:45:36+02:00</time>
      </trkpt>
      <trkpt lat="43.96054" lon="5.24851">
        <ele>499</ele>
        <time>2019-05-13T14:45:54+02:00</time>
      </trkpt>
      <trkpt lat="43.96056" lon="5.24869">
        <ele>499</ele>
        <time>2019-05-13T14:46:08+02:00</time>
      </trkpt>
      <trkpt lat="43.96059" lon="5.24889">
        <ele>499</ele>
        <time>2019-05-13T14:46:22+02:00</time>
      </trkpt>
      <trkpt lat="43.96062" lon="5.24895">
        <ele>500</ele>
        <time>2019-05-13T14:46:27+02:00</time>
      </trkpt>
      <trkpt lat="43.96067" lon="5.24907">
        <ele>500</ele>
        <time>2019-05-13T14:46:38+02:00</time>
      </trkpt>
      <trkpt lat="43.96067" lon="5.24908">
        <ele>500</ele>
        <time>2019-05-13T14:46:39+02:00</time>
      </trkpt>
      <trkpt lat="43.96068" lon="5.24909">
        <ele>500</ele>
        <time>2019-05-13T14:46:40+02:00</time>
      </trkpt>
      <trkpt lat="43.96072" lon="5.24924">
        <ele>501</ele>
        <time>2019-05-13T14:46:53+02:00</time>
      </trkpt>
      <trkpt lat="43.96075" lon="5.24936">
        <ele>501</ele>
        <time>2019-05-13T14:47:03+02:00</time>
      </trkpt>
      <trkpt lat="43.96076" lon="5.24938">
        <ele>501</ele>
        <time>2019-05-13T14:47:04+02:00</time>
      </trkpt>
      <trkpt lat="43.96076" lon="5.24941">
        <ele>501</ele>
        <time>2019-05-13T14:47:05+02:00</time>
      </trkpt>
      <trkpt lat="43.96078" lon="5.24956">
        <ele>501</ele>
        <time>2019-05-13T14:47:15+02:00</time>
      </trkpt>
      <trkpt lat="43.96082" lon="5.24971">
        <ele>502</ele>
        <time>2019-05-13T14:47:26+02:00</time>
      </trkpt>
      <trkpt lat="43.96085" lon="5.24984">
        <ele>502</ele>
        <time>2019-05-13T14:47:36+02:00</time>
      </trkpt>
      <trkpt lat="43.96085" lon="5.24986">
        <ele>502</ele>
        <time>2019-05-13T14:47:37+02:00</time>
      </trkpt>
      <trkpt lat="43.96087" lon="5.2499">
        <ele>502</ele>
        <time>2019-05-13T14:47:39+02:00</time>
      </trkpt>
      <trkpt lat="43.96087" lon="5.24993">
        <ele>502</ele>
        <time>2019-05-13T14:47:40+02:00</time>
      </trkpt>
      <trkpt lat="43.96087" lon="5.24994">
        <ele>502</ele>
        <time>2019-05-13T14:47:41+02:00</time>
      </trkpt>
      <trkpt lat="43.96088" lon="5.25">
        <ele>502</ele>
        <time>2019-05-13T14:47:50+02:00</time>
      </trkpt>
      <trkpt lat="43.96091" lon="5.25013">
        <ele>503</ele>
        <time>2019-05-13T14:48:01+02:00</time>
      </trkpt>
      <trkpt lat="43.96093" lon="5.25023">
        <ele>503</ele>
        <time>2019-05-13T14:48:14+02:00</time>
      </trkpt>
      <trkpt lat="43.96094" lon="5.2504">
        <ele>503</ele>
        <time>2019-05-13T14:48:26+02:00</time>
      </trkpt>
      <trkpt lat="43.96096" lon="5.25042">
        <ele>503</ele>
        <time>2019-05-13T14:48:28+02:00</time>
      </trkpt>
      <trkpt lat="43.96096" lon="5.25044">
        <ele>503</ele>
        <time>2019-05-13T14:48:29+02:00</time>
      </trkpt>
      <trkpt lat="43.96097" lon="5.25045">
        <ele>503</ele>
        <time>2019-05-13T14:48:30+02:00</time>
      </trkpt>
      <trkpt lat="43.96098" lon="5.25047">
        <ele>504</ele>
        <time>2019-05-13T14:48:32+02:00</time>
      </trkpt>
      <trkpt lat="43.96099" lon="5.25049">
        <ele>504</ele>
        <time>2019-05-13T14:48:33+02:00</time>
      </trkpt>
      <trkpt lat="43.961" lon="5.25064">
        <ele>504</ele>
        <time>2019-05-13T14:48:43+02:00</time>
      </trkpt>
      <trkpt lat="43.96101" lon="5.25067">
        <ele>504</ele>
        <time>2019-05-13T14:48:44+02:00</time>
      </trkpt>
      <trkpt lat="43.96102" lon="5.25069">
        <ele>504</ele>
        <time>2019-05-13T14:48:45+02:00</time>
      </trkpt>
      <trkpt lat="43.96102" lon="5.25071">
        <ele>504</ele>
        <time>2019-05-13T14:48:46+02:00</time>
      </trkpt>
      <trkpt lat="43.961" lon="5.25083">
        <ele>503</ele>
        <time>2019-05-13T14:48:57+02:00</time>
      </trkpt>
      <trkpt lat="43.96099" lon="5.25085">
        <ele>503</ele>
        <time>2019-05-13T14:48:58+02:00</time>
      </trkpt>
      <trkpt lat="43.96098" lon="5.25088">
        <ele>503</ele>
        <time>2019-05-13T14:48:59+02:00</time>
      </trkpt>
      <trkpt lat="43.96097" lon="5.2509">
        <ele>503</ele>
        <time>2019-05-13T14:49:00+02:00</time>
      </trkpt>
      <trkpt lat="43.96097" lon="5.25093">
        <ele>503</ele>
        <time>2019-05-13T14:49:01+02:00</time>
      </trkpt>
      <trkpt lat="43.96096" lon="5.25096">
        <ele>503</ele>
        <time>2019-05-13T14:49:02+02:00</time>
      </trkpt>
      <trkpt lat="43.9609" lon="5.25117">
        <ele>503</ele>
        <time>2019-05-13T14:49:11+02:00</time>
      </trkpt>
      <trkpt lat="43.96084" lon="5.25123">
        <ele>502</ele>
        <time>2019-05-13T14:49:24+02:00</time>
      </trkpt>
      <trkpt lat="43.96083" lon="5.25124">
        <ele>502</ele>
        <time>2019-05-13T14:49:25+02:00</time>
      </trkpt>
      <trkpt lat="43.96082" lon="5.25126">
        <ele>502</ele>
        <time>2019-05-13T14:49:26+02:00</time>
      </trkpt>
      <trkpt lat="43.96075" lon="5.25151">
        <ele>502</ele>
        <time>2019-05-13T14:49:39+02:00</time>
      </trkpt>
      <trkpt lat="43.96071" lon="5.25159">
        <ele>502</ele>
        <time>2019-05-13T14:49:46+02:00</time>
      </trkpt>
      <trkpt lat="43.96069" lon="5.25162">
        <ele>502</ele>
        <time>2019-05-13T14:49:49+02:00</time>
      </trkpt>
      <trkpt lat="43.96067" lon="5.25167">
        <ele>502</ele>
        <time>2019-05-13T14:49:52+02:00</time>
      </trkpt>
      <trkpt lat="43.96066" lon="5.25169">
        <ele>502</ele>
        <time>2019-05-13T14:49:53+02:00</time>
      </trkpt>
      <trkpt lat="43.96066" lon="5.25171">
        <ele>502</ele>
        <time>2019-05-13T14:49:54+02:00</time>
      </trkpt>
      <trkpt lat="43.96066" lon="5.25172">
        <ele>502</ele>
        <time>2019-05-13T14:49:55+02:00</time>
      </trkpt>
      <trkpt lat="43.96065" lon="5.25174">
        <ele>502</ele>
        <time>2019-05-13T14:49:56+02:00</time>
      </trkpt>
      <trkpt lat="43.96065" lon="5.25176">
        <ele>502</ele>
        <time>2019-05-13T14:49:57+02:00</time>
      </trkpt>
      <trkpt lat="43.96064" lon="5.2518">
        <ele>502</ele>
        <time>2019-05-13T14:49:59+02:00</time>
      </trkpt>
      <trkpt lat="43.96063" lon="5.25182">
        <ele>502</ele>
        <time>2019-05-13T14:50:00+02:00</time>
      </trkpt>
      <trkpt lat="43.96063" lon="5.25185">
        <ele>502</ele>
        <time>2019-05-13T14:50:01+02:00</time>
      </trkpt>
      <trkpt lat="43.96062" lon="5.25188">
        <ele>502</ele>
        <time>2019-05-13T14:50:02+02:00</time>
      </trkpt>
      <trkpt lat="43.96061" lon="5.25191">
        <ele>502</ele>
        <time>2019-05-13T14:50:03+02:00</time>
      </trkpt>
      <trkpt lat="43.9606" lon="5.25193">
        <ele>502</ele>
        <time>2019-05-13T14:50:05+02:00</time>
      </trkpt>
      <trkpt lat="43.96059" lon="5.25194">
        <ele>502</ele>
        <time>2019-05-13T14:50:06+02:00</time>
      </trkpt>
      <trkpt lat="43.96053" lon="5.25203">
        <ele>502</ele>
        <time>2019-05-13T14:50:16+02:00</time>
      </trkpt>
      <trkpt lat="43.96046" lon="5.25215">
        <ele>502</ele>
        <time>2019-05-13T14:50:30+02:00</time>
      </trkpt>
      <trkpt lat="43.96044" lon="5.25218">
        <ele>502</ele>
        <time>2019-05-13T14:50:32+02:00</time>
      </trkpt>
      <trkpt lat="43.96043" lon="5.2522">
        <ele>502</ele>
        <time>2019-05-13T14:50:33+02:00</time>
      </trkpt>
      <trkpt lat="43.96031" lon="5.2525">
        <ele>501</ele>
        <time>2019-05-13T14:50:47+02:00</time>
      </trkpt>
      <trkpt lat="43.96027" lon="5.25253">
        <ele>501</ele>
        <time>2019-05-13T14:50:52+02:00</time>
      </trkpt>
      <trkpt lat="43.96026" lon="5.25255">
        <ele>501</ele>
        <time>2019-05-13T14:50:53+02:00</time>
      </trkpt>
      <trkpt lat="43.96025" lon="5.25257">
        <ele>501</ele>
        <time>2019-05-13T14:50:54+02:00</time>
      </trkpt>
      <trkpt lat="43.96024" lon="5.25257">
        <ele>501</ele>
        <time>2019-05-13T14:50:55+02:00</time>
      </trkpt>
      <trkpt lat="43.96017" lon="5.25264">
        <ele>500</ele>
        <time>2019-05-13T14:51:08+02:00</time>
      </trkpt>
      <trkpt lat="43.96005" lon="5.25288">
        <ele>500</ele>
        <time>2019-05-13T14:51:23+02:00</time>
      </trkpt>
      <trkpt lat="43.95991" lon="5.25318">
        <ele>500</ele>
        <time>2019-05-13T14:51:37+02:00</time>
      </trkpt>
      <trkpt lat="43.95987" lon="5.25319">
        <ele>500</ele>
        <time>2019-05-13T14:51:49+02:00</time>
      </trkpt>
      <trkpt lat="43.95983" lon="5.25326">
        <ele>500</ele>
        <time>2019-05-13T14:51:54+02:00</time>
      </trkpt>
      <trkpt lat="43.95981" lon="5.25332">
        <ele>500</ele>
        <time>2019-05-13T14:51:57+02:00</time>
      </trkpt>
      <trkpt lat="43.9598" lon="5.25334">
        <ele>500</ele>
        <time>2019-05-13T14:51:58+02:00</time>
      </trkpt>
      <trkpt lat="43.95979" lon="5.25336">
        <ele>500</ele>
        <time>2019-05-13T14:51:59+02:00</time>
      </trkpt>
      <trkpt lat="43.95978" lon="5.25338">
        <ele>500</ele>
        <time>2019-05-13T14:52:00+02:00</time>
      </trkpt>
      <trkpt lat="43.95977" lon="5.25341">
        <ele>500</ele>
        <time>2019-05-13T14:52:01+02:00</time>
      </trkpt>
      <trkpt lat="43.95976" lon="5.25344">
        <ele>500</ele>
        <time>2019-05-13T14:52:02+02:00</time>
      </trkpt>
      <trkpt lat="43.95975" lon="5.25346">
        <ele>500</ele>
        <time>2019-05-13T14:52:03+02:00</time>
      </trkpt>
      <trkpt lat="43.95974" lon="5.25348">
        <ele>500</ele>
        <time>2019-05-13T14:52:04+02:00</time>
      </trkpt>
      <trkpt lat="43.95965" lon="5.25358">
        <ele>499</ele>
        <time>2019-05-13T14:52:15+02:00</time>
      </trkpt>
      <trkpt lat="43.95965" lon="5.25359">
        <ele>499</ele>
        <time>2019-05-13T14:52:16+02:00</time>
      </trkpt>
      <trkpt lat="43.95963" lon="5.25362">
        <ele>499</ele>
        <time>2019-05-13T14:52:18+02:00</time>
      </trkpt>
      <trkpt lat="43.95958" lon="5.25368">
        <ele>498</ele>
        <time>2019-05-13T14:52:24+02:00</time>
      </trkpt>
      <trkpt lat="43.95957" lon="5.2537">
        <ele>498</ele>
        <time>2019-05-13T14:52:25+02:00</time>
      </trkpt>
      <trkpt lat="43.95957" lon="5.25372">
        <ele>498</ele>
        <time>2019-05-13T14:52:26+02:00</time>
      </trkpt>
      <trkpt lat="43.95957" lon="5.25374">
        <ele>499</ele>
        <time>2019-05-13T14:52:27+02:00</time>
      </trkpt>
      <trkpt lat="43.95957" lon="5.25377">
        <ele>499</ele>
        <time>2019-05-13T14:52:28+02:00</time>
      </trkpt>
      <trkpt lat="43.95957" lon="5.2538">
        <ele>499</ele>
        <time>2019-05-13T14:52:29+02:00</time>
      </trkpt>
      <trkpt lat="43.95956" lon="5.25383">
        <ele>499</ele>
        <time>2019-05-13T14:52:30+02:00</time>
      </trkpt>
      <trkpt lat="43.95956" lon="5.25385">
        <ele>499</ele>
        <time>2019-05-13T14:52:31+02:00</time>
      </trkpt>
      <trkpt lat="43.95954" lon="5.2539">
        <ele>499</ele>
        <time>2019-05-13T14:52:34+02:00</time>
      </trkpt>
      <trkpt lat="43.95945" lon="5.254">
        <ele>499</ele>
        <time>2019-05-13T14:52:45+02:00</time>
      </trkpt>
      <trkpt lat="43.95941" lon="5.25406">
        <ele>499</ele>
        <time>2019-05-13T14:52:54+02:00</time>
      </trkpt>
      <trkpt lat="43.95931" lon="5.25415">
        <ele>499</ele>
        <time>2019-05-13T14:53:02+02:00</time>
      </trkpt>
      <trkpt lat="43.95923" lon="5.25415">
        <ele>499</ele>
        <time>2019-05-13T14:53:13+02:00</time>
      </trkpt>
      <trkpt lat="43.95916" lon="5.25414">
        <ele>499</ele>
        <time>2019-05-13T14:53:28+02:00</time>
      </trkpt>
      <trkpt lat="43.95915" lon="5.25414">
        <ele>498</ele>
        <time>2019-05-13T14:53:43+02:00</time>
      </trkpt>
      <trkpt lat="43.95914" lon="5.25414">
        <ele>498</ele>
        <time>2019-05-13T14:53:49+02:00</time>
      </trkpt>
      <trkpt lat="43.95913" lon="5.25415">
        <ele>498</ele>
        <time>2019-05-13T14:53:50+02:00</time>
      </trkpt>
      <trkpt lat="43.95903" lon="5.25416">
        <ele>497</ele>
        <time>2019-05-13T14:53:57+02:00</time>
      </trkpt>
      <trkpt lat="43.95893" lon="5.25415">
        <ele>495</ele>
        <time>2019-05-13T14:54:09+02:00</time>
      </trkpt>
      <trkpt lat="43.95876" lon="5.25416">
        <ele>492</ele>
        <time>2019-05-13T14:54:23+02:00</time>
      </trkpt>
      <trkpt lat="43.95866" lon="5.25423">
        <ele>491</ele>
        <time>2019-05-13T14:54:37+02:00</time>
      </trkpt>
      <trkpt lat="43.95857" lon="5.25434">
        <ele>489</ele>
        <time>2019-05-13T14:54:49+02:00</time>
      </trkpt>
      <trkpt lat="43.95852" lon="5.25436">
        <ele>488</ele>
        <time>2019-05-13T14:55:00+02:00</time>
      </trkpt>
      <trkpt lat="43.95848" lon="5.25441">
        <ele>487</ele>
        <time>2019-05-13T14:55:05+02:00</time>
      </trkpt>
      <trkpt lat="43.95845" lon="5.25448">
        <ele>487</ele>
        <time>2019-05-13T14:55:09+02:00</time>
      </trkpt>
      <trkpt lat="43.95844" lon="5.25451">
        <ele>487</ele>
        <time>2019-05-13T14:55:10+02:00</time>
      </trkpt>
      <trkpt lat="43.95843" lon="5.25453">
        <ele>487</ele>
        <time>2019-05-13T14:55:11+02:00</time>
      </trkpt>
      <trkpt lat="43.95837" lon="5.25474">
        <ele>487</ele>
        <time>2019-05-13T14:55:16+02:00</time>
      </trkpt>
      <trkpt lat="43.95836" lon="5.25477">
        <ele>487</ele>
        <time>2019-05-13T14:55:17+02:00</time>
      </trkpt>
      <trkpt lat="43.95835" lon="5.25479">
        <ele>487</ele>
        <time>2019-05-13T14:55:18+02:00</time>
      </trkpt>
      <trkpt lat="43.9583" lon="5.25488">
        <ele>487</ele>
        <time>2019-05-13T14:55:30+02:00</time>
      </trkpt>
      <trkpt lat="43.95828" lon="5.25494">
        <ele>487</ele>
        <time>2019-05-13T14:55:42+02:00</time>
      </trkpt>
      <trkpt lat="43.95825" lon="5.25495">
        <ele>487</ele>
        <time>2019-05-13T14:56:01+02:00</time>
      </trkpt>
      <trkpt lat="43.95826" lon="5.25499">
        <ele>487</ele>
        <time>2019-05-13T14:56:24+02:00</time>
      </trkpt>
      <trkpt lat="43.95825" lon="5.25496">
        <ele>487</ele>
        <time>2019-05-13T14:56:47+02:00</time>
      </trkpt>
      <trkpt lat="43.95822" lon="5.255">
        <ele>486</ele>
        <time>2019-05-13T14:56:57+02:00</time>
      </trkpt>
      <trkpt lat="43.95821" lon="5.255">
        <ele>486</ele>
        <time>2019-05-13T14:56:58+02:00</time>
      </trkpt>
      <trkpt lat="43.95806" lon="5.25499">
        <ele>484</ele>
        <time>2019-05-13T14:57:13+02:00</time>
      </trkpt>
      <trkpt lat="43.95801" lon="5.25493">
        <ele>483</ele>
        <time>2019-05-13T14:57:23+02:00</time>
      </trkpt>
      <trkpt lat="43.95797" lon="5.25493">
        <ele>482</ele>
        <time>2019-05-13T14:57:26+02:00</time>
      </trkpt>
      <trkpt lat="43.95796" lon="5.25493">
        <ele>482</ele>
        <time>2019-05-13T14:57:27+02:00</time>
      </trkpt>
      <trkpt lat="43.95794" lon="5.25493">
        <ele>482</ele>
        <time>2019-05-13T14:57:28+02:00</time>
      </trkpt>
      <trkpt lat="43.95792" lon="5.25493">
        <ele>481</ele>
        <time>2019-05-13T14:57:29+02:00</time>
      </trkpt>
      <trkpt lat="43.9579" lon="5.25494">
        <ele>481</ele>
        <time>2019-05-13T14:57:30+02:00</time>
      </trkpt>
      <trkpt lat="43.95788" lon="5.25495">
        <ele>481</ele>
        <time>2019-05-13T14:57:31+02:00</time>
      </trkpt>
      <trkpt lat="43.95786" lon="5.25495">
        <ele>480</ele>
        <time>2019-05-13T14:57:32+02:00</time>
      </trkpt>
      <trkpt lat="43.95784" lon="5.25495">
        <ele>480</ele>
        <time>2019-05-13T14:57:33+02:00</time>
      </trkpt>
      <trkpt lat="43.95782" lon="5.25496">
        <ele>480</ele>
        <time>2019-05-13T14:57:34+02:00</time>
      </trkpt>
      <trkpt lat="43.9578" lon="5.25496">
        <ele>479</ele>
        <time>2019-05-13T14:57:35+02:00</time>
      </trkpt>
      <trkpt lat="43.95778" lon="5.25497">
        <ele>479</ele>
        <time>2019-05-13T14:57:36+02:00</time>
      </trkpt>
      <trkpt lat="43.95776" lon="5.25498">
        <ele>479</ele>
        <time>2019-05-13T14:57:37+02:00</time>
      </trkpt>
      <trkpt lat="43.95774" lon="5.25498">
        <ele>479</ele>
        <time>2019-05-13T14:57:38+02:00</time>
      </trkpt>
      <trkpt lat="43.95773" lon="5.25497">
        <ele>479</ele>
        <time>2019-05-13T14:57:39+02:00</time>
      </trkpt>
      <trkpt lat="43.95773" lon="5.25492">
        <ele>478</ele>
        <time>2019-05-13T14:57:50+02:00</time>
      </trkpt>
      <trkpt lat="43.95774" lon="5.2549">
        <ele>478</ele>
        <time>2019-05-13T14:58:05+02:00</time>
      </trkpt>
      <trkpt lat="43.95773" lon="5.25491">
        <ele>478</ele>
        <time>2019-05-13T14:58:09+02:00</time>
      </trkpt>
      <trkpt lat="43.95769" lon="5.25501">
        <ele>478</ele>
        <time>2019-05-13T14:58:18+02:00</time>
      </trkpt>
      <trkpt lat="43.9577" lon="5.25503">
        <ele>479</ele>
        <time>2019-05-13T14:58:19+02:00</time>
      </trkpt>
      <trkpt lat="43.9577" lon="5.25518">
        <ele>479</ele>
        <time>2019-05-13T14:58:29+02:00</time>
      </trkpt>
      <trkpt lat="43.95767" lon="5.2553">
        <ele>480</ele>
        <time>2019-05-13T14:58:39+02:00</time>
      </trkpt>
      <trkpt lat="43.95765" lon="5.25547">
        <ele>481</ele>
        <time>2019-05-13T14:58:47+02:00</time>
      </trkpt>
      <trkpt lat="43.9576" lon="5.25561">
        <ele>481</ele>
        <time>2019-05-13T14:58:59+02:00</time>
      </trkpt>
      <trkpt lat="43.95758" lon="5.25566">
        <ele>481</ele>
        <time>2019-05-13T14:59:03+02:00</time>
      </trkpt>
      <trkpt lat="43.95752" lon="5.25581">
        <ele>482</ele>
        <time>2019-05-13T14:59:17+02:00</time>
      </trkpt>
      <trkpt lat="43.95746" lon="5.25581">
        <ele>482</ele>
        <time>2019-05-13T14:59:32+02:00</time>
      </trkpt>
      <trkpt lat="43.95745" lon="5.25581">
        <ele>482</ele>
        <time>2019-05-13T14:59:33+02:00</time>
      </trkpt>
      <trkpt lat="43.95738" lon="5.25582">
        <ele>482</ele>
        <time>2019-05-13T14:59:40+02:00</time>
      </trkpt>
      <trkpt lat="43.95736" lon="5.25582">
        <ele>482</ele>
        <time>2019-05-13T14:59:41+02:00</time>
      </trkpt>
      <trkpt lat="43.95725" lon="5.25584">
        <ele>482</ele>
        <time>2019-05-13T14:59:53+02:00</time>
      </trkpt>
      <trkpt lat="43.95723" lon="5.25585">
        <ele>482</ele>
        <time>2019-05-13T14:59:54+02:00</time>
      </trkpt>
      <trkpt lat="43.95706" lon="5.25591">
        <ele>481</ele>
        <time>2019-05-13T15:00:10+02:00</time>
      </trkpt>
      <trkpt lat="43.95705" lon="5.25591">
        <ele>481</ele>
        <time>2019-05-13T15:00:11+02:00</time>
      </trkpt>
      <trkpt lat="43.95704" lon="5.25591">
        <ele>480</ele>
        <time>2019-05-13T15:00:12+02:00</time>
      </trkpt>
      <trkpt lat="43.95702" lon="5.25592">
        <ele>480</ele>
        <time>2019-05-13T15:00:13+02:00</time>
      </trkpt>
      <trkpt lat="43.95692" lon="5.25599">
        <ele>480</ele>
        <time>2019-05-13T15:00:23+02:00</time>
      </trkpt>
      <trkpt lat="43.95691" lon="5.25601">
        <ele>480</ele>
        <time>2019-05-13T15:00:24+02:00</time>
      </trkpt>
      <trkpt lat="43.9568" lon="5.25608">
        <ele>478</ele>
        <time>2019-05-13T15:00:35+02:00</time>
      </trkpt>
      <trkpt lat="43.95676" lon="5.25613">
        <ele>478</ele>
        <time>2019-05-13T15:00:41+02:00</time>
      </trkpt>
      <trkpt lat="43.95674" lon="5.25616">
        <ele>478</ele>
        <time>2019-05-13T15:00:42+02:00</time>
      </trkpt>
      <trkpt lat="43.95673" lon="5.25617">
        <ele>478</ele>
        <time>2019-05-13T15:00:43+02:00</time>
      </trkpt>
      <trkpt lat="43.95666" lon="5.25629">
        <ele>478</ele>
        <time>2019-05-13T15:00:53+02:00</time>
      </trkpt>
      <trkpt lat="43.95665" lon="5.25631">
        <ele>478</ele>
        <time>2019-05-13T15:00:54+02:00</time>
      </trkpt>
      <trkpt lat="43.95665" lon="5.25633">
        <ele>478</ele>
        <time>2019-05-13T15:00:55+02:00</time>
      </trkpt>
      <trkpt lat="43.95664" lon="5.25635">
        <ele>478</ele>
        <time>2019-05-13T15:00:56+02:00</time>
      </trkpt>
      <trkpt lat="43.95663" lon="5.25637">
        <ele>478</ele>
        <time>2019-05-13T15:00:57+02:00</time>
      </trkpt>
      <trkpt lat="43.95654" lon="5.25649">
        <ele>477</ele>
        <time>2019-05-13T15:01:09+02:00</time>
      </trkpt>
      <trkpt lat="43.95645" lon="5.25668">
        <ele>479</ele>
        <time>2019-05-13T15:01:20+02:00</time>
      </trkpt>
      <trkpt lat="43.95639" lon="5.25673">
        <ele>479</ele>
        <time>2019-05-13T15:01:29+02:00</time>
      </trkpt>
      <trkpt lat="43.95629" lon="5.25693">
        <ele>478</ele>
        <time>2019-05-13T15:01:40+02:00</time>
      </trkpt>
      <trkpt lat="43.95626" lon="5.25695">
        <ele>478</ele>
        <time>2019-05-13T15:01:48+02:00</time>
      </trkpt>
      <trkpt lat="43.95626" lon="5.25696">
        <ele>478</ele>
        <time>2019-05-13T15:01:49+02:00</time>
      </trkpt>
      <trkpt lat="43.95625" lon="5.25697">
        <ele>478</ele>
        <time>2019-05-13T15:01:50+02:00</time>
      </trkpt>
      <trkpt lat="43.95624" lon="5.257">
        <ele>478</ele>
        <time>2019-05-13T15:01:51+02:00</time>
      </trkpt>
      <trkpt lat="43.95622" lon="5.25702">
        <ele>478</ele>
        <time>2019-05-13T15:01:52+02:00</time>
      </trkpt>
      <trkpt lat="43.95612" lon="5.25714">
        <ele>479</ele>
        <time>2019-05-13T15:02:03+02:00</time>
      </trkpt>
      <trkpt lat="43.95609" lon="5.25723">
        <ele>479</ele>
        <time>2019-05-13T15:02:11+02:00</time>
      </trkpt>
      <trkpt lat="43.95607" lon="5.25724">
        <ele>479</ele>
        <time>2019-05-13T15:02:12+02:00</time>
      </trkpt>
      <trkpt lat="43.95606" lon="5.25727">
        <ele>479</ele>
        <time>2019-05-13T15:02:13+02:00</time>
      </trkpt>
      <trkpt lat="43.95604" lon="5.25729">
        <ele>479</ele>
        <time>2019-05-13T15:02:14+02:00</time>
      </trkpt>
      <trkpt lat="43.95603" lon="5.25731">
        <ele>478</ele>
        <time>2019-05-13T15:02:15+02:00</time>
      </trkpt>
      <trkpt lat="43.95601" lon="5.25732">
        <ele>478</ele>
        <time>2019-05-13T15:02:16+02:00</time>
      </trkpt>
      <trkpt lat="43.95599" lon="5.25734">
        <ele>478</ele>
        <time>2019-05-13T15:02:18+02:00</time>
      </trkpt>
      <trkpt lat="43.95598" lon="5.25736">
        <ele>478</ele>
        <time>2019-05-13T15:02:19+02:00</time>
      </trkpt>
      <trkpt lat="43.95592" lon="5.2575">
        <ele>478</ele>
        <time>2019-05-13T15:02:30+02:00</time>
      </trkpt>
      <trkpt lat="43.95585" lon="5.25761">
        <ele>478</ele>
        <time>2019-05-13T15:02:40+02:00</time>
      </trkpt>
      <trkpt lat="43.95582" lon="5.25767">
        <ele>478</ele>
        <time>2019-05-13T15:02:45+02:00</time>
      </trkpt>
      <trkpt lat="43.95582" lon="5.2577">
        <ele>478</ele>
        <time>2019-05-13T15:02:46+02:00</time>
      </trkpt>
      <trkpt lat="43.95577" lon="5.25785">
        <ele>479</ele>
        <time>2019-05-13T15:02:57+02:00</time>
      </trkpt>
      <trkpt lat="43.95572" lon="5.25797">
        <ele>478</ele>
        <time>2019-05-13T15:03:06+02:00</time>
      </trkpt>
      <trkpt lat="43.95571" lon="5.258">
        <ele>478</ele>
        <time>2019-05-13T15:03:07+02:00</time>
      </trkpt>
      <trkpt lat="43.95567" lon="5.25815">
        <ele>478</ele>
        <time>2019-05-13T15:03:15+02:00</time>
      </trkpt>
      <trkpt lat="43.95566" lon="5.25814">
        <ele>478</ele>
        <time>2019-05-13T15:03:25+02:00</time>
      </trkpt>
      <trkpt lat="43.95564" lon="5.25809">
        <ele>477</ele>
        <time>2019-05-13T15:03:41+02:00</time>
      </trkpt>
      <trkpt lat="43.95563" lon="5.25806">
        <ele>476</ele>
        <time>2019-05-13T15:04:02+02:00</time>
      </trkpt>
      <trkpt lat="43.95564" lon="5.2581">
        <ele>477</ele>
        <time>2019-05-13T15:04:24+02:00</time>
      </trkpt>
      <trkpt lat="43.95563" lon="5.25808">
        <ele>476</ele>
        <time>2019-05-13T15:04:45+02:00</time>
      </trkpt>
      <trkpt lat="43.95563" lon="5.25809">
        <ele>476</ele>
        <time>2019-05-13T15:04:57+02:00</time>
      </trkpt>
      <trkpt lat="43.95564" lon="5.2581">
        <ele>477</ele>
        <time>2019-05-13T15:05:21+02:00</time>
      </trkpt>
      <trkpt lat="43.95562" lon="5.25808">
        <ele>476</ele>
        <time>2019-05-13T15:05:36+02:00</time>
      </trkpt>
      <trkpt lat="43.95563" lon="5.25807">
        <ele>476</ele>
        <time>2019-05-13T15:05:46+02:00</time>
      </trkpt>
      <trkpt lat="43.95562" lon="5.25808">
        <ele>476</ele>
        <time>2019-05-13T15:06:06+02:00</time>
      </trkpt>
      <trkpt lat="43.95563" lon="5.2581">
        <ele>477</ele>
        <time>2019-05-13T15:06:27+02:00</time>
      </trkpt>
      <trkpt lat="43.95563" lon="5.25814">
        <ele>477</ele>
        <time>2019-05-13T15:06:35+02:00</time>
      </trkpt>
      <trkpt lat="43.95563" lon="5.25817">
        <ele>477</ele>
        <time>2019-05-13T15:06:37+02:00</time>
      </trkpt>
      <trkpt lat="43.95562" lon="5.25818">
        <ele>477</ele>
        <time>2019-05-13T15:06:38+02:00</time>
      </trkpt>
      <trkpt lat="43.95562" lon="5.25821">
        <ele>477</ele>
        <time>2019-05-13T15:06:40+02:00</time>
      </trkpt>
      <trkpt lat="43.95558" lon="5.25838">
        <ele>478</ele>
        <time>2019-05-13T15:06:55+02:00</time>
      </trkpt>
      <trkpt lat="43.9555" lon="5.25865">
        <ele>480</ele>
        <time>2019-05-13T15:07:12+02:00</time>
      </trkpt>
      <trkpt lat="43.95545" lon="5.25896">
        <ele>481</ele>
        <time>2019-05-13T15:07:32+02:00</time>
      </trkpt>
      <trkpt lat="43.95539" lon="5.25923">
        <ele>481</ele>
        <time>2019-05-13T15:07:50+02:00</time>
      </trkpt>
      <trkpt lat="43.95532" lon="5.25939">
        <ele>480</ele>
        <time>2019-05-13T15:08:06+02:00</time>
      </trkpt>
      <trkpt lat="43.95522" lon="5.25952">
        <ele>478</ele>
        <time>2019-05-13T15:08:19+02:00</time>
      </trkpt>
      <trkpt lat="43.95521" lon="5.25953">
        <ele>478</ele>
        <time>2019-05-13T15:08:20+02:00</time>
      </trkpt>
      <trkpt lat="43.95506" lon="5.25968">
        <ele>475</ele>
        <time>2019-05-13T15:08:38+02:00</time>
      </trkpt>
      <trkpt lat="43.95493" lon="5.25981">
        <ele>473</ele>
        <time>2019-05-13T15:08:53+02:00</time>
      </trkpt>
      <trkpt lat="43.95492" lon="5.25981">
        <ele>473</ele>
        <time>2019-05-13T15:08:54+02:00</time>
      </trkpt>
      <trkpt lat="43.95472" lon="5.25971">
        <ele>470</ele>
        <time>2019-05-13T15:09:13+02:00</time>
      </trkpt>
      <trkpt lat="43.95454" lon="5.2595">
        <ele>470</ele>
        <time>2019-05-13T15:09:32+02:00</time>
      </trkpt>
      <trkpt lat="43.9545" lon="5.25947">
        <ele>470</ele>
        <time>2019-05-13T15:09:36+02:00</time>
      </trkpt>
      <trkpt lat="43.95448" lon="5.25946">
        <ele>470</ele>
        <time>2019-05-13T15:09:37+02:00</time>
      </trkpt>
      <trkpt lat="43.95447" lon="5.25946">
        <ele>470</ele>
        <time>2019-05-13T15:09:38+02:00</time>
      </trkpt>
      <trkpt lat="43.95446" lon="5.25946">
        <ele>470</ele>
        <time>2019-05-13T15:09:39+02:00</time>
      </trkpt>
      <trkpt lat="43.95445" lon="5.25946">
        <ele>470</ele>
        <time>2019-05-13T15:09:40+02:00</time>
      </trkpt>
      <trkpt lat="43.95443" lon="5.25947">
        <ele>470</ele>
        <time>2019-05-13T15:09:41+02:00</time>
      </trkpt>
      <trkpt lat="43.95428" lon="5.25956">
        <ele>468</ele>
        <time>2019-05-13T15:09:51+02:00</time>
      </trkpt>
      <trkpt lat="43.95411" lon="5.25955">
        <ele>466</ele>
        <time>2019-05-13T15:10:03+02:00</time>
      </trkpt>
      <trkpt lat="43.95412" lon="5.25953">
        <ele>466</ele>
        <time>2019-05-13T15:10:04+02:00</time>
      </trkpt>
      <trkpt lat="43.95411" lon="5.25951">
        <ele>466</ele>
        <time>2019-05-13T15:10:05+02:00</time>
      </trkpt>
      <trkpt lat="43.9541" lon="5.2595">
        <ele>465</ele>
        <time>2019-05-13T15:10:06+02:00</time>
      </trkpt>
      <trkpt lat="43.95409" lon="5.25949">
        <ele>465</ele>
        <time>2019-05-13T15:10:07+02:00</time>
      </trkpt>
      <trkpt lat="43.95408" lon="5.25947">
        <ele>465</ele>
        <time>2019-05-13T15:10:08+02:00</time>
      </trkpt>
      <trkpt lat="43.95408" lon="5.25946">
        <ele>465</ele>
        <time>2019-05-13T15:10:09+02:00</time>
      </trkpt>
      <trkpt lat="43.95407" lon="5.25944">
        <ele>465</ele>
        <time>2019-05-13T15:10:10+02:00</time>
      </trkpt>
      <trkpt lat="43.95398" lon="5.25936">
        <ele>463</ele>
        <time>2019-05-13T15:10:19+02:00</time>
      </trkpt>
      <trkpt lat="43.95391" lon="5.25931">
        <ele>462</ele>
        <time>2019-05-13T15:10:31+02:00</time>
      </trkpt>
      <trkpt lat="43.95388" lon="5.25928">
        <ele>462</ele>
        <time>2019-05-13T15:10:41+02:00</time>
      </trkpt>
      <trkpt lat="43.95377" lon="5.25928">
        <ele>461</ele>
        <time>2019-05-13T15:10:49+02:00</time>
      </trkpt>
      <trkpt lat="43.95375" lon="5.25928">
        <ele>461</ele>
        <time>2019-05-13T15:10:50+02:00</time>
      </trkpt>
      <trkpt lat="43.95373" lon="5.25929">
        <ele>461</ele>
        <time>2019-05-13T15:10:51+02:00</time>
      </trkpt>
      <trkpt lat="43.95371" lon="5.2593">
        <ele>461</ele>
        <time>2019-05-13T15:10:52+02:00</time>
      </trkpt>
      <trkpt lat="43.9537" lon="5.25931">
        <ele>461</ele>
        <time>2019-05-13T15:10:53+02:00</time>
      </trkpt>
      <trkpt lat="43.95368" lon="5.25932">
        <ele>460</ele>
        <time>2019-05-13T15:10:54+02:00</time>
      </trkpt>
      <trkpt lat="43.95366" lon="5.25933">
        <ele>460</ele>
        <time>2019-05-13T15:10:55+02:00</time>
      </trkpt>
      <trkpt lat="43.95364" lon="5.25934">
        <ele>460</ele>
        <time>2019-05-13T15:10:56+02:00</time>
      </trkpt>
      <trkpt lat="43.95363" lon="5.25934">
        <ele>460</ele>
        <time>2019-05-13T15:10:57+02:00</time>
      </trkpt>
      <trkpt lat="43.95345" lon="5.25943">
        <ele>458</ele>
        <time>2019-05-13T15:11:09+02:00</time>
      </trkpt>
      <trkpt lat="43.9534" lon="5.25944">
        <ele>457</ele>
        <time>2019-05-13T15:11:13+02:00</time>
      </trkpt>
      <trkpt lat="43.95332" lon="5.25938">
        <ele>456</ele>
        <time>2019-05-13T15:11:20+02:00</time>
      </trkpt>
      <trkpt lat="43.95331" lon="5.25937">
        <ele>456</ele>
        <time>2019-05-13T15:11:21+02:00</time>
      </trkpt>
      <trkpt lat="43.9533" lon="5.25935">
        <ele>456</ele>
        <time>2019-05-13T15:11:29+02:00</time>
      </trkpt>
      <trkpt lat="43.95329" lon="5.25936">
        <ele>456</ele>
        <time>2019-05-13T15:11:30+02:00</time>
      </trkpt>
      <trkpt lat="43.95326" lon="5.25937">
        <ele>455</ele>
        <time>2019-05-13T15:11:36+02:00</time>
      </trkpt>
      <trkpt lat="43.95326" lon="5.25939">
        <ele>455</ele>
        <time>2019-05-13T15:11:37+02:00</time>
      </trkpt>
      <trkpt lat="43.95325" lon="5.25941">
        <ele>455</ele>
        <time>2019-05-13T15:11:41+02:00</time>
      </trkpt>
      <trkpt lat="43.95322" lon="5.25943">
        <ele>454</ele>
        <time>2019-05-13T15:11:48+02:00</time>
      </trkpt>
      <trkpt lat="43.95321" lon="5.25945">
        <ele>454</ele>
        <time>2019-05-13T15:11:49+02:00</time>
      </trkpt>
      <trkpt lat="43.95309" lon="5.25966">
        <ele>452</ele>
        <time>2019-05-13T15:12:00+02:00</time>
      </trkpt>
      <trkpt lat="43.95299" lon="5.25971">
        <ele>450</ele>
        <time>2019-05-13T15:12:12+02:00</time>
      </trkpt>
      <trkpt lat="43.95299" lon="5.25976">
        <ele>450</ele>
        <time>2019-05-13T15:12:19+02:00</time>
      </trkpt>
      <trkpt lat="43.95299" lon="5.25978">
        <ele>450</ele>
        <time>2019-05-13T15:12:20+02:00</time>
      </trkpt>
      <trkpt lat="43.953" lon="5.2598">
        <ele>450</ele>
        <time>2019-05-13T15:12:21+02:00</time>
      </trkpt>
      <trkpt lat="43.95301" lon="5.25982">
        <ele>450</ele>
        <time>2019-05-13T15:12:22+02:00</time>
      </trkpt>
      <trkpt lat="43.95301" lon="5.25985">
        <ele>450</ele>
        <time>2019-05-13T15:12:23+02:00</time>
      </trkpt>
      <trkpt lat="43.95302" lon="5.25987">
        <ele>449</ele>
        <time>2019-05-13T15:12:24+02:00</time>
      </trkpt>
      <trkpt lat="43.95302" lon="5.25988">
        <ele>449</ele>
        <time>2019-05-13T15:12:34+02:00</time>
      </trkpt>
      <trkpt lat="43.95301" lon="5.25988">
        <ele>449</ele>
        <time>2019-05-13T15:13:00+02:00</time>
      </trkpt>
      <trkpt lat="43.95301" lon="5.25993">
        <ele>449</ele>
        <time>2019-05-13T15:13:04+02:00</time>
      </trkpt>
      <trkpt lat="43.95301" lon="5.25994">
        <ele>449</ele>
        <time>2019-05-13T15:13:05+02:00</time>
      </trkpt>
      <trkpt lat="43.95298" lon="5.26006">
        <ele>448</ele>
        <time>2019-05-13T15:13:14+02:00</time>
      </trkpt>
      <trkpt lat="43.95293" lon="5.26024">
        <ele>447</ele>
        <time>2019-05-13T15:13:29+02:00</time>
      </trkpt>
      <trkpt lat="43.95292" lon="5.26043">
        <ele>446</ele>
        <time>2019-05-13T15:13:43+02:00</time>
      </trkpt>
      <trkpt lat="43.95287" lon="5.2607">
        <ele>444</ele>
        <time>2019-05-13T15:14:00+02:00</time>
      </trkpt>
      <trkpt lat="43.95287" lon="5.26071">
        <ele>444</ele>
        <time>2019-05-13T15:14:01+02:00</time>
      </trkpt>
      <trkpt lat="43.95287" lon="5.26073">
        <ele>444</ele>
        <time>2019-05-13T15:14:02+02:00</time>
      </trkpt>
      <trkpt lat="43.95287" lon="5.26078">
        <ele>443</ele>
        <time>2019-05-13T15:14:05+02:00</time>
      </trkpt>
      <trkpt lat="43.95285" lon="5.26086">
        <ele>443</ele>
        <time>2019-05-13T15:14:11+02:00</time>
      </trkpt>
      <trkpt lat="43.95283" lon="5.2611">
        <ele>441</ele>
        <time>2019-05-13T15:14:26+02:00</time>
      </trkpt>
      <trkpt lat="43.9528" lon="5.26119">
        <ele>440</ele>
        <time>2019-05-13T15:14:41+02:00</time>
      </trkpt>
      <trkpt lat="43.95281" lon="5.2612">
        <ele>440</ele>
        <time>2019-05-13T15:15:18+02:00</time>
      </trkpt>
      <trkpt lat="43.9528" lon="5.26121">
        <ele>440</ele>
        <time>2019-05-13T15:16:00+02:00</time>
      </trkpt>
      <trkpt lat="43.9528" lon="5.2612">
        <ele>440</ele>
        <time>2019-05-13T15:16:19+02:00</time>
      </trkpt>
      <trkpt lat="43.95278" lon="5.26136">
        <ele>439</ele>
        <time>2019-05-13T15:16:36+02:00</time>
      </trkpt>
      <trkpt lat="43.95277" lon="5.26139">
        <ele>439</ele>
        <time>2019-05-13T15:16:40+02:00</time>
      </trkpt>
      <trkpt lat="43.95277" lon="5.26141">
        <ele>439</ele>
        <time>2019-05-13T15:16:41+02:00</time>
      </trkpt>
      <trkpt lat="43.9527" lon="5.26166">
        <ele>437</ele>
        <time>2019-05-13T15:16:58+02:00</time>
      </trkpt>
      <trkpt lat="43.95266" lon="5.26181">
        <ele>436</ele>
        <time>2019-05-13T15:17:09+02:00</time>
      </trkpt>
      <trkpt lat="43.95264" lon="5.26192">
        <ele>436</ele>
        <time>2019-05-13T15:17:17+02:00</time>
      </trkpt>
      <trkpt lat="43.95263" lon="5.26197">
        <ele>435</ele>
        <time>2019-05-13T15:17:21+02:00</time>
      </trkpt>
      <trkpt lat="43.95259" lon="5.2621">
        <ele>434</ele>
        <time>2019-05-13T15:17:31+02:00</time>
      </trkpt>
      <trkpt lat="43.95254" lon="5.26221">
        <ele>433</ele>
        <time>2019-05-13T15:17:41+02:00</time>
      </trkpt>
      <trkpt lat="43.95254" lon="5.26222">
        <ele>433</ele>
        <time>2019-05-13T15:17:42+02:00</time>
      </trkpt>
      <trkpt lat="43.95254" lon="5.26225">
        <ele>433</ele>
        <time>2019-05-13T15:17:43+02:00</time>
      </trkpt>
      <trkpt lat="43.95252" lon="5.26247">
        <ele>431</ele>
        <time>2019-05-13T15:17:51+02:00</time>
      </trkpt>
      <trkpt lat="43.95242" lon="5.26258">
        <ele>430</ele>
        <time>2019-05-13T15:18:02+02:00</time>
      </trkpt>
      <trkpt lat="43.95237" lon="5.26258">
        <ele>429</ele>
        <time>2019-05-13T15:18:10+02:00</time>
      </trkpt>
      <trkpt lat="43.95235" lon="5.26258">
        <ele>428</ele>
        <time>2019-05-13T15:18:11+02:00</time>
      </trkpt>
      <trkpt lat="43.95232" lon="5.26257">
        <ele>428</ele>
        <time>2019-05-13T15:18:13+02:00</time>
      </trkpt>
      <trkpt lat="43.95228" lon="5.26252">
        <ele>428</ele>
        <time>2019-05-13T15:18:22+02:00</time>
      </trkpt>
      <trkpt lat="43.95225" lon="5.2625">
        <ele>427</ele>
        <time>2019-05-13T15:18:24+02:00</time>
      </trkpt>
      <trkpt lat="43.95218" lon="5.26249">
        <ele>426</ele>
        <time>2019-05-13T15:18:28+02:00</time>
      </trkpt>
      <trkpt lat="43.95216" lon="5.26248">
        <ele>426</ele>
        <time>2019-05-13T15:18:29+02:00</time>
      </trkpt>
      <trkpt lat="43.95214" lon="5.26247">
        <ele>426</ele>
        <time>2019-05-13T15:18:30+02:00</time>
      </trkpt>
      <trkpt lat="43.95211" lon="5.26246">
        <ele>426</ele>
        <time>2019-05-13T15:18:31+02:00</time>
      </trkpt>
      <trkpt lat="43.95209" lon="5.26246">
        <ele>425</ele>
        <time>2019-05-13T15:18:32+02:00</time>
      </trkpt>
      <trkpt lat="43.95208" lon="5.26245">
        <ele>425</ele>
        <time>2019-05-13T15:18:33+02:00</time>
      </trkpt>
      <trkpt lat="43.95207" lon="5.26244">
        <ele>425</ele>
        <time>2019-05-13T15:18:34+02:00</time>
      </trkpt>
      <trkpt lat="43.95205" lon="5.26242">
        <ele>425</ele>
        <time>2019-05-13T15:18:35+02:00</time>
      </trkpt>
      <trkpt lat="43.95204" lon="5.26241">
        <ele>425</ele>
        <time>2019-05-13T15:18:36+02:00</time>
      </trkpt>
      <trkpt lat="43.95202" lon="5.2624">
        <ele>424</ele>
        <time>2019-05-13T15:18:37+02:00</time>
      </trkpt>
      <trkpt lat="43.95201" lon="5.26239">
        <ele>424</ele>
        <time>2019-05-13T15:18:38+02:00</time>
      </trkpt>
      <trkpt lat="43.95199" lon="5.26237">
        <ele>424</ele>
        <time>2019-05-13T15:18:39+02:00</time>
      </trkpt>
      <trkpt lat="43.95198" lon="5.26236">
        <ele>424</ele>
        <time>2019-05-13T15:18:40+02:00</time>
      </trkpt>
      <trkpt lat="43.95197" lon="5.26234">
        <ele>424</ele>
        <time>2019-05-13T15:18:41+02:00</time>
      </trkpt>
      <trkpt lat="43.95192" lon="5.26221">
        <ele>424</ele>
        <time>2019-05-13T15:18:53+02:00</time>
      </trkpt>
      <trkpt lat="43.95191" lon="5.26217">
        <ele>424</ele>
        <time>2019-05-13T15:19:01+02:00</time>
      </trkpt>
      <trkpt lat="43.95189" lon="5.26216">
        <ele>424</ele>
        <time>2019-05-13T15:19:02+02:00</time>
      </trkpt>
      <trkpt lat="43.95189" lon="5.26214">
        <ele>424</ele>
        <time>2019-05-13T15:19:03+02:00</time>
      </trkpt>
      <trkpt lat="43.95174" lon="5.26197">
        <ele>423</ele>
        <time>2019-05-13T15:19:17+02:00</time>
      </trkpt>
      <trkpt lat="43.95172" lon="5.26194">
        <ele>423</ele>
        <time>2019-05-13T15:19:20+02:00</time>
      </trkpt>
      <trkpt lat="43.95171" lon="5.26192">
        <ele>423</ele>
        <time>2019-05-13T15:19:21+02:00</time>
      </trkpt>
      <trkpt lat="43.9517" lon="5.26191">
        <ele>423</ele>
        <time>2019-05-13T15:19:22+02:00</time>
      </trkpt>
      <trkpt lat="43.95169" lon="5.2619">
        <ele>423</ele>
        <time>2019-05-13T15:19:23+02:00</time>
      </trkpt>
      <trkpt lat="43.95168" lon="5.26189">
        <ele>423</ele>
        <time>2019-05-13T15:19:24+02:00</time>
      </trkpt>
      <trkpt lat="43.95165" lon="5.26184">
        <ele>423</ele>
        <time>2019-05-13T15:19:28+02:00</time>
      </trkpt>
      <trkpt lat="43.95164" lon="5.26182">
        <ele>423</ele>
        <time>2019-05-13T15:19:29+02:00</time>
      </trkpt>
      <trkpt lat="43.95164" lon="5.26181">
        <ele>423</ele>
        <time>2019-05-13T15:19:30+02:00</time>
      </trkpt>
      <trkpt lat="43.95163" lon="5.26179">
        <ele>423</ele>
        <time>2019-05-13T15:19:31+02:00</time>
      </trkpt>
      <trkpt lat="43.95162" lon="5.26178">
        <ele>423</ele>
        <time>2019-05-13T15:19:32+02:00</time>
      </trkpt>
      <trkpt lat="43.95152" lon="5.26161">
        <ele>422</ele>
        <time>2019-05-13T15:19:45+02:00</time>
      </trkpt>
      <trkpt lat="43.95152" lon="5.26155">
        <ele>422</ele>
        <time>2019-05-13T15:19:48+02:00</time>
      </trkpt>
      <trkpt lat="43.95151" lon="5.26153">
        <ele>422</ele>
        <time>2019-05-13T15:19:49+02:00</time>
      </trkpt>
      <trkpt lat="43.95151" lon="5.26152">
        <ele>422</ele>
        <time>2019-05-13T15:19:50+02:00</time>
      </trkpt>
      <trkpt lat="43.9515" lon="5.2615">
        <ele>422</ele>
        <time>2019-05-13T15:19:51+02:00</time>
      </trkpt>
      <trkpt lat="43.9515" lon="5.26149">
        <ele>422</ele>
        <time>2019-05-13T15:19:52+02:00</time>
      </trkpt>
      <trkpt lat="43.9515" lon="5.26147">
        <ele>422</ele>
        <time>2019-05-13T15:19:53+02:00</time>
      </trkpt>
      <trkpt lat="43.95148" lon="5.26146">
        <ele>421</ele>
        <time>2019-05-13T15:19:54+02:00</time>
      </trkpt>
      <trkpt lat="43.95147" lon="5.26145">
        <ele>421</ele>
        <time>2019-05-13T15:19:55+02:00</time>
      </trkpt>
      <trkpt lat="43.95147" lon="5.26143">
        <ele>421</ele>
        <time>2019-05-13T15:19:56+02:00</time>
      </trkpt>
      <trkpt lat="43.95144" lon="5.26139">
        <ele>421</ele>
        <time>2019-05-13T15:19:59+02:00</time>
      </trkpt>
      <trkpt lat="43.95143" lon="5.26139">
        <ele>421</ele>
        <time>2019-05-13T15:20:00+02:00</time>
      </trkpt>
      <trkpt lat="43.95142" lon="5.26138">
        <ele>421</ele>
        <time>2019-05-13T15:20:01+02:00</time>
      </trkpt>
      <trkpt lat="43.95141" lon="5.26137">
        <ele>420</ele>
        <time>2019-05-13T15:20:02+02:00</time>
      </trkpt>
      <trkpt lat="43.9514" lon="5.26137">
        <ele>420</ele>
        <time>2019-05-13T15:20:03+02:00</time>
      </trkpt>
      <trkpt lat="43.95136" lon="5.26136">
        <ele>420</ele>
        <time>2019-05-13T15:20:06+02:00</time>
      </trkpt>
      <trkpt lat="43.95135" lon="5.26136">
        <ele>420</ele>
        <time>2019-05-13T15:20:07+02:00</time>
      </trkpt>
      <trkpt lat="43.9513" lon="5.26136">
        <ele>419</ele>
        <time>2019-05-13T15:20:11+02:00</time>
      </trkpt>
      <trkpt lat="43.95129" lon="5.26136">
        <ele>419</ele>
        <time>2019-05-13T15:20:12+02:00</time>
      </trkpt>
      <trkpt lat="43.95128" lon="5.26137">
        <ele>419</ele>
        <time>2019-05-13T15:20:13+02:00</time>
      </trkpt>
      <trkpt lat="43.95117" lon="5.26144">
        <ele>417</ele>
        <time>2019-05-13T15:20:29+02:00</time>
      </trkpt>
      <trkpt lat="43.9511" lon="5.26146">
        <ele>417</ele>
        <time>2019-05-13T15:20:45+02:00</time>
      </trkpt>
      <trkpt lat="43.95109" lon="5.26147">
        <ele>416</ele>
        <time>2019-05-13T15:20:46+02:00</time>
      </trkpt>
      <trkpt lat="43.95097" lon="5.2615">
        <ele>415</ele>
        <time>2019-05-13T15:20:58+02:00</time>
      </trkpt>
      <trkpt lat="43.9508" lon="5.26153">
        <ele>412</ele>
        <time>2019-05-13T15:21:11+02:00</time>
      </trkpt>
      <trkpt lat="43.95079" lon="5.26154">
        <ele>412</ele>
        <time>2019-05-13T15:21:12+02:00</time>
      </trkpt>
      <trkpt lat="43.95077" lon="5.26153">
        <ele>412</ele>
        <time>2019-05-13T15:21:13+02:00</time>
      </trkpt>
      <trkpt lat="43.95066" lon="5.26153">
        <ele>411</ele>
        <time>2019-05-13T15:21:21+02:00</time>
      </trkpt>
      <trkpt lat="43.95064" lon="5.26153">
        <ele>410</ele>
        <time>2019-05-13T15:21:22+02:00</time>
      </trkpt>
      <trkpt lat="43.95063" lon="5.26154">
        <ele>410</ele>
        <time>2019-05-13T15:21:23+02:00</time>
      </trkpt>
      <trkpt lat="43.95062" lon="5.26154">
        <ele>410</ele>
        <time>2019-05-13T15:21:24+02:00</time>
      </trkpt>
      <trkpt lat="43.9506" lon="5.26153">
        <ele>410</ele>
        <time>2019-05-13T15:21:25+02:00</time>
      </trkpt>
      <trkpt lat="43.95059" lon="5.26153">
        <ele>410</ele>
        <time>2019-05-13T15:21:26+02:00</time>
      </trkpt>
      <trkpt lat="43.95058" lon="5.26153">
        <ele>410</ele>
        <time>2019-05-13T15:21:27+02:00</time>
      </trkpt>
      <trkpt lat="43.9504" lon="5.2615">
        <ele>408</ele>
        <time>2019-05-13T15:21:42+02:00</time>
      </trkpt>
      <trkpt lat="43.95038" lon="5.26151">
        <ele>408</ele>
        <time>2019-05-13T15:21:44+02:00</time>
      </trkpt>
      <trkpt lat="43.9503" lon="5.26155">
        <ele>407</ele>
        <time>2019-05-13T15:21:52+02:00</time>
      </trkpt>
      <trkpt lat="43.9503" lon="5.26157">
        <ele>407</ele>
        <time>2019-05-13T15:21:53+02:00</time>
      </trkpt>
      <trkpt lat="43.95027" lon="5.26175">
        <ele>406</ele>
        <time>2019-05-13T15:22:06+02:00</time>
      </trkpt>
      <trkpt lat="43.95025" lon="5.26174">
        <ele>405</ele>
        <time>2019-05-13T15:22:16+02:00</time>
      </trkpt>
      <trkpt lat="43.95023" lon="5.26177">
        <ele>405</ele>
        <time>2019-05-13T15:22:22+02:00</time>
      </trkpt>
      <trkpt lat="43.95021" lon="5.26214">
        <ele>404</ele>
        <time>2019-05-13T15:22:32+02:00</time>
      </trkpt>
      <trkpt lat="43.9502" lon="5.26222">
        <ele>403</ele>
        <time>2019-05-13T15:22:35+02:00</time>
      </trkpt>
      <trkpt lat="43.95019" lon="5.26225">
        <ele>403</ele>
        <time>2019-05-13T15:22:36+02:00</time>
      </trkpt>
      <trkpt lat="43.95018" lon="5.26228">
        <ele>403</ele>
        <time>2019-05-13T15:22:37+02:00</time>
      </trkpt>
      <trkpt lat="43.95017" lon="5.2623">
        <ele>402</ele>
        <time>2019-05-13T15:22:38+02:00</time>
      </trkpt>
      <trkpt lat="43.95015" lon="5.26233">
        <ele>402</ele>
        <time>2019-05-13T15:22:39+02:00</time>
      </trkpt>
      <trkpt lat="43.95002" lon="5.26253">
        <ele>400</ele>
        <time>2019-05-13T15:22:50+02:00</time>
      </trkpt>
      <trkpt lat="43.94997" lon="5.2626">
        <ele>399</ele>
        <time>2019-05-13T15:22:55+02:00</time>
      </trkpt>
      <trkpt lat="43.9499" lon="5.26263">
        <ele>398</ele>
        <time>2019-05-13T15:23:05+02:00</time>
      </trkpt>
      <trkpt lat="43.94987" lon="5.26263">
        <ele>398</ele>
        <time>2019-05-13T15:23:14+02:00</time>
      </trkpt>
      <trkpt lat="43.94987" lon="5.26264">
        <ele>398</ele>
        <time>2019-05-13T15:23:15+02:00</time>
      </trkpt>
      <trkpt lat="43.94986" lon="5.26266">
        <ele>398</ele>
        <time>2019-05-13T15:23:16+02:00</time>
      </trkpt>
      <trkpt lat="43.94985" lon="5.26267">
        <ele>398</ele>
        <time>2019-05-13T15:23:17+02:00</time>
      </trkpt>
      <trkpt lat="43.94975" lon="5.26281">
        <ele>396</ele>
        <time>2019-05-13T15:23:29+02:00</time>
      </trkpt>
      <trkpt lat="43.94975" lon="5.26283">
        <ele>396</ele>
        <time>2019-05-13T15:23:30+02:00</time>
      </trkpt>
      <trkpt lat="43.94974" lon="5.26285">
        <ele>396</ele>
        <time>2019-05-13T15:23:31+02:00</time>
      </trkpt>
      <trkpt lat="43.94973" lon="5.26286">
        <ele>396</ele>
        <time>2019-05-13T15:23:32+02:00</time>
      </trkpt>
      <trkpt lat="43.94972" lon="5.26288">
        <ele>396</ele>
        <time>2019-05-13T15:23:33+02:00</time>
      </trkpt>
      <trkpt lat="43.94971" lon="5.26289">
        <ele>395</ele>
        <time>2019-05-13T15:23:34+02:00</time>
      </trkpt>
      <trkpt lat="43.94969" lon="5.26291">
        <ele>395</ele>
        <time>2019-05-13T15:23:35+02:00</time>
      </trkpt>
      <trkpt lat="43.94962" lon="5.26293">
        <ele>395</ele>
        <time>2019-05-13T15:23:45+02:00</time>
      </trkpt>
      <trkpt lat="43.94954" lon="5.26298">
        <ele>394</ele>
        <time>2019-05-13T15:23:56+02:00</time>
      </trkpt>
      <trkpt lat="43.94949" lon="5.26297">
        <ele>393</ele>
        <time>2019-05-13T15:24:10+02:00</time>
      </trkpt>
      <trkpt lat="43.94949" lon="5.263">
        <ele>393</ele>
        <time>2019-05-13T15:24:34+02:00</time>
      </trkpt>
      <trkpt lat="43.94948" lon="5.26302">
        <ele>393</ele>
        <time>2019-05-13T15:24:58+02:00</time>
      </trkpt>
      <trkpt lat="43.94947" lon="5.26304">
        <ele>393</ele>
        <time>2019-05-13T15:25:21+02:00</time>
      </trkpt>
      <trkpt lat="43.94945" lon="5.26303">
        <ele>393</ele>
        <time>2019-05-13T15:25:37+02:00</time>
      </trkpt>
      <trkpt lat="43.94946" lon="5.26304">
        <ele>393</ele>
        <time>2019-05-13T15:26:06+02:00</time>
      </trkpt>
      <trkpt lat="43.94944" lon="5.26307">
        <ele>393</ele>
        <time>2019-05-13T15:26:31+02:00</time>
      </trkpt>
      <trkpt lat="43.94941" lon="5.2632">
        <ele>392</ele>
        <time>2019-05-13T15:26:43+02:00</time>
      </trkpt>
      <trkpt lat="43.94941" lon="5.26322">
        <ele>392</ele>
        <time>2019-05-13T15:26:44+02:00</time>
      </trkpt>
      <trkpt lat="43.9494" lon="5.26324">
        <ele>392</ele>
        <time>2019-05-13T15:26:45+02:00</time>
      </trkpt>
      <trkpt lat="43.94939" lon="5.26326">
        <ele>392</ele>
        <time>2019-05-13T15:26:46+02:00</time>
      </trkpt>
      <trkpt lat="43.94939" lon="5.26328">
        <ele>392</ele>
        <time>2019-05-13T15:26:47+02:00</time>
      </trkpt>
      <trkpt lat="43.94938" lon="5.26329">
        <ele>391</ele>
        <time>2019-05-13T15:26:48+02:00</time>
      </trkpt>
      <trkpt lat="43.94936" lon="5.26331">
        <ele>391</ele>
        <time>2019-05-13T15:26:49+02:00</time>
      </trkpt>
      <trkpt lat="43.94934" lon="5.26333">
        <ele>391</ele>
        <time>2019-05-13T15:26:50+02:00</time>
      </trkpt>
      <trkpt lat="43.94933" lon="5.26333">
        <ele>391</ele>
        <time>2019-05-13T15:26:51+02:00</time>
      </trkpt>
      <trkpt lat="43.94931" lon="5.26334">
        <ele>391</ele>
        <time>2019-05-13T15:26:52+02:00</time>
      </trkpt>
      <trkpt lat="43.9493" lon="5.26334">
        <ele>390</ele>
        <time>2019-05-13T15:26:54+02:00</time>
      </trkpt>
      <trkpt lat="43.94922" lon="5.26337">
        <ele>389</ele>
        <time>2019-05-13T15:27:06+02:00</time>
      </trkpt>
      <trkpt lat="43.94914" lon="5.2634">
        <ele>388</ele>
        <time>2019-05-13T15:27:18+02:00</time>
      </trkpt>
      <trkpt lat="43.94894" lon="5.26344">
        <ele>386</ele>
        <time>2019-05-13T15:27:33+02:00</time>
      </trkpt>
      <trkpt lat="43.94877" lon="5.26354">
        <ele>384</ele>
        <time>2019-05-13T15:27:49+02:00</time>
      </trkpt>
      <trkpt lat="43.94871" lon="5.26354">
        <ele>384</ele>
        <time>2019-05-13T15:27:59+02:00</time>
      </trkpt>
      <trkpt lat="43.94856" lon="5.2636">
        <ele>382</ele>
        <time>2019-05-13T15:28:12+02:00</time>
      </trkpt>
      <trkpt lat="43.94846" lon="5.26362">
        <ele>381</ele>
        <time>2019-05-13T15:28:22+02:00</time>
      </trkpt>
      <trkpt lat="43.94843" lon="5.26362">
        <ele>381</ele>
        <time>2019-05-13T15:28:31+02:00</time>
      </trkpt>
      <trkpt lat="43.94836" lon="5.26361">
        <ele>380</ele>
        <time>2019-05-13T15:28:41+02:00</time>
      </trkpt>
      <trkpt lat="43.94836" lon="5.26362">
        <ele>380</ele>
        <time>2019-05-13T15:28:42+02:00</time>
      </trkpt>
      <trkpt lat="43.94825" lon="5.2637">
        <ele>379</ele>
        <time>2019-05-13T15:28:52+02:00</time>
      </trkpt>
      <trkpt lat="43.94813" lon="5.26376">
        <ele>377</ele>
        <time>2019-05-13T15:28:59+02:00</time>
      </trkpt>
      <trkpt lat="43.94809" lon="5.26378">
        <ele>376</ele>
        <time>2019-05-13T15:29:00+02:00</time>
      </trkpt>
      <trkpt lat="43.94805" lon="5.26381">
        <ele>376</ele>
        <time>2019-05-13T15:29:01+02:00</time>
      </trkpt>
      <trkpt lat="43.94802" lon="5.26383">
        <ele>376</ele>
        <time>2019-05-13T15:29:02+02:00</time>
      </trkpt>
      <trkpt lat="43.94801" lon="5.26383">
        <ele>376</ele>
        <time>2019-05-13T15:29:03+02:00</time>
      </trkpt>
      <trkpt lat="43.94776" lon="5.26402">
        <ele>374</ele>
        <time>2019-05-13T15:29:12+02:00</time>
      </trkpt>
      <trkpt lat="43.94758" lon="5.26418">
        <ele>372</ele>
        <time>2019-05-13T15:29:22+02:00</time>
      </trkpt>
      <trkpt lat="43.94742" lon="5.26429">
        <ele>370</ele>
        <time>2019-05-13T15:29:35+02:00</time>
      </trkpt>
      <trkpt lat="43.94739" lon="5.26427">
        <ele>370</ele>
        <time>2019-05-13T15:29:46+02:00</time>
      </trkpt>
      <trkpt lat="43.94738" lon="5.26427">
        <ele>370</ele>
        <time>2019-05-13T15:29:47+02:00</time>
      </trkpt>
      <trkpt lat="43.94737" lon="5.26428">
        <ele>370</ele>
        <time>2019-05-13T15:29:48+02:00</time>
      </trkpt>
      <trkpt lat="43.94724" lon="5.26438">
        <ele>369</ele>
        <time>2019-05-13T15:29:55+02:00</time>
      </trkpt>
      <trkpt lat="43.94723" lon="5.2644">
        <ele>369</ele>
        <time>2019-05-13T15:29:56+02:00</time>
      </trkpt>
      <trkpt lat="43.9472" lon="5.26442">
        <ele>369</ele>
        <time>2019-05-13T15:30:04+02:00</time>
      </trkpt>
      <trkpt lat="43.94717" lon="5.26452">
        <ele>368</ele>
        <time>2019-05-13T15:30:15+02:00</time>
      </trkpt>
      <trkpt lat="43.94717" lon="5.26454">
        <ele>368</ele>
        <time>2019-05-13T15:30:16+02:00</time>
      </trkpt>
      <trkpt lat="43.94717" lon="5.26456">
        <ele>368</ele>
        <time>2019-05-13T15:30:17+02:00</time>
      </trkpt>
      <trkpt lat="43.94717" lon="5.26459">
        <ele>368</ele>
        <time>2019-05-13T15:30:18+02:00</time>
      </trkpt>
      <trkpt lat="43.94717" lon="5.26461">
        <ele>368</ele>
        <time>2019-05-13T15:30:19+02:00</time>
      </trkpt>
      <trkpt lat="43.94716" lon="5.26478">
        <ele>368</ele>
        <time>2019-05-13T15:30:25+02:00</time>
      </trkpt>
      <trkpt lat="43.94715" lon="5.26481">
        <ele>368</ele>
        <time>2019-05-13T15:30:26+02:00</time>
      </trkpt>
      <trkpt lat="43.94715" lon="5.26483">
        <ele>368</ele>
        <time>2019-05-13T15:30:27+02:00</time>
      </trkpt>
      <trkpt lat="43.94712" lon="5.26486">
        <ele>367</ele>
        <time>2019-05-13T15:30:30+02:00</time>
      </trkpt>
      <trkpt lat="43.94711" lon="5.26487">
        <ele>367</ele>
        <time>2019-05-13T15:30:31+02:00</time>
      </trkpt>
      <trkpt lat="43.94706" lon="5.26487">
        <ele>367</ele>
        <time>2019-05-13T15:30:40+02:00</time>
      </trkpt>
      <trkpt lat="43.94702" lon="5.26491">
        <ele>366</ele>
        <time>2019-05-13T15:30:51+02:00</time>
      </trkpt>
      <trkpt lat="43.94694" lon="5.26499">
        <ele>365</ele>
        <time>2019-05-13T15:31:01+02:00</time>
      </trkpt>
      <trkpt lat="43.94692" lon="5.26501">
        <ele>365</ele>
        <time>2019-05-13T15:31:02+02:00</time>
      </trkpt>
      <trkpt lat="43.94668" lon="5.26522">
        <ele>360</ele>
        <time>2019-05-13T15:31:15+02:00</time>
      </trkpt>
      <trkpt lat="43.94648" lon="5.26532">
        <ele>357</ele>
        <time>2019-05-13T15:31:27+02:00</time>
      </trkpt>
      <trkpt lat="43.94638" lon="5.26535">
        <ele>357</ele>
        <time>2019-05-13T15:31:37+02:00</time>
      </trkpt>
      <trkpt lat="43.94628" lon="5.26528">
        <ele>356</ele>
        <time>2019-05-13T15:31:51+02:00</time>
      </trkpt>
      <trkpt lat="43.94627" lon="5.26528">
        <ele>356</ele>
        <time>2019-05-13T15:31:52+02:00</time>
      </trkpt>
      <trkpt lat="43.94619" lon="5.26526">
        <ele>355</ele>
        <time>2019-05-13T15:31:59+02:00</time>
      </trkpt>
      <trkpt lat="43.94618" lon="5.26525">
        <ele>355</ele>
        <time>2019-05-13T15:32:00+02:00</time>
      </trkpt>
      <trkpt lat="43.94611" lon="5.26521">
        <ele>354</ele>
        <time>2019-05-13T15:32:08+02:00</time>
      </trkpt>
      <trkpt lat="43.94609" lon="5.26521">
        <ele>354</ele>
        <time>2019-05-13T15:32:09+02:00</time>
      </trkpt>
      <trkpt lat="43.94608" lon="5.2652">
        <ele>354</ele>
        <time>2019-05-13T15:32:10+02:00</time>
      </trkpt>
      <trkpt lat="43.94607" lon="5.2652">
        <ele>354</ele>
        <time>2019-05-13T15:32:11+02:00</time>
      </trkpt>
      <trkpt lat="43.94606" lon="5.26519">
        <ele>353</ele>
        <time>2019-05-13T15:32:12+02:00</time>
      </trkpt>
      <trkpt lat="43.94584" lon="5.26501">
        <ele>350</ele>
        <time>2019-05-13T15:32:26+02:00</time>
      </trkpt>
      <trkpt lat="43.94584" lon="5.26491">
        <ele>350</ele>
        <time>2019-05-13T15:32:36+02:00</time>
      </trkpt>
      <trkpt lat="43.94583" lon="5.26491">
        <ele>350</ele>
        <time>2019-05-13T15:32:37+02:00</time>
      </trkpt>
      <trkpt lat="43.94582" lon="5.2649">
        <ele>350</ele>
        <time>2019-05-13T15:32:38+02:00</time>
      </trkpt>
      <trkpt lat="43.94582" lon="5.26488">
        <ele>350</ele>
        <time>2019-05-13T15:32:48+02:00</time>
      </trkpt>
      <trkpt lat="43.94583" lon="5.2649">
        <ele>350</ele>
        <time>2019-05-13T15:33:06+02:00</time>
      </trkpt>
      <trkpt lat="43.94583" lon="5.26485">
        <ele>350</ele>
        <time>2019-05-13T15:33:24+02:00</time>
      </trkpt>
      <trkpt lat="43.94584" lon="5.26484">
        <ele>350</ele>
        <time>2019-05-13T15:33:41+02:00</time>
      </trkpt>
      <trkpt lat="43.94584" lon="5.26483">
        <ele>350</ele>
        <time>2019-05-13T15:34:11+02:00</time>
      </trkpt>
      <trkpt lat="43.94579" lon="5.26493">
        <ele>349</ele>
        <time>2019-05-13T15:34:21+02:00</time>
      </trkpt>
      <trkpt lat="43.94578" lon="5.26496">
        <ele>349</ele>
        <time>2019-05-13T15:34:22+02:00</time>
      </trkpt>
      <trkpt lat="43.94574" lon="5.2651">
        <ele>349</ele>
        <time>2019-05-13T15:34:35+02:00</time>
      </trkpt>
      <trkpt lat="43.94572" lon="5.26536">
        <ele>349</ele>
        <time>2019-05-13T15:34:50+02:00</time>
      </trkpt>
      <trkpt lat="43.94568" lon="5.26565">
        <ele>348</ele>
        <time>2019-05-13T15:35:07+02:00</time>
      </trkpt>
      <trkpt lat="43.94563" lon="5.26576">
        <ele>347</ele>
        <time>2019-05-13T15:35:19+02:00</time>
      </trkpt>
      <trkpt lat="43.94563" lon="5.26592">
        <ele>346</ele>
        <time>2019-05-13T15:35:29+02:00</time>
      </trkpt>
      <trkpt lat="43.94562" lon="5.26594">
        <ele>346</ele>
        <time>2019-05-13T15:35:32+02:00</time>
      </trkpt>
      <trkpt lat="43.94555" lon="5.26609">
        <ele>345</ele>
        <time>2019-05-13T15:35:44+02:00</time>
      </trkpt>
      <trkpt lat="43.94544" lon="5.26619">
        <ele>343</ele>
        <time>2019-05-13T15:35:56+02:00</time>
      </trkpt>
      <trkpt lat="43.94535" lon="5.26629">
        <ele>342</ele>
        <time>2019-05-13T15:36:09+02:00</time>
      </trkpt>
      <trkpt lat="43.94524" lon="5.26644">
        <ele>342</ele>
        <time>2019-05-13T15:36:23+02:00</time>
      </trkpt>
      <trkpt lat="43.94518" lon="5.26656">
        <ele>342</ele>
        <time>2019-05-13T15:36:34+02:00</time>
      </trkpt>
      <trkpt lat="43.94517" lon="5.26657">
        <ele>341</ele>
        <time>2019-05-13T15:36:35+02:00</time>
      </trkpt>
      <trkpt lat="43.94512" lon="5.26674">
        <ele>341</ele>
        <time>2019-05-13T15:36:41+02:00</time>
      </trkpt>
      <trkpt lat="43.94512" lon="5.26677">
        <ele>341</ele>
        <time>2019-05-13T15:36:42+02:00</time>
      </trkpt>
      <trkpt lat="43.94511" lon="5.2668">
        <ele>341</ele>
        <time>2019-05-13T15:36:43+02:00</time>
      </trkpt>
      <trkpt lat="43.9451" lon="5.26683">
        <ele>341</ele>
        <time>2019-05-13T15:36:44+02:00</time>
      </trkpt>
      <trkpt lat="43.94509" lon="5.26687">
        <ele>341</ele>
        <time>2019-05-13T15:36:45+02:00</time>
      </trkpt>
      <trkpt lat="43.94503" lon="5.26732">
        <ele>341</ele>
        <time>2019-05-13T15:37:00+02:00</time>
      </trkpt>
      <trkpt lat="43.94502" lon="5.26749">
        <ele>341</ele>
        <time>2019-05-13T15:37:14+02:00</time>
      </trkpt>
      <trkpt lat="43.94501" lon="5.26764">
        <ele>341</ele>
        <time>2019-05-13T15:37:23+02:00</time>
      </trkpt>
      <trkpt lat="43.94501" lon="5.26766">
        <ele>341</ele>
        <time>2019-05-13T15:37:24+02:00</time>
      </trkpt>
      <trkpt lat="43.94502" lon="5.26769">
        <ele>340</ele>
        <time>2019-05-13T15:37:26+02:00</time>
      </trkpt>
      <trkpt lat="43.94502" lon="5.26772">
        <ele>340</ele>
        <time>2019-05-13T15:37:27+02:00</time>
      </trkpt>
      <trkpt lat="43.94502" lon="5.26774">
        <ele>340</ele>
        <time>2019-05-13T15:37:28+02:00</time>
      </trkpt>
      <trkpt lat="43.94508" lon="5.26807">
        <ele>339</ele>
        <time>2019-05-13T15:37:44+02:00</time>
      </trkpt>
      <trkpt lat="43.94507" lon="5.26808">
        <ele>339</ele>
        <time>2019-05-13T15:37:45+02:00</time>
      </trkpt>
      <trkpt lat="43.9451" lon="5.26838">
        <ele>337</ele>
        <time>2019-05-13T15:37:58+02:00</time>
      </trkpt>
      <trkpt lat="43.94509" lon="5.26853">
        <ele>336</ele>
        <time>2019-05-13T15:38:08+02:00</time>
      </trkpt>
      <trkpt lat="43.94496" lon="5.26874">
        <ele>334</ele>
        <time>2019-05-13T15:38:20+02:00</time>
      </trkpt>
      <trkpt lat="43.94472" lon="5.26877">
        <ele>332</ele>
        <time>2019-05-13T15:38:31+02:00</time>
      </trkpt>
      <trkpt lat="43.94463" lon="5.26871">
        <ele>332</ele>
        <time>2019-05-13T15:38:37+02:00</time>
      </trkpt>
      <trkpt lat="43.94463" lon="5.26868">
        <ele>332</ele>
        <time>2019-05-13T15:38:38+02:00</time>
      </trkpt>
      <trkpt lat="43.9446" lon="5.26844">
        <ele>333</ele>
        <time>2019-05-13T15:38:56+02:00</time>
      </trkpt>
      <trkpt lat="43.94456" lon="5.26833">
        <ele>333</ele>
        <time>2019-05-13T15:39:12+02:00</time>
      </trkpt>
      <trkpt lat="43.94446" lon="5.26825">
        <ele>332</ele>
        <time>2019-05-13T15:39:22+02:00</time>
      </trkpt>
      <trkpt lat="43.94428" lon="5.26814">
        <ele>331</ele>
        <time>2019-05-13T15:39:30+02:00</time>
      </trkpt>
      <trkpt lat="43.94426" lon="5.26812">
        <ele>331</ele>
        <time>2019-05-13T15:39:31+02:00</time>
      </trkpt>
      <trkpt lat="43.94419" lon="5.26805">
        <ele>331</ele>
        <time>2019-05-13T15:39:42+02:00</time>
      </trkpt>
      <trkpt lat="43.94409" lon="5.26799">
        <ele>330</ele>
        <time>2019-05-13T15:39:53+02:00</time>
      </trkpt>
      <trkpt lat="43.94406" lon="5.26799">
        <ele>330</ele>
        <time>2019-05-13T15:39:54+02:00</time>
      </trkpt>
      <trkpt lat="43.94397" lon="5.26798">
        <ele>329</ele>
        <time>2019-05-13T15:39:59+02:00</time>
      </trkpt>
      <trkpt lat="43.94392" lon="5.26799">
        <ele>328</ele>
        <time>2019-05-13T15:40:02+02:00</time>
      </trkpt>
      <trkpt lat="43.9439" lon="5.26799">
        <ele>328</ele>
        <time>2019-05-13T15:40:03+02:00</time>
      </trkpt>
      <trkpt lat="43.94388" lon="5.268">
        <ele>328</ele>
        <time>2019-05-13T15:40:04+02:00</time>
      </trkpt>
      <trkpt lat="43.94386" lon="5.268">
        <ele>328</ele>
        <time>2019-05-13T15:40:05+02:00</time>
      </trkpt>
      <trkpt lat="43.94385" lon="5.26802">
        <ele>327</ele>
        <time>2019-05-13T15:40:06+02:00</time>
      </trkpt>
      <trkpt lat="43.94381" lon="5.26802">
        <ele>327</ele>
        <time>2019-05-13T15:40:09+02:00</time>
      </trkpt>
      <trkpt lat="43.9438" lon="5.26803">
        <ele>326</ele>
        <time>2019-05-13T15:40:10+02:00</time>
      </trkpt>
      <trkpt lat="43.94376" lon="5.26805">
        <ele>326</ele>
        <time>2019-05-13T15:40:18+02:00</time>
      </trkpt>
      <trkpt lat="43.94376" lon="5.26808">
        <ele>326</ele>
        <time>2019-05-13T15:40:19+02:00</time>
      </trkpt>
      <trkpt lat="43.94376" lon="5.2681">
        <ele>325</ele>
        <time>2019-05-13T15:40:20+02:00</time>
      </trkpt>
      <trkpt lat="43.94375" lon="5.26815">
        <ele>325</ele>
        <time>2019-05-13T15:40:23+02:00</time>
      </trkpt>
      <trkpt lat="43.94374" lon="5.26817">
        <ele>325</ele>
        <time>2019-05-13T15:40:24+02:00</time>
      </trkpt>
      <trkpt lat="43.94374" lon="5.26819">
        <ele>325</ele>
        <time>2019-05-13T15:40:25+02:00</time>
      </trkpt>
      <trkpt lat="43.94369" lon="5.26828">
        <ele>324</ele>
        <time>2019-05-13T15:40:37+02:00</time>
      </trkpt>
      <trkpt lat="43.94359" lon="5.26842">
        <ele>323</ele>
        <time>2019-05-13T15:40:47+02:00</time>
      </trkpt>
      <trkpt lat="43.94358" lon="5.26844">
        <ele>322</ele>
        <time>2019-05-13T15:40:51+02:00</time>
      </trkpt>
      <trkpt lat="43.94353" lon="5.2685">
        <ele>322</ele>
        <time>2019-05-13T15:40:59+02:00</time>
      </trkpt>
      <trkpt lat="43.9435" lon="5.2685">
        <ele>322</ele>
        <time>2019-05-13T15:41:06+02:00</time>
      </trkpt>
      <trkpt lat="43.94348" lon="5.26851">
        <ele>322</ele>
        <time>2019-05-13T15:41:16+02:00</time>
      </trkpt>
      <trkpt lat="43.94352" lon="5.26842">
        <ele>322</ele>
        <time>2019-05-13T15:41:27+02:00</time>
      </trkpt>
      <trkpt lat="43.94354" lon="5.26833">
        <ele>322</ele>
        <time>2019-05-13T15:41:34+02:00</time>
      </trkpt>
      <trkpt lat="43.94353" lon="5.26831">
        <ele>322</ele>
        <time>2019-05-13T15:41:35+02:00</time>
      </trkpt>
      <trkpt lat="43.94351" lon="5.2683">
        <ele>322</ele>
        <time>2019-05-13T15:41:36+02:00</time>
      </trkpt>
      <trkpt lat="43.9435" lon="5.26829">
        <ele>322</ele>
        <time>2019-05-13T15:41:37+02:00</time>
      </trkpt>
      <trkpt lat="43.94348" lon="5.26828">
        <ele>322</ele>
        <time>2019-05-13T15:41:38+02:00</time>
      </trkpt>
      <trkpt lat="43.94346" lon="5.26827">
        <ele>322</ele>
        <time>2019-05-13T15:41:39+02:00</time>
      </trkpt>
      <trkpt lat="43.94345" lon="5.26827">
        <ele>322</ele>
        <time>2019-05-13T15:41:40+02:00</time>
      </trkpt>
      <trkpt lat="43.94332" lon="5.26822">
        <ele>321</ele>
        <time>2019-05-13T15:41:52+02:00</time>
      </trkpt>
      <trkpt lat="43.94323" lon="5.26819">
        <ele>320</ele>
        <time>2019-05-13T15:42:08+02:00</time>
      </trkpt>
      <trkpt lat="43.9432" lon="5.2682">
        <ele>320</ele>
        <time>2019-05-13T15:42:12+02:00</time>
      </trkpt>
      <trkpt lat="43.94319" lon="5.2682">
        <ele>319</ele>
        <time>2019-05-13T15:42:13+02:00</time>
      </trkpt>
      <trkpt lat="43.94318" lon="5.26821">
        <ele>319</ele>
        <time>2019-05-13T15:42:14+02:00</time>
      </trkpt>
      <trkpt lat="43.94317" lon="5.26821">
        <ele>319</ele>
        <time>2019-05-13T15:42:15+02:00</time>
      </trkpt>
      <trkpt lat="43.94316" lon="5.26821">
        <ele>319</ele>
        <time>2019-05-13T15:42:16+02:00</time>
      </trkpt>
      <trkpt lat="43.94315" lon="5.26821">
        <ele>319</ele>
        <time>2019-05-13T15:42:17+02:00</time>
      </trkpt>
      <trkpt lat="43.94313" lon="5.26821">
        <ele>319</ele>
        <time>2019-05-13T15:42:18+02:00</time>
      </trkpt>
      <trkpt lat="43.94312" lon="5.26821">
        <ele>319</ele>
        <time>2019-05-13T15:42:19+02:00</time>
      </trkpt>
      <trkpt lat="43.94296" lon="5.26828">
        <ele>316</ele>
        <time>2019-05-13T15:42:35+02:00</time>
      </trkpt>
      <trkpt lat="43.94278" lon="5.26843">
        <ele>313</ele>
        <time>2019-05-13T15:42:55+02:00</time>
      </trkpt>
      <trkpt lat="43.94272" lon="5.26849">
        <ele>313</ele>
        <time>2019-05-13T15:43:02+02:00</time>
      </trkpt>
      <trkpt lat="43.94271" lon="5.26851">
        <ele>313</ele>
        <time>2019-05-13T15:43:03+02:00</time>
      </trkpt>
      <trkpt lat="43.94271" lon="5.26852">
        <ele>313</ele>
        <time>2019-05-13T15:43:04+02:00</time>
      </trkpt>
      <trkpt lat="43.94267" lon="5.26857">
        <ele>313</ele>
        <time>2019-05-13T15:43:09+02:00</time>
      </trkpt>
      <trkpt lat="43.94265" lon="5.26861">
        <ele>313</ele>
        <time>2019-05-13T15:43:11+02:00</time>
      </trkpt>
      <trkpt lat="43.94254" lon="5.26887">
        <ele>313</ele>
        <time>2019-05-13T15:43:24+02:00</time>
      </trkpt>
      <trkpt lat="43.94247" lon="5.26894">
        <ele>312</ele>
        <time>2019-05-13T15:43:36+02:00</time>
      </trkpt>
      <trkpt lat="43.94246" lon="5.26899">
        <ele>312</ele>
        <time>2019-05-13T15:43:40+02:00</time>
      </trkpt>
      <trkpt lat="43.94244" lon="5.26905">
        <ele>312</ele>
        <time>2019-05-13T15:43:44+02:00</time>
      </trkpt>
      <trkpt lat="43.94234" lon="5.26918">
        <ele>312</ele>
        <time>2019-05-13T15:43:58+02:00</time>
      </trkpt>
      <trkpt lat="43.94227" lon="5.26937">
        <ele>311</ele>
        <time>2019-05-13T15:44:07+02:00</time>
      </trkpt>
      <trkpt lat="43.94224" lon="5.26942">
        <ele>311</ele>
        <time>2019-05-13T15:44:16+02:00</time>
      </trkpt>
      <trkpt lat="43.94222" lon="5.26954">
        <ele>312</ele>
        <time>2019-05-13T15:44:26+02:00</time>
      </trkpt>
      <trkpt lat="43.94216" lon="5.2697">
        <ele>312</ele>
        <time>2019-05-13T15:44:36+02:00</time>
      </trkpt>
      <trkpt lat="43.9421" lon="5.2698">
        <ele>311</ele>
        <time>2019-05-13T15:44:45+02:00</time>
      </trkpt>
      <trkpt lat="43.94206" lon="5.26984">
        <ele>311</ele>
        <time>2019-05-13T15:44:55+02:00</time>
      </trkpt>
      <trkpt lat="43.94198" lon="5.27004">
        <ele>310</ele>
        <time>2019-05-13T15:45:06+02:00</time>
      </trkpt>
      <trkpt lat="43.94194" lon="5.27008">
        <ele>310</ele>
        <time>2019-05-13T15:45:16+02:00</time>
      </trkpt>
      <trkpt lat="43.94194" lon="5.27008">
        <ele>310</ele>
        <time>2019-05-13T15:45:28+02:00</time>
      </trkpt>
      <trkpt lat="43.94191" lon="5.27009">
        <ele>309</ele>
        <time>2019-05-13T15:45:42+02:00</time>
      </trkpt>
      <trkpt lat="43.94188" lon="5.27012">
        <ele>308</ele>
        <time>2019-05-13T15:45:58+02:00</time>
      </trkpt>
      <trkpt lat="43.94188" lon="5.27012">
        <ele>308</ele>
        <time>2019-05-13T15:46:15+02:00</time>
      </trkpt>
    </trkseg>
  </trk>
</gpx>